Time,TemperatureF,DewpointF,PressureIn,WindDirection,WindDirectionDegrees,WindSpeedMPH,WindSpeedGustMPH,Humidity,HourlyPrecipIn,Conditions,Clouds,dailyrainin,SoftwareType,DateUTC
2013-02-26 00:00:00,38.6,24.7,29.89,ESE,115,6.0,6.0,57,0.00,,---,0.00,VWS V14.01,2013-02-26 05:00:00,
2013-02-26 00:01:00,38.6,24.7,29.85,SE,135,1.0,5.0,57,0.00,,---,0.00,VWS V14.01,2013-02-26 05:01:00,
2013-02-26 00:02:00,38.7,24.8,29.85,ESE,113,8.0,9.0,57,0.00,,---,0.00,VWS V14.01,2013-02-26 05:02:00,
2013-02-26 00:03:00,38.7,24.8,29.85,ESE,114,5.0,8.0,57,0.00,,---,0.00,VWS V14.01,2013-02-26 05:03:00,
2013-02-26 00:04:00,38.6,24.7,29.88,ESE,115,6.0,6.0,57,0.00,,---,0.00,VWS V14.01,2013-02-26 05:04:00,
2013-02-26 00:05:00,38.8,24.9,29.85,East,97,6.0,9.0,57,0.00,,---,0.00,VWS V14.01,2013-02-26 05:05:00,
2013-02-26 00:06:00,38.8,24.9,29.85,SE,139,8.0,9.0,57,0.00,,---,0.00,VWS V14.01,2013-02-26 05:06:00,
2013-02-26 00:07:00,38.5,24.6,29.88,SE,136,8.0,8.0,57,0.00,,---,0.00,VWS V14.01,2013-02-26 05:07:00,
2013-02-26 00:08:00,38.8,24.9,29.85,SE,138,9.0,11.0,57,0.00,,---,0.00,VWS V14.01,2013-02-26 05:08:00,
2013-02-26 00:09:00,38.8,24.9,29.85,ESE,119,4.0,15.0,57,0.00,,---,0.00,VWS V14.01,2013-02-26 05:09:00,
2013-02-26 00:10:00,38.8,24.9,29.85,SE,130,2.0,9.0,57,0.00,,---,0.00,VWS V14.01,2013-02-26 05:10:00,
2013-02-26 00:11:00,38.5,24.6,29.88,SE,129,7.0,9.0,57,0.00,,---,0.00,VWS V14.01,2013-02-26 05:11:00,
2013-02-26 00:12:00,38.9,25.0,29.84,SE,133,2.0,5.0,57,0.00,,---,0.00,VWS V14.01,2013-02-26 05:12:00,
2013-02-26 00:13:00,38.9,25.0,29.84,SSE,155,2.0,13.0,57,0.00,,---,0.00,VWS V14.01,2013-02-26 05:13:00,
2013-02-26 00:14:00,38.9,25.0,29.84,East,88,4.0,11.0,57,0.00,,---,0.00,VWS V14.01,2013-02-26 05:14:00,
2013-02-26 00:15:00,38.9,24.6,29.83,ESE,120,6.0,15.0,56,0.00,,---,0.00,VWS V14.01,2013-02-26 05:15:00,
2013-02-26 00:16:00,38.6,24.7,29.88,NE,55,2.0,5.0,57,0.00,,---,0.00,VWS V14.01,2013-02-26 05:16:00,
2013-02-26 00:17:00,38.9,24.6,29.83,SE,128,7.0,9.0,56,0.00,,---,0.00,VWS V14.01,2013-02-26 05:17:00,
2013-02-26 00:18:00,38.9,25.0,29.83,ESE,111,1.0,7.0,57,0.00,,---,0.00,VWS V14.01,2013-02-26 05:18:00,
2013-02-26 00:19:00,38.9,25.0,29.83,SE,143,4.0,5.0,57,0.00,,---,0.00,VWS V14.01,2013-02-26 05:19:00,
2013-02-26 00:20:00,38.9,25.0,29.83,East,98,2.0,6.0,57,0.00,,---,0.00,VWS V14.01,2013-02-26 05:20:00,
2013-02-26 00:21:00,38.6,24.7,29.87,SE,140,4.0,13.0,57,0.00,,---,0.00,VWS V14.01,2013-02-26 05:21:00,
2013-02-26 00:22:00,39.0,25.1,29.83,SSE,168,6.0,6.0,57,0.00,,---,0.00,VWS V14.01,2013-02-26 05:22:00,
2013-02-26 00:23:00,39.0,25.1,29.83,ESE,121,7.0,8.0,57,0.00,,---,0.00,VWS V14.01,2013-02-26 05:23:00,
2013-02-26 00:24:00,39.0,25.1,29.82,East,92,7.0,7.0,57,0.00,,---,0.00,VWS V14.01,2013-02-26 05:24:00,
2013-02-26 00:25:00,39.0,25.1,29.82,East,93,2.0,9.0,57,0.00,,---,0.00,VWS V14.01,2013-02-26 05:25:00,
2013-02-26 00:26:00,38.6,24.7,29.86,SE,137,8.0,11.0,57,0.00,,---,0.00,VWS V14.01,2013-02-26 05:26:00,
2013-02-26 00:27:00,39.0,25.1,29.82,SE,136,13.0,13.0,57,0.00,,---,0.00,VWS V14.01,2013-02-26 05:27:00,
2013-02-26 00:28:00,39.0,25.1,29.82,East,98,7.0,14.0,57,0.00,,---,0.00,VWS V14.01,2013-02-26 05:28:00,
2013-02-26 00:29:00,39.0,25.1,29.82,ESE,111,2.0,9.0,57,0.00,,---,0.00,VWS V14.01,2013-02-26 05:29:00,
2013-02-26 00:30:00,39.0,25.1,29.82,ESE,119,2.0,12.0,57,0.00,,---,0.00,VWS V14.01,2013-02-26 05:30:00,
2013-02-26 00:31:00,39.0,25.1,29.82,ESE,105,4.0,5.0,57,0.00,,---,0.00,VWS V14.01,2013-02-26 05:31:00,
2013-02-26 00:32:00,38.5,24.6,29.85,ESE,117,1.0,2.0,57,0.00,,---,0.00,VWS V14.01,2013-02-26 05:32:00,
2013-02-26 00:33:00,39.0,25.1,29.82,ESE,111,6.0,6.0,57,0.00,,---,0.00,VWS V14.01,2013-02-26 05:33:00,
2013-02-26 00:34:00,39.0,25.1,29.82,ENE,78,1.0,7.0,57,0.00,,---,0.00,VWS V14.01,2013-02-26 05:34:00,
2013-02-26 00:35:00,39.0,25.1,29.82,SE,140,8.0,11.0,57,0.00,,---,0.00,VWS V14.01,2013-02-26 05:35:00,
2013-02-26 00:36:00,39.0,25.1,29.82,ESE,120,5.0,12.0,57,0.00,,---,0.00,VWS V14.01,2013-02-26 05:36:00,
2013-02-26 00:37:00,38.4,24.5,29.85,ENE,75,2.0,7.0,57,0.00,,---,0.00,VWS V14.01,2013-02-26 05:37:00,
2013-02-26 00:38:00,39.1,25.2,29.82,ESE,105,8.0,8.0,57,0.00,,---,0.00,VWS V14.01,2013-02-26 05:38:00,
2013-02-26 00:39:00,39.0,25.1,29.81,SE,126,5.0,8.0,57,0.00,,---,0.00,VWS V14.01,2013-02-26 05:39:00,
2013-02-26 00:40:00,39.1,25.2,29.81,SE,143,5.0,8.0,57,0.00,,---,0.00,VWS V14.01,2013-02-26 05:40:00,
2013-02-26 00:41:00,39.1,25.2,29.81,SE,131,5.0,9.0,57,0.00,,---,0.00,VWS V14.01,2013-02-26 05:41:00,
2013-02-26 00:42:00,38.4,24.5,29.84,East,96,7.0,8.0,57,0.00,,---,0.00,VWS V14.01,2013-02-26 05:42:00,
2013-02-26 00:43:00,39.1,25.2,29.81,ESE,120,7.0,8.0,57,0.00,,---,0.00,VWS V14.01,2013-02-26 05:43:00,
2013-02-26 00:44:00,39.1,25.2,29.81,SE,144,1.0,9.0,57,0.00,,---,0.00,VWS V14.01,2013-02-26 05:44:00,
2013-02-26 00:45:00,39.1,25.2,29.81,SE,142,2.0,9.0,57,0.00,,---,0.00,VWS V14.01,2013-02-26 05:45:00,
2013-02-26 00:47:00,38.5,24.6,29.84,East,99,2.0,6.0,57,0.00,,---,0.00,VWS V14.01,2013-02-26 05:47:00,
2013-02-26 00:48:00,39.1,25.2,29.80,SE,136,8.0,8.0,57,0.00,,---,0.00,VWS V14.01,2013-02-26 05:48:00,
2013-02-26 00:49:00,39.1,25.2,29.80,East,98,5.0,8.0,57,0.00,,---,0.00,VWS V14.01,2013-02-26 05:49:00,
2013-02-26 00:50:00,39.1,25.2,29.80,SE,134,1.0,9.0,57,0.00,,---,0.00,VWS V14.01,2013-02-26 05:50:00,
2013-02-26 00:51:00,39.1,25.2,29.80,SE,136,6.0,8.0,57,0.00,,---,0.00,VWS V14.01,2013-02-26 05:51:00,
2013-02-26 00:52:00,38.5,24.6,29.85,ESE,102,2.0,5.0,57,0.00,,---,0.00,VWS V14.01,2013-02-26 05:52:00,
2013-02-26 00:53:00,39.1,25.2,29.79,SSE,147,7.0,12.0,57,0.00,,---,0.00,VWS V14.01,2013-02-26 05:53:00,
2013-02-26 00:54:00,39.2,25.3,29.79,East,95,1.0,11.0,57,0.00,,---,0.00,VWS V14.01,2013-02-26 05:54:00,
2013-02-26 00:55:00,39.1,25.2,29.79,East,88,4.0,12.0,57,0.00,,---,0.00,VWS V14.01,2013-02-26 05:55:00,
2013-02-26 00:56:00,39.1,25.2,29.79,East,83,3.0,7.0,57,0.00,,---,0.00,VWS V14.01,2013-02-26 05:56:00,
2013-02-26 00:57:00,38.5,24.6,29.84,SSE,156,4.0,5.0,57,0.00,,---,0.00,VWS V14.01,2013-02-26 05:57:00,
2013-02-26 00:58:00,39.2,25.3,29.78,ESE,121,6.0,11.0,57,0.00,,---,0.00,VWS V14.01,2013-02-26 05:58:00,
2013-02-26 00:59:00,39.2,25.3,29.78,ESE,121,6.0,6.0,57,0.00,,---,0.00,VWS V14.01,2013-02-26 05:59:00,
2013-02-26 01:00:00,39.2,25.3,29.78,ESE,121,6.0,6.0,57,0.00,,---,0.00,VWS V14.01,2013-02-26 06:00:00,
2013-02-26 01:01:00,39.2,25.3,29.78,ESE,121,6.0,6.0,57,0.00,,---,0.00,VWS V14.01,2013-02-26 06:01:00,
2013-02-26 01:02:00,38.7,24.8,29.85,ESE,113,8.0,9.0,57,0.00,,---,0.00,VWS V14.01,2013-02-26 06:02:00,
2013-02-26 01:03:00,39.2,25.3,29.78,SE,141,4.0,7.0,57,0.00,,---,0.00,VWS V14.01,2013-02-26 06:03:00,
2013-02-26 01:04:00,39.2,25.3,29.79,SE,135,6.0,8.0,57,0.00,,---,0.00,VWS V14.01,2013-02-26 06:04:00,
2013-02-26 01:05:00,39.2,25.3,29.79,SE,124,4.0,14.0,57,0.00,,---,0.00,VWS V14.01,2013-02-26 06:05:00,
2013-02-26 01:06:00,39.2,25.3,29.79,SE,135,2.0,8.0,57,0.00,,---,0.00,VWS V14.01,2013-02-26 06:06:00,
2013-02-26 01:07:00,38.8,24.9,29.85,ESE,114,4.0,9.0,57,0.00,,---,0.00,VWS V14.01,2013-02-26 06:07:00,
2013-02-26 01:08:00,39.2,25.3,29.79,ESE,114,2.0,9.0,57,0.00,,---,0.00,VWS V14.01,2013-02-26 06:08:00,
2013-02-26 01:09:00,39.2,25.3,29.79,SSE,153,4.0,5.0,57,0.00,,---,0.00,VWS V14.01,2013-02-26 06:09:00,
2013-02-26 01:10:00,39.2,25.3,29.79,SSE,148,7.0,9.0,57,0.00,,---,0.00,VWS V14.01,2013-02-26 06:10:00,
2013-02-26 01:11:00,39.2,25.3,29.79,SSE,148,5.0,7.0,57,0.00,,---,0.00,VWS V14.01,2013-02-26 06:11:00,
2013-02-26 01:12:00,38.9,25.0,29.84,SE,133,2.0,5.0,57,0.00,,---,0.00,VWS V14.01,2013-02-26 06:12:00,
2013-02-26 01:13:00,39.2,25.3,29.79,SSE,148,6.0,14.0,57,0.00,,---,0.00,VWS V14.01,2013-02-26 06:13:00,
2013-02-26 01:14:00,39.2,25.3,29.79,SE,126,12.0,12.0,57,0.00,,---,0.00,VWS V14.01,2013-02-26 06:14:00,
2013-02-26 01:15:00,39.3,25.4,29.79,SE,146,10.0,12.0,57,0.00,,---,0.00,VWS V14.01,2013-02-26 06:15:00,
2013-02-26 01:16:00,39.3,25.4,29.78,East,97,9.0,11.0,57,0.00,,---,0.00,VWS V14.01,2013-02-26 06:16:00,
2013-02-26 01:17:00,38.9,24.6,29.83,SE,128,7.0,9.0,56,0.00,,---,0.00,VWS V14.01,2013-02-26 06:17:00,
2013-02-26 01:18:00,39.3,25.4,29.78,SE,137,7.0,8.0,57,0.00,,---,0.00,VWS V14.01,2013-02-26 06:18:00,
2013-02-26 01:19:00,39.3,25.4,29.78,ESE,123,5.0,8.0,57,0.00,,---,0.00,VWS V14.01,2013-02-26 06:19:00,
2013-02-26 01:20:00,39.3,25.4,29.77,East,95,8.0,8.0,57,0.00,,---,0.00,VWS V14.01,2013-02-26 06:20:00,
2013-02-26 01:21:00,39.3,24.9,29.78,ESE,107,8.0,11.0,56,0.00,,---,0.00,VWS V14.01,2013-02-26 06:21:00,
2013-02-26 01:22:00,39.0,25.1,29.83,SSE,168,6.0,6.0,57,0.00,,---,0.00,VWS V14.01,2013-02-26 06:22:00,
2013-02-26 01:23:00,39.3,25.4,29.78,SE,134,7.0,12.0,57,0.00,,---,0.00,VWS V14.01,2013-02-26 06:23:00,
2013-02-26 01:24:00,39.3,24.9,29.78,East,96,7.0,10.0,56,0.00,,---,0.00,VWS V14.01,2013-02-26 06:24:00,
2013-02-26 01:25:00,39.3,25.4,29.77,East,97,7.0,11.0,57,0.00,,---,0.00,VWS V14.01,2013-02-26 06:25:00,
2013-02-26 01:26:00,39.3,25.4,29.77,SE,133,8.0,11.0,57,0.00,,---,0.00,VWS V14.01,2013-02-26 06:26:00,
2013-02-26 01:27:00,39.0,25.1,29.82,SE,136,13.0,13.0,57,0.00,,---,0.00,VWS V14.01,2013-02-26 06:27:00,
2013-02-26 01:28:00,39.3,25.4,29.77,SE,129,4.0,7.0,57,0.00,,---,0.00,VWS V14.01,2013-02-26 06:28:00,
2013-02-26 01:29:00,39.3,25.4,29.77,East,86,1.0,9.0,57,0.00,,---,0.00,VWS V14.01,2013-02-26 06:29:00,
2013-02-26 01:30:00,39.3,25.4,29.77,ESE,115,6.0,7.0,57,0.00,,---,0.00,VWS V14.01,2013-02-26 06:30:00,
2013-02-26 01:31:00,39.3,25.4,29.77,SE,138,6.0,9.0,57,0.00,,---,0.00,VWS V14.01,2013-02-26 06:31:00,
2013-02-26 01:32:00,39.0,25.1,29.82,SE,132,2.0,6.0,57,0.00,,---,0.00,VWS V14.01,2013-02-26 06:32:00,
2013-02-26 01:33:00,39.2,25.3,29.78,East,98,5.0,6.0,57,0.00,,---,0.00,VWS V14.01,2013-02-26 06:33:00,
2013-02-26 01:34:00,39.2,25.3,29.78,SE,126,2.0,8.0,57,0.00,,---,0.00,VWS V14.01,2013-02-26 06:34:00,
2013-02-26 01:35:00,39.2,25.3,29.77,ESE,120,1.0,6.0,57,0.00,,---,0.00,VWS V14.01,2013-02-26 06:35:00,
2013-02-26 01:36:00,39.2,25.3,29.77,SE,146,6.0,6.0,57,0.00,,---,0.00,VWS V14.01,2013-02-26 06:36:00,
2013-02-26 01:37:00,39.0,25.1,29.82,SSE,151,8.0,8.0,57,0.00,,---,0.00,VWS V14.01,2013-02-26 06:37:00,
2013-02-26 01:38:00,39.2,25.3,29.77,SE,128,2.0,7.0,57,0.00,,---,0.00,VWS V14.01,2013-02-26 06:38:00,
2013-02-26 01:39:00,39.2,25.3,29.77,ESE,116,5.0,8.0,57,0.00,,---,0.00,VWS V14.01,2013-02-26 06:39:00,
2013-02-26 01:40:00,39.2,25.3,29.77,ESE,121,6.0,8.0,57,0.00,,---,0.00,VWS V14.01,2013-02-26 06:40:00,
2013-02-26 01:41:00,39.2,25.3,29.77,ESE,117,5.0,7.0,57,0.00,,---,0.00,VWS V14.01,2013-02-26 06:41:00,
2013-02-26 01:42:00,39.1,25.2,29.82,East,94,4.0,8.0,57,0.00,,---,0.00,VWS V14.01,2013-02-26 06:42:00,
2013-02-26 01:44:00,39.1,25.2,29.77,East,98,6.0,9.0,57,0.00,,---,0.00,VWS V14.01,2013-02-26 06:44:00,
2013-02-26 01:45:00,39.1,25.6,29.77,ENE,78,5.0,8.0,58,0.00,,---,0.00,VWS V14.01,2013-02-26 06:45:00,
2013-02-26 01:46:00,39.1,25.2,29.77,SE,144,7.0,8.0,57,0.00,,---,0.00,VWS V14.01,2013-02-26 06:46:00,
2013-02-26 01:47:00,39.1,25.2,29.81,ENE,75,3.0,12.0,57,0.00,,---,0.00,VWS V14.01,2013-02-26 06:47:00,
2013-02-26 01:48:00,39.1,25.6,29.77,SE,126,4.0,6.0,58,0.00,,---,0.00,VWS V14.01,2013-02-26 06:48:00,
2013-02-26 01:49:00,39.1,25.6,29.77,ESE,111,6.0,8.0,58,0.00,,---,0.00,VWS V14.01,2013-02-26 06:49:00,
2013-02-26 01:50:00,39.1,25.6,29.77,SE,132,8.0,9.0,58,0.00,,---,0.00,VWS V14.01,2013-02-26 06:50:00,
2013-02-26 01:51:00,39.1,25.6,29.77,SE,139,7.0,10.0,58,0.00,,---,0.00,VWS V14.01,2013-02-26 06:51:00,
2013-02-26 01:52:00,39.1,25.2,29.79,ESE,103,1.0,6.0,57,0.00,,---,0.00,VWS V14.01,2013-02-26 06:52:00,
2013-02-26 01:53:00,39.2,25.7,29.77,SE,130,2.0,9.0,58,0.00,,---,0.00,VWS V14.01,2013-02-26 06:53:00,
2013-02-26 01:54:00,39.2,25.7,29.77,ESE,107,7.0,12.0,58,0.00,,---,0.00,VWS V14.01,2013-02-26 06:54:00,
2013-02-26 01:55:00,39.2,25.3,29.77,ESE,113,4.0,12.0,57,0.00,,---,0.00,VWS V14.01,2013-02-26 06:55:00,
2013-02-26 01:56:00,39.2,25.7,29.76,East,96,7.0,7.0,58,0.00,,---,0.00,VWS V14.01,2013-02-26 06:56:00,
2013-02-26 01:57:00,39.1,25.2,29.78,ESE,122,11.0,11.0,57,0.00,,---,0.00,VWS V14.01,2013-02-26 06:57:00,
2013-02-26 01:58:00,39.3,25.4,29.76,ESE,118,5.0,11.0,57,0.00,,---,0.00,VWS V14.01,2013-02-26 06:58:00,
2013-02-26 01:59:00,39.3,25.8,29.76,ESE,115,2.0,9.0,58,0.00,,---,0.00,VWS V14.01,2013-02-26 06:59:00,
2013-02-26 02:00:00,39.3,25.8,29.76,SE,136,1.0,8.0,58,0.00,,---,0.00,VWS V14.01,2013-02-26 07:00:00,
2013-02-26 02:01:00,39.3,25.8,29.76,SSE,149,7.0,8.0,58,0.00,,---,0.00,VWS V14.01,2013-02-26 07:01:00,
2013-02-26 02:02:00,39.2,25.3,29.78,ESE,121,6.0,6.0,57,0.00,,---,0.00,VWS V14.01,2013-02-26 07:02:00,
2013-02-26 02:03:00,39.4,25.5,29.75,ESE,121,8.0,10.0,57,0.00,,---,0.00,VWS V14.01,2013-02-26 07:03:00,
2013-02-26 02:04:00,39.4,25.5,29.75,East,82,7.0,8.0,57,0.00,,---,0.00,VWS V14.01,2013-02-26 07:04:00,
2013-02-26 02:05:00,39.4,25.5,29.75,SE,140,2.0,7.0,57,0.00,,---,0.00,VWS V14.01,2013-02-26 07:05:00,
2013-02-26 02:06:00,39.4,25.5,29.75,ESE,112,5.0,7.0,57,0.00,,---,0.00,VWS V14.01,2013-02-26 07:06:00,
2013-02-26 02:07:00,39.2,25.3,29.79,SSE,150,5.0,11.0,57,0.00,,---,0.00,VWS V14.01,2013-02-26 07:07:00,
2013-02-26 02:08:00,39.4,25.5,29.75,SE,136,5.0,6.0,57,0.00,,---,0.00,VWS V14.01,2013-02-26 07:08:00,
2013-02-26 02:09:00,39.4,25.5,29.75,ESE,114,4.0,13.0,57,0.00,,---,0.00,VWS V14.01,2013-02-26 07:09:00,
2013-02-26 02:10:00,39.4,25.9,29.75,SE,133,7.0,8.0,58,0.00,,---,0.00,VWS V14.01,2013-02-26 07:10:00,
2013-02-26 02:11:00,39.4,25.5,29.75,SE,126,7.0,12.0,57,0.00,,---,0.00,VWS V14.01,2013-02-26 07:11:00,
2013-02-26 02:12:00,39.2,25.3,29.79,SSE,165,7.0,13.0,57,0.00,,---,0.00,VWS V14.01,2013-02-26 07:12:00,
2013-02-26 02:13:00,39.4,25.5,29.75,East,94,2.0,6.0,57,0.00,,---,0.00,VWS V14.01,2013-02-26 07:13:00,
2013-02-26 02:14:00,39.4,25.9,29.75,SSE,150,9.0,9.0,58,0.00,,---,0.00,VWS V14.01,2013-02-26 07:14:00,
2013-02-26 02:15:00,39.4,25.9,29.75,SSE,152,0.0,9.0,58,0.00,,---,0.00,VWS V14.01,2013-02-26 07:15:00,
2013-02-26 02:16:00,39.4,25.9,29.75,South,171,4.0,6.0,58,0.00,,---,0.00,VWS V14.01,2013-02-26 07:16:00,
2013-02-26 02:17:00,39.3,25.4,29.78,ESE,111,6.0,9.0,57,0.00,,---,0.00,VWS V14.01,2013-02-26 07:17:00,
2013-02-26 02:18:00,39.4,25.9,29.75,East,92,2.0,5.0,58,0.00,,---,0.00,VWS V14.01,2013-02-26 07:18:00,
2013-02-26 02:19:00,39.5,26.0,29.74,SE,128,5.0,5.0,58,0.00,,---,0.00,VWS V14.01,2013-02-26 07:19:00,
2013-02-26 02:20:00,39.5,26.0,29.74,SE,134,6.0,11.0,58,0.00,,---,0.00,VWS V14.01,2013-02-26 07:20:00,
2013-02-26 02:21:00,39.5,25.5,29.74,ESE,115,1.0,7.0,57,0.00,,---,0.00,VWS V14.01,2013-02-26 07:21:00,
2013-02-26 02:22:00,39.3,25.4,29.78,SE,126,5.0,13.0,57,0.00,,---,0.00,VWS V14.01,2013-02-26 07:22:00,
2013-02-26 02:23:00,39.5,26.0,29.74,SE,131,5.0,5.0,58,0.00,,---,0.00,VWS V14.01,2013-02-26 07:23:00,
2013-02-26 02:24:00,39.5,26.0,29.74,SE,143,6.0,6.0,58,0.00,,---,0.00,VWS V14.01,2013-02-26 07:24:00,
2013-02-26 02:25:00,39.5,26.0,29.74,SE,130,2.0,6.0,58,0.00,,---,0.00,VWS V14.01,2013-02-26 07:25:00,
2013-02-26 02:26:00,39.5,26.0,29.74,East,101,6.0,9.0,58,0.00,,---,0.00,VWS V14.01,2013-02-26 07:26:00,
2013-02-26 02:27:00,39.3,25.4,29.77,ESE,102,2.0,12.0,57,0.00,,---,0.00,VWS V14.01,2013-02-26 07:27:00,
2013-02-26 02:28:00,39.6,26.1,29.74,ESE,121,7.0,13.0,58,0.00,,---,0.00,VWS V14.01,2013-02-26 07:28:00,
2013-02-26 02:29:00,39.6,25.6,29.74,SE,135,7.0,15.0,57,0.00,,---,0.00,VWS V14.01,2013-02-26 07:29:00,
2013-02-26 02:30:00,39.6,25.6,29.74,SE,124,11.0,11.0,57,0.00,,---,0.00,VWS V14.01,2013-02-26 07:30:00,
2013-02-26 02:31:00,39.6,25.6,29.74,ESE,119,5.0,11.0,57,0.00,,---,0.00,VWS V14.01,2013-02-26 07:31:00,
2013-02-26 02:32:00,39.2,25.3,29.78,ESE,107,5.0,6.0,57,0.00,,---,0.00,VWS V14.01,2013-02-26 07:32:00,
2013-02-26 02:33:00,39.6,26.1,29.74,ESE,112,7.0,9.0,58,0.00,,---,0.00,VWS V14.01,2013-02-26 07:33:00,
2013-02-26 02:34:00,39.6,25.6,29.74,ESE,107,0.0,11.0,57,0.00,,---,0.00,VWS V14.01,2013-02-26 07:34:00,
2013-02-26 02:35:00,39.6,25.6,29.74,ESE,109,2.0,6.0,57,0.00,,---,0.00,VWS V14.01,2013-02-26 07:35:00,
2013-02-26 02:37:00,39.2,25.3,29.77,ESE,113,6.0,11.0,57,0.00,,---,0.00,VWS V14.01,2013-02-26 07:37:00,
2013-02-26 02:38:00,39.6,26.1,29.73,SE,134,5.0,6.0,58,0.00,,---,0.00,VWS V14.01,2013-02-26 07:38:00,
2013-02-26 02:39:00,39.6,26.1,29.73,ESE,117,4.0,6.0,58,0.00,,---,0.00,VWS V14.01,2013-02-26 07:39:00,
2013-02-26 02:40:00,39.7,26.1,29.73,SSE,153,5.0,7.0,58,0.00,,---,0.00,VWS V14.01,2013-02-26 07:40:00,
2013-02-26 02:42:00,39.1,25.2,29.77,SE,125,8.0,9.0,57,0.00,,---,0.00,VWS V14.01,2013-02-26 07:42:00,
2013-02-26 02:43:00,39.6,26.1,29.72,ESE,123,0.0,7.0,58,0.00,,---,0.00,VWS V14.01,2013-02-26 07:43:00,
2013-02-26 02:45:00,39.6,26.1,29.72,SE,137,5.0,6.0,58,0.00,,---,0.00,VWS V14.01,2013-02-26 07:45:00,
2013-02-26 02:46:00,39.6,26.1,29.72,ESE,121,4.0,12.0,58,0.00,,---,0.00,VWS V14.01,2013-02-26 07:46:00,
2013-02-26 02:47:00,39.1,25.2,29.77,SE,140,2.0,8.0,57,0.00,,---,0.00,VWS V14.01,2013-02-26 07:47:00,
2013-02-26 02:48:00,39.6,26.1,29.71,ESE,119,1.0,9.0,58,0.00,,---,0.00,VWS V14.01,2013-02-26 07:48:00,
2013-02-26 02:49:00,39.6,26.1,29.71,SE,130,6.0,15.0,58,0.00,,---,0.00,VWS V14.01,2013-02-26 07:49:00,
2013-02-26 02:50:00,39.6,26.1,29.71,ESE,107,6.0,7.0,58,0.00,,---,0.00,VWS V14.01,2013-02-26 07:50:00,
2013-02-26 02:51:00,39.6,26.1,29.71,ESE,112,5.0,8.0,58,0.00,,---,0.00,VWS V14.01,2013-02-26 07:51:00,
2013-02-26 02:52:00,39.2,25.7,29.77,SE,131,0.0,7.0,58,0.00,,---,0.00,VWS V14.01,2013-02-26 07:52:00,
2013-02-26 02:53:00,39.6,26.1,29.70,ESE,110,5.0,8.0,58,0.00,,---,0.00,VWS V14.01,2013-02-26 07:53:00,
2013-02-26 02:54:00,39.6,26.1,29.70,ENE,67,5.0,8.0,58,0.00,,---,0.00,VWS V14.01,2013-02-26 07:54:00,
2013-02-26 02:55:00,39.6,26.1,29.70,ESE,123,4.0,13.0,58,0.00,,---,0.00,VWS V14.01,2013-02-26 07:55:00,
2013-02-26 02:56:00,39.6,26.1,29.70,ENE,69,4.0,10.0,58,0.00,,---,0.00,VWS V14.01,2013-02-26 07:56:00,
2013-02-26 02:57:00,39.2,25.3,29.76,ENE,73,10.0,10.0,57,0.00,,---,0.00,VWS V14.01,2013-02-26 07:57:00,
2013-02-26 02:58:00,39.6,26.1,29.70,ESE,107,6.0,7.0,58,0.00,,---,0.00,VWS V14.01,2013-02-26 07:58:00,
2013-02-26 02:59:00,39.6,26.1,29.70,East,101,7.0,11.0,58,0.00,,---,0.00,VWS V14.01,2013-02-26 07:59:00,
2013-02-26 03:00:00,39.6,26.1,29.70,SE,126,7.0,8.0,58,0.00,,---,0.00,VWS V14.01,2013-02-26 08:00:00,
2013-02-26 03:01:00,39.6,26.1,29.69,East,81,3.0,13.0,58,0.00,,---,0.00,VWS V14.01,2013-02-26 08:01:00,
2013-02-26 03:02:00,39.3,25.4,29.76,ESE,111,5.0,9.0,57,0.00,,---,0.00,VWS V14.01,2013-02-26 08:02:00,
2013-02-26 03:03:00,39.6,26.1,29.70,ESE,103,1.0,3.0,58,0.00,,---,0.00,VWS V14.01,2013-02-26 08:03:00,
2013-02-26 03:04:00,39.5,26.4,29.70,ESE,106,12.0,12.0,59,0.00,,---,0.00,VWS V14.01,2013-02-26 08:04:00,
2013-02-26 03:05:00,39.5,26.0,29.70,SSE,156,5.0,12.0,58,0.00,,---,0.00,VWS V14.01,2013-02-26 08:05:00,
2013-02-26 03:06:00,39.5,26.0,29.70,East,80,6.0,9.0,58,0.00,,---,0.00,VWS V14.01,2013-02-26 08:06:00,
2013-02-26 03:07:00,39.4,25.5,29.75,SE,135,4.0,11.0,57,0.00,,---,0.00,VWS V14.01,2013-02-26 08:07:00,
2013-02-26 03:08:00,39.5,26.4,29.69,SSE,147,6.0,8.0,59,0.00,,---,0.00,VWS V14.01,2013-02-26 08:08:00,
2013-02-26 03:09:00,39.5,26.4,29.69,ESE,111,2.0,8.0,59,0.00,,---,0.00,VWS V14.01,2013-02-26 08:09:00,
2013-02-26 03:10:00,39.5,26.4,29.69,SSE,161,4.0,6.0,59,0.00,,---,0.00,VWS V14.01,2013-02-26 08:10:00,
2013-02-26 03:11:00,39.5,26.4,29.70,East,100,5.0,7.0,59,0.00,,---,0.00,VWS V14.01,2013-02-26 08:11:00,
2013-02-26 03:12:00,39.4,25.5,29.75,SSE,148,4.0,11.0,57,0.00,,---,0.00,VWS V14.01,2013-02-26 08:12:00,
2013-02-26 03:13:00,39.5,26.4,29.70,ESE,105,5.0,11.0,59,0.00,,---,0.00,VWS V14.01,2013-02-26 08:13:00,
2013-02-26 03:14:00,39.5,26.4,29.70,East,94,2.0,12.0,59,0.00,,---,0.00,VWS V14.01,2013-02-26 08:14:00,
2013-02-26 03:15:00,39.5,26.4,29.70,SE,146,5.0,12.0,59,0.00,,---,0.00,VWS V14.01,2013-02-26 08:15:00,
2013-02-26 03:16:00,39.5,26.4,29.70,East,96,7.0,8.0,59,0.00,,---,0.00,VWS V14.01,2013-02-26 08:16:00,
2013-02-26 03:17:00,39.4,25.9,29.75,East,99,5.0,7.0,58,0.00,,---,0.00,VWS V14.01,2013-02-26 08:17:00,
2013-02-26 03:18:00,39.5,26.4,29.70,ESE,115,4.0,14.0,59,0.00,,---,0.00,VWS V14.01,2013-02-26 08:18:00,
2013-02-26 03:19:00,39.5,26.4,29.70,ENE,76,5.0,10.0,59,0.00,,---,0.00,VWS V14.01,2013-02-26 08:19:00,
2013-02-26 03:20:00,39.6,26.5,29.70,ENE,60,4.0,9.0,59,0.00,,---,0.00,VWS V14.01,2013-02-26 08:20:00,
2013-02-26 03:21:00,39.6,26.5,29.70,ESE,120,2.0,6.0,59,0.00,,---,0.00,VWS V14.01,2013-02-26 08:21:00,
2013-02-26 03:22:00,39.5,26.0,29.74,SE,128,2.0,12.0,58,0.00,,---,0.00,VWS V14.01,2013-02-26 08:22:00,
2013-02-26 03:23:00,39.6,26.5,29.70,ESE,111,5.0,6.0,59,0.00,,---,0.00,VWS V14.01,2013-02-26 08:23:00,
2013-02-26 03:24:00,39.6,26.5,29.70,East,92,4.0,9.0,59,0.00,,---,0.00,VWS V14.01,2013-02-26 08:24:00,
2013-02-26 03:25:00,39.6,26.5,29.70,ENE,65,2.0,6.0,59,0.00,,---,0.00,VWS V14.01,2013-02-26 08:25:00,
2013-02-26 03:26:00,39.6,26.5,29.69,East,93,2.0,7.0,59,0.00,,---,0.00,VWS V14.01,2013-02-26 08:26:00,
2013-02-26 03:27:00,39.5,26.0,29.74,SSE,159,6.0,8.0,58,0.00,,---,0.00,VWS V14.01,2013-02-26 08:27:00,
2013-02-26 03:28:00,39.6,26.5,29.69,SE,130,2.0,8.0,59,0.00,,---,0.00,VWS V14.01,2013-02-26 08:28:00,
2013-02-26 03:29:00,39.6,26.5,29.69,SE,132,1.0,11.0,59,0.00,,---,0.00,VWS V14.01,2013-02-26 08:29:00,
2013-02-26 03:30:00,39.6,26.5,29.68,SSE,151,9.0,12.0,59,0.00,,---,0.00,VWS V14.01,2013-02-26 08:30:00,
2013-02-26 03:31:00,39.6,26.5,29.68,SE,131,2.0,9.0,59,0.00,,---,0.00,VWS V14.01,2013-02-26 08:31:00,
2013-02-26 03:32:00,39.6,26.5,29.68,SE,135,5.0,6.0,59,0.00,,---,0.00,VWS V14.01,2013-02-26 08:32:00,
2013-02-26 03:33:00,39.6,26.1,29.74,ESE,112,7.0,9.0,58,0.00,,---,0.00,VWS V14.01,2013-02-26 08:33:00,
2013-02-26 03:34:00,39.6,26.9,29.68,ESE,110,2.0,8.0,60,0.00,,---,0.00,VWS V14.01,2013-02-26 08:34:00,
2013-02-26 03:35:00,39.6,26.5,29.68,ESE,119,7.0,10.0,59,0.00,,---,0.00,VWS V14.01,2013-02-26 08:35:00,
2013-02-26 03:36:00,39.6,26.5,29.68,ESE,108,9.0,10.0,59,0.00,,---,0.00,VWS V14.01,2013-02-26 08:36:00,
2013-02-26 03:37:00,39.6,26.5,29.68,ESE,108,2.0,9.0,59,0.00,,---,0.00,VWS V14.01,2013-02-26 08:37:00,
2013-02-26 03:38:00,39.6,26.1,29.73,SE,134,5.0,6.0,58,0.00,,---,0.00,VWS V14.01,2013-02-26 08:38:00,
2013-02-26 03:39:00,39.6,26.5,29.68,East,92,2.0,6.0,59,0.00,,---,0.00,VWS V14.01,2013-02-26 08:39:00,
2013-02-26 03:40:00,39.7,27.0,29.68,ESE,102,2.0,6.0,60,0.00,,---,0.00,VWS V14.01,2013-02-26 08:40:00,
2013-02-26 03:41:00,39.6,26.9,29.68,SE,136,12.0,12.0,60,0.00,,---,0.00,VWS V14.01,2013-02-26 08:41:00,
2013-02-26 03:42:00,39.7,27.0,29.68,East,90,6.0,13.0,60,0.00,,---,0.00,VWS V14.01,2013-02-26 08:42:00,
2013-02-26 03:43:00,39.6,26.1,29.72,ESE,123,0.0,7.0,58,0.00,,---,0.00,VWS V14.01,2013-02-26 08:43:00,
2013-02-26 03:44:00,39.7,27.0,29.68,SE,142,4.0,9.0,60,0.00,,---,0.00,VWS V14.01,2013-02-26 08:44:00,
2013-02-26 03:45:00,39.6,27.3,29.68,ESE,122,5.0,6.0,61,0.00,,---,0.00,VWS V14.01,2013-02-26 08:45:00,
2013-02-26 03:46:00,39.6,27.7,29.69,East,93,5.0,10.0,62,0.00,,---,0.00,VWS V14.01,2013-02-26 08:46:00,
2013-02-26 03:47:00,39.6,27.7,29.69,SE,131,5.0,11.0,62,0.00,,---,0.00,VWS V14.01,2013-02-26 08:47:00,
2013-02-26 03:48:00,39.6,26.1,29.71,ESE,119,1.0,9.0,58,0.00,,---,0.00,VWS V14.01,2013-02-26 08:48:00,
2013-02-26 03:49:00,39.6,27.7,29.69,ESE,122,4.0,9.0,62,0.00,,---,0.00,VWS V14.01,2013-02-26 08:49:00,
2013-02-26 03:50:00,39.6,28.1,29.69,ESE,123,0.0,4.0,63,0.00,,---,0.00,VWS V14.01,2013-02-26 08:50:00,
2013-02-26 03:51:00,39.5,28.4,29.68,ESE,103,2.0,4.0,64,0.00,,---,0.00,VWS V14.01,2013-02-26 08:51:00,
2013-02-26 03:52:00,39.5,28.4,29.68,South,171,5.0,8.0,64,0.00,,---,0.00,VWS V14.01,2013-02-26 08:52:00,
2013-02-26 03:53:00,39.6,26.1,29.70,ESE,110,5.0,8.0,58,0.00,,---,0.00,VWS V14.01,2013-02-26 08:53:00,
2013-02-26 03:54:00,39.5,28.0,29.68,SE,128,0.0,9.0,63,0.00,,---,0.00,VWS V14.01,2013-02-26 08:54:00,
2013-02-26 03:55:00,39.4,28.2,29.69,SE,129,7.0,7.0,64,0.00,,---,0.00,VWS V14.01,2013-02-26 08:55:00,
2013-02-26 03:56:00,39.4,27.9,29.69,ESE,115,2.0,7.0,63,0.00,,---,0.00,VWS V14.01,2013-02-26 08:56:00,
2013-02-26 03:57:00,39.4,27.9,29.69,ESE,112,4.0,8.0,63,0.00,,---,0.00,VWS V14.01,2013-02-26 08:57:00,
2013-02-26 03:58:00,39.6,26.1,29.70,ESE,107,6.0,7.0,58,0.00,,---,0.00,VWS V14.01,2013-02-26 08:58:00,
2013-02-26 03:59:00,39.4,28.6,29.68,SE,136,10.0,10.0,65,0.00,,---,0.00,VWS V14.01,2013-02-26 08:59:00,
2013-02-26 04:00:00,39.4,28.6,29.68,ESE,117,4.0,12.0,65,0.00,,---,0.00,VWS V14.01,2013-02-26 09:00:00,
2013-02-26 04:01:00,39.3,28.9,29.68,ESE,118,5.0,9.0,66,0.00,,---,0.00,VWS V14.01,2013-02-26 09:01:00,
2013-02-26 04:02:00,39.3,28.9,29.68,ESE,103,4.0,5.0,66,0.01,,---,0.01,VWS V14.01,2013-02-26 09:02:00,
2013-02-26 04:03:00,39.6,26.1,29.70,ESE,103,1.0,3.0,58,0.00,,---,0.00,VWS V14.01,2013-02-26 09:03:00,
2013-02-26 04:04:00,39.2,29.9,29.68,East,85,0.0,2.0,69,0.01,,---,0.01,VWS V14.01,2013-02-26 09:04:00,
2013-02-26 04:05:00,39.1,30.2,29.68,ENE,76,0.0,3.0,70,0.02,,---,0.02,VWS V14.01,2013-02-26 09:05:00,
2013-02-26 04:06:00,39.0,30.4,29.68,East,90,1.0,7.0,71,0.02,,---,0.02,VWS V14.01,2013-02-26 09:06:00,
2013-02-26 04:07:00,38.9,30.3,29.68,ESE,109,1.0,2.0,71,0.02,,---,0.02,VWS V14.01,2013-02-26 09:07:00,
2013-02-26 04:08:00,39.5,26.4,29.69,SSE,147,6.0,8.0,59,0.00,,---,0.00,VWS V14.01,2013-02-26 09:08:00,
2013-02-26 04:09:00,38.7,30.8,29.68,SE,142,0.0,7.0,73,0.02,,---,0.02,VWS V14.01,2013-02-26 09:09:00,
2013-02-26 04:10:00,38.6,31.0,29.68,ESE,106,8.0,8.0,74,0.02,,---,0.02,VWS V14.01,2013-02-26 09:10:00,
2013-02-26 04:11:00,38.5,31.0,29.68,ESE,111,4.0,8.0,74,0.02,,---,0.02,VWS V14.01,2013-02-26 09:11:00,
2013-02-26 04:12:00,38.4,30.9,29.68,SE,126,5.0,5.0,74,0.02,,---,0.02,VWS V14.01,2013-02-26 09:12:00,
2013-02-26 04:13:00,39.5,26.4,29.70,ESE,105,5.0,11.0,59,0.00,,---,0.00,VWS V14.01,2013-02-26 09:13:00,
2013-02-26 04:14:00,38.2,31.0,29.68,ESE,107,0.0,5.0,75,0.03,,---,0.03,VWS V14.01,2013-02-26 09:14:00,
2013-02-26 04:15:00,38.1,31.2,29.68,East,101,1.0,2.0,76,0.03,,---,0.03,VWS V14.01,2013-02-26 09:15:00,
2013-02-26 04:16:00,38.0,31.4,29.68,ESE,122,2.0,2.0,77,0.03,,---,0.03,VWS V14.01,2013-02-26 09:16:00,
2013-02-26 04:17:00,37.9,31.4,29.68,ESE,123,2.0,4.0,77,0.03,,---,0.03,VWS V14.01,2013-02-26 09:17:00,
2013-02-26 04:18:00,39.5,26.4,29.70,ESE,115,4.0,14.0,59,0.00,,---,0.00,VWS V14.01,2013-02-26 09:18:00,
2013-02-26 04:19:00,37.8,31.6,29.68,East,84,1.0,2.0,78,0.03,,---,0.03,VWS V14.01,2013-02-26 09:19:00,
2013-02-26 04:20:00,37.7,31.5,29.68,ESE,123,4.0,6.0,78,0.03,,---,0.03,VWS V14.01,2013-02-26 09:20:00,
2013-02-26 04:21:00,37.7,31.5,29.69,ESE,110,7.0,7.0,78,0.03,,---,0.03,VWS V14.01,2013-02-26 09:21:00,
2013-02-26 04:22:00,37.7,31.5,29.69,East,90,5.0,11.0,78,0.03,,---,0.03,VWS V14.01,2013-02-26 09:22:00,
2013-02-26 04:23:00,39.6,26.5,29.70,ESE,111,5.0,6.0,59,0.00,,---,0.00,VWS V14.01,2013-02-26 09:23:00,
2013-02-26 04:24:00,37.6,31.7,29.68,SE,131,1.0,7.0,79,0.03,,---,0.03,VWS V14.01,2013-02-26 09:24:00,
2013-02-26 04:25:00,37.5,31.6,29.68,ESE,115,6.0,6.0,79,0.03,,---,0.03,VWS V14.01,2013-02-26 09:25:00,
2013-02-26 04:26:00,37.5,31.6,29.68,SSE,154,4.0,9.0,79,0.03,,---,0.03,VWS V14.01,2013-02-26 09:26:00,
2013-02-26 04:27:00,37.5,31.6,29.68,ESE,108,4.0,8.0,79,0.03,,---,0.03,VWS V14.01,2013-02-26 09:27:00,
2013-02-26 04:28:00,39.6,26.5,29.69,SE,130,2.0,8.0,59,0.00,,---,0.00,VWS V14.01,2013-02-26 09:28:00,
2013-02-26 04:29:00,37.4,31.8,29.68,SSE,156,5.0,8.0,80,0.03,,---,0.03,VWS V14.01,2013-02-26 09:29:00,
2013-02-26 04:30:00,37.4,31.8,29.67,East,94,5.0,8.0,80,0.04,,---,0.04,VWS V14.01,2013-02-26 09:30:00,
2013-02-26 04:31:00,37.4,31.5,29.67,East,84,5.0,8.0,79,0.04,,---,0.04,VWS V14.01,2013-02-26 09:31:00,
2013-02-26 04:32:00,37.4,31.5,29.67,SE,124,0.0,6.0,79,0.04,,---,0.04,VWS V14.01,2013-02-26 09:32:00,
2013-02-26 04:33:00,39.6,26.5,29.68,SE,137,2.0,5.0,59,0.00,,---,0.00,VWS V14.01,2013-02-26 09:33:00,
2013-02-26 04:34:00,37.5,31.9,29.68,SE,145,6.0,14.0,80,0.04,,---,0.04,VWS V14.01,2013-02-26 09:34:00,
2013-02-26 04:35:00,37.5,31.9,29.68,SE,136,8.0,8.0,80,0.05,,---,0.05,VWS V14.01,2013-02-26 09:35:00,
2013-02-26 04:36:00,37.5,31.9,29.68,SE,142,5.0,10.0,80,0.06,,---,0.06,VWS V14.01,2013-02-26 09:36:00,
2013-02-26 04:37:00,37.5,31.9,29.68,SE,145,6.0,11.0,80,0.06,,---,0.06,VWS V14.01,2013-02-26 09:37:00,
2013-02-26 04:38:00,39.6,26.9,29.68,SE,134,5.0,9.0,60,0.00,,---,0.00,VWS V14.01,2013-02-26 09:38:00,
2013-02-26 04:39:00,37.4,32.1,29.68,ESE,119,5.0,6.0,81,0.07,,---,0.07,VWS V14.01,2013-02-26 09:39:00,
2013-02-26 04:40:00,37.4,32.4,29.67,SE,126,6.0,9.0,82,0.07,,---,0.07,VWS V14.01,2013-02-26 09:40:00,
2013-02-26 04:41:00,37.3,32.3,29.67,ESE,102,2.0,10.0,82,0.07,,---,0.07,VWS V14.01,2013-02-26 09:41:00,
2013-02-26 04:42:00,37.3,32.3,29.67,ESE,121,6.0,7.0,82,0.07,,---,0.07,VWS V14.01,2013-02-26 09:42:00,
2013-02-26 04:43:00,39.6,26.9,29.68,ESE,119,6.0,7.0,60,0.00,,---,0.00,VWS V14.01,2013-02-26 09:43:00,
2013-02-26 04:44:00,37.2,32.5,29.67,SE,127,6.0,8.0,83,0.08,,---,0.08,VWS V14.01,2013-02-26 09:44:00,
2013-02-26 04:45:00,37.2,32.5,29.67,SSE,160,1.0,6.0,83,0.08,,---,0.08,VWS V14.01,2013-02-26 09:45:00,
2013-02-26 04:46:00,37.2,32.5,29.68,SE,125,1.0,6.0,83,0.08,,---,0.08,VWS V14.01,2013-02-26 09:46:00,
2013-02-26 04:47:00,37.1,32.4,29.67,SE,132,9.0,12.0,83,0.08,,---,0.08,VWS V14.01,2013-02-26 09:47:00,
2013-02-26 04:48:00,39.6,28.1,29.69,ESE,119,5.0,7.0,63,0.00,,---,0.00,VWS V14.01,2013-02-26 09:48:00,
2013-02-26 04:49:00,37.1,32.7,29.67,SE,146,4.0,13.0,84,0.08,,---,0.08,VWS V14.01,2013-02-26 09:49:00,
2013-02-26 04:50:00,37.0,32.6,29.67,SE,128,2.0,7.0,84,0.09,,---,0.09,VWS V14.01,2013-02-26 09:50:00,
2013-02-26 04:51:00,37.1,32.7,29.67,SE,130,1.0,8.0,84,0.09,,---,0.09,VWS V14.01,2013-02-26 09:51:00,
2013-02-26 04:52:00,37.1,32.7,29.67,ESE,108,1.0,5.0,84,0.09,,---,0.09,VWS V14.01,2013-02-26 09:52:00,
2013-02-26 04:53:00,39.5,28.4,29.68,SE,138,6.0,7.0,64,0.00,,---,0.00,VWS V14.01,2013-02-26 09:53:00,
2013-02-26 04:54:00,37.0,32.6,29.67,SE,138,6.0,9.0,84,0.09,,---,0.09,VWS V14.01,2013-02-26 09:54:00,
2013-02-26 04:55:00,37.0,32.6,29.67,East,101,4.0,8.0,84,0.10,,---,0.10,VWS V14.01,2013-02-26 09:55:00,
2013-02-26 04:56:00,37.0,32.9,29.67,South,190,7.0,12.0,85,0.10,,---,0.10,VWS V14.01,2013-02-26 09:56:00,
2013-02-26 04:57:00,37.0,32.9,29.67,SE,136,10.0,14.0,85,0.10,,---,0.10,VWS V14.01,2013-02-26 09:57:00,
2013-02-26 04:58:00,39.4,28.2,29.68,ESE,115,6.0,6.0,64,0.00,,---,0.00,VWS V14.01,2013-02-26 09:58:00,
2013-02-26 04:59:00,37.0,32.9,29.66,SE,130,4.0,10.0,85,0.11,,---,0.11,VWS V14.01,2013-02-26 09:59:00,
2013-02-26 05:00:00,36.9,32.8,29.66,ESE,102,4.0,8.0,85,0.11,,---,0.11,VWS V14.01,2013-02-26 10:00:00,
2013-02-26 05:01:00,36.9,32.8,29.66,East,97,2.0,9.0,85,0.11,,---,0.11,VWS V14.01,2013-02-26 10:01:00,
2013-02-26 05:02:00,36.9,32.8,29.66,ESE,123,4.0,7.0,85,0.11,,---,0.11,VWS V14.01,2013-02-26 10:02:00,
2013-02-26 05:03:00,39.3,29.6,29.68,ESE,102,0.0,6.0,68,0.01,,---,0.01,VWS V14.01,2013-02-26 10:03:00,
2013-02-26 05:04:00,36.9,33.1,29.65,ESE,103,4.0,7.0,86,0.11,,---,0.12,VWS V14.01,2013-02-26 10:04:00,
2013-02-26 05:05:00,36.8,33.0,29.65,SSE,164,8.0,11.0,86,0.11,,---,0.12,VWS V14.01,2013-02-26 10:05:00,
2013-02-26 05:06:00,36.8,33.0,29.65,SSE,148,7.0,9.0,86,0.10,,---,0.12,VWS V14.01,2013-02-26 10:06:00,
2013-02-26 05:07:00,36.7,32.9,29.65,ESE,115,8.0,13.0,86,0.10,,---,0.12,VWS V14.01,2013-02-26 10:07:00,
2013-02-26 05:08:00,38.8,30.6,29.68,ESE,113,6.0,6.0,72,0.02,,---,0.02,VWS V14.01,2013-02-26 10:08:00,
2013-02-26 05:09:00,36.7,32.9,29.64,East,97,5.0,7.0,86,0.11,,---,0.13,VWS V14.01,2013-02-26 10:09:00,
2013-02-26 05:10:00,36.6,33.1,29.64,SE,132,8.0,12.0,87,0.11,,---,0.13,VWS V14.01,2013-02-26 10:10:00,
2013-02-26 05:11:00,36.6,33.1,29.63,East,94,8.0,9.0,87,0.11,,---,0.13,VWS V14.01,2013-02-26 10:11:00,
2013-02-26 05:12:00,36.6,33.1,29.63,SE,133,4.0,12.0,87,0.11,,---,0.13,VWS V14.01,2013-02-26 10:12:00,
2013-02-26 05:13:00,38.3,31.1,29.68,SE,126,1.0,5.0,75,0.03,,---,0.03,VWS V14.01,2013-02-26 10:13:00,
2013-02-26 05:14:00,36.5,33.0,29.64,ESE,107,2.0,4.0,87,0.10,,---,0.13,VWS V14.01,2013-02-26 10:14:00,
2013-02-26 05:15:00,36.5,33.3,29.65,SSE,148,6.0,9.0,88,0.10,,---,0.13,VWS V14.01,2013-02-26 10:15:00,
2013-02-26 05:16:00,36.5,33.3,29.65,SE,124,6.0,10.0,88,0.10,,---,0.13,VWS V14.01,2013-02-26 10:16:00,
2013-02-26 05:17:00,36.5,33.0,29.64,ENE,59,7.0,13.0,87,0.10,,---,0.13,VWS V14.01,2013-02-26 10:17:00,
2013-02-26 05:18:00,37.9,31.4,29.68,ESE,109,0.0,5.0,77,0.03,,---,0.03,VWS V14.01,2013-02-26 10:18:00,
2013-02-26 05:19:00,36.5,33.0,29.64,SSE,163,6.0,7.0,87,0.10,,---,0.13,VWS V14.01,2013-02-26 10:19:00,
2013-02-26 05:20:00,36.5,33.3,29.64,ESE,107,0.0,9.0,88,0.10,,---,0.13,VWS V14.01,2013-02-26 10:20:00,
2013-02-26 05:21:00,36.5,33.3,29.64,ESE,118,5.0,9.0,88,0.10,,---,0.13,VWS V14.01,2013-02-26 10:21:00,
2013-02-26 05:22:00,36.5,33.3,29.64,East,82,2.0,7.0,88,0.10,,---,0.13,VWS V14.01,2013-02-26 10:22:00,
2013-02-26 05:23:00,36.5,33.3,29.64,SE,126,1.0,4.0,88,0.10,,---,0.13,VWS V14.01,2013-02-26 10:23:00,
2013-02-26 05:24:00,37.6,31.7,29.68,SE,131,1.0,7.0,79,0.03,,---,0.03,VWS V14.01,2013-02-26 10:24:00,
2013-02-26 05:25:00,36.5,33.3,29.64,East,96,8.0,12.0,88,0.10,,---,0.13,VWS V14.01,2013-02-26 10:25:00,
2013-02-26 05:26:00,36.5,33.3,29.64,East,97,8.0,12.0,88,0.10,,---,0.13,VWS V14.01,2013-02-26 10:26:00,
2013-02-26 05:27:00,36.5,33.3,29.64,NE,51,5.0,8.0,88,0.10,,---,0.13,VWS V14.01,2013-02-26 10:27:00,
2013-02-26 05:28:00,36.5,33.3,29.64,East,86,7.0,7.0,88,0.10,,---,0.13,VWS V14.01,2013-02-26 10:28:00,
2013-02-26 05:29:00,37.4,31.8,29.68,SSE,156,5.0,8.0,80,0.03,,---,0.03,VWS V14.01,2013-02-26 10:29:00,
2013-02-26 05:30:00,36.5,33.3,29.64,SSE,162,4.0,11.0,88,0.10,,---,0.13,VWS V14.01,2013-02-26 10:30:00,
2013-02-26 05:31:00,36.5,33.3,29.65,SE,130,5.0,8.0,88,0.09,,---,0.13,VWS V14.01,2013-02-26 10:31:00,
2013-02-26 05:32:00,36.5,33.3,29.64,SE,138,0.0,7.0,88,0.09,,---,0.13,VWS V14.01,2013-02-26 10:32:00,
2013-02-26 05:33:00,36.5,33.3,29.65,East,90,4.0,7.0,88,0.09,,---,0.13,VWS V14.01,2013-02-26 10:33:00,
2013-02-26 05:34:00,37.5,31.9,29.68,SE,145,6.0,14.0,80,0.04,,---,0.04,VWS V14.01,2013-02-26 10:34:00,
2013-02-26 05:35:00,36.6,33.7,29.65,SSE,158,2.0,13.0,89,0.10,,---,0.14,VWS V14.01,2013-02-26 10:35:00,
2013-02-26 05:36:00,36.6,33.7,29.65,SE,129,11.0,11.0,89,0.09,,---,0.14,VWS V14.01,2013-02-26 10:36:00,
2013-02-26 05:37:00,36.6,33.7,29.65,ESE,123,9.0,12.0,89,0.08,,---,0.14,VWS V14.01,2013-02-26 10:37:00,
2013-02-26 05:38:00,36.6,33.7,29.64,SE,142,4.0,10.0,89,0.08,,---,0.14,VWS V14.01,2013-02-26 10:38:00,
2013-02-26 05:39:00,37.4,32.1,29.68,ESE,119,5.0,6.0,81,0.07,,---,0.07,VWS V14.01,2013-02-26 10:39:00,
2013-02-26 05:40:00,36.6,33.7,29.64,ESE,111,0.0,6.0,89,0.07,,---,0.14,VWS V14.01,2013-02-26 10:40:00,
2013-02-26 05:41:00,36.6,33.7,29.64,East,92,2.0,9.0,89,0.07,,---,0.14,VWS V14.01,2013-02-26 10:41:00,
2013-02-26 05:42:00,36.6,33.7,29.64,East,89,7.0,8.0,89,0.07,,---,0.14,VWS V14.01,2013-02-26 10:42:00,
2013-02-26 05:43:00,36.6,33.7,29.64,ESE,116,1.0,9.0,89,0.07,,---,0.14,VWS V14.01,2013-02-26 10:43:00,
2013-02-26 05:44:00,37.2,32.5,29.67,SE,127,6.0,8.0,83,0.08,,---,0.08,VWS V14.01,2013-02-26 10:44:00,
2013-02-26 05:45:00,36.6,33.7,29.64,SE,138,7.0,9.0,89,0.06,,---,0.14,VWS V14.01,2013-02-26 10:45:00,
2013-02-26 05:46:00,36.6,33.7,29.63,East,96,7.0,12.0,89,0.07,,---,0.15,VWS V14.01,2013-02-26 10:46:00,
2013-02-26 05:47:00,36.6,33.7,29.63,ESE,103,1.0,8.0,89,0.07,,---,0.15,VWS V14.01,2013-02-26 10:47:00,
2013-02-26 05:48:00,36.6,33.7,29.63,ENE,63,6.0,8.0,89,0.07,,---,0.15,VWS V14.01,2013-02-26 10:48:00,
2013-02-26 05:49:00,37.1,32.7,29.67,SE,146,4.0,13.0,84,0.08,,---,0.08,VWS V14.01,2013-02-26 10:49:00,
2013-02-26 05:50:00,36.6,33.7,29.63,SE,125,5.0,9.0,89,0.07,,---,0.15,VWS V14.01,2013-02-26 10:50:00,
2013-02-26 05:51:00,36.6,33.7,29.63,ESE,119,8.0,11.0,89,0.06,,---,0.15,VWS V14.01,2013-02-26 10:51:00,
2013-02-26 05:52:00,36.6,33.7,29.63,ESE,105,11.0,11.0,89,0.07,,---,0.16,VWS V14.01,2013-02-26 10:52:00,
2013-02-26 05:53:00,36.6,33.7,29.63,ESE,123,5.0,11.0,89,0.07,,---,0.16,VWS V14.01,2013-02-26 10:53:00,
2013-02-26 05:54:00,37.0,32.6,29.67,SE,138,6.0,9.0,84,0.09,,---,0.09,VWS V14.01,2013-02-26 10:54:00,
2013-02-26 05:55:00,36.6,33.7,29.62,SE,138,4.0,8.0,89,0.07,,---,0.16,VWS V14.01,2013-02-26 10:55:00,
2013-02-26 05:56:00,36.6,33.7,29.62,SE,126,4.0,12.0,89,0.07,,---,0.17,VWS V14.01,2013-02-26 10:56:00,
2013-02-26 05:57:00,36.6,33.7,29.62,East,96,6.0,9.0,89,0.07,,---,0.17,VWS V14.01,2013-02-26 10:57:00,
2013-02-26 05:58:00,36.6,34.0,29.62,SE,138,6.0,15.0,90,0.07,,---,0.17,VWS V14.01,2013-02-26 10:58:00,
2013-02-26 05:59:00,37.0,32.9,29.66,SE,130,4.0,10.0,85,0.11,,---,0.11,VWS V14.01,2013-02-26 10:59:00,
2013-02-26 06:00:00,36.6,34.0,29.62,ESE,121,7.0,7.0,90,0.06,,---,0.17,VWS V14.01,2013-02-26 11:00:00,
2013-02-26 06:01:00,36.6,34.0,29.62,ESE,122,2.0,11.0,90,0.06,,---,0.17,VWS V14.01,2013-02-26 11:01:00,
2013-02-26 06:02:00,36.6,34.0,29.62,East,90,6.0,7.0,90,0.06,,---,0.17,VWS V14.01,2013-02-26 11:02:00,
2013-02-26 06:03:00,36.6,34.0,29.61,SE,145,9.0,14.0,90,0.06,,---,0.17,VWS V14.01,2013-02-26 11:03:00,
2013-02-26 06:04:00,36.9,33.1,29.65,ESE,103,4.0,7.0,86,0.11,,---,0.12,VWS V14.01,2013-02-26 11:04:00,
2013-02-26 06:05:00,36.6,34.0,29.61,East,94,7.0,14.0,90,0.05,,---,0.17,VWS V14.01,2013-02-26 11:05:00,
2013-02-26 06:06:00,36.7,34.0,29.62,ESE,117,6.0,11.0,90,0.05,,---,0.17,VWS V14.01,2013-02-26 11:06:00,
2013-02-26 06:07:00,36.7,34.0,29.61,ESE,121,7.0,13.0,90,0.05,,---,0.17,VWS V14.01,2013-02-26 11:07:00,
2013-02-26 06:08:00,36.7,34.0,29.61,East,92,2.0,9.0,90,0.05,,---,0.17,VWS V14.01,2013-02-26 11:08:00,
2013-02-26 06:09:00,36.7,32.9,29.64,East,97,5.0,7.0,86,0.11,,---,0.13,VWS V14.01,2013-02-26 11:09:00,
2013-02-26 06:10:00,36.8,34.2,29.61,ESE,119,11.0,12.0,90,0.04,,---,0.17,VWS V14.01,2013-02-26 11:10:00,
2013-02-26 06:11:00,36.8,34.2,29.61,SE,127,2.0,11.0,90,0.04,,---,0.17,VWS V14.01,2013-02-26 11:11:00,
2013-02-26 06:12:00,36.8,34.2,29.61,SE,138,1.0,6.0,90,0.04,,---,0.17,VWS V14.01,2013-02-26 11:12:00,
2013-02-26 06:14:00,36.9,34.2,29.60,ESE,105,4.0,12.0,90,0.04,,---,0.17,VWS V14.01,2013-02-26 11:14:00,
2013-02-26 06:15:00,36.5,33.3,29.65,SSE,148,6.0,9.0,88,0.10,,---,0.13,VWS V14.01,2013-02-26 11:15:00,
2013-02-26 06:16:00,36.9,34.2,29.60,ESE,121,8.0,14.0,90,0.05,,---,0.18,VWS V14.01,2013-02-26 11:16:00,
2013-02-26 06:17:00,36.9,34.2,29.60,SSE,163,9.0,14.0,90,0.05,,---,0.18,VWS V14.01,2013-02-26 11:17:00,
2013-02-26 06:18:00,36.9,34.2,29.60,SE,127,8.0,13.0,90,0.05,,---,0.18,VWS V14.01,2013-02-26 11:18:00,
2013-02-26 06:19:00,36.9,34.2,29.60,ESE,118,6.0,12.0,90,0.05,,---,0.18,VWS V14.01,2013-02-26 11:19:00,
2013-02-26 06:20:00,36.5,33.3,29.64,ESE,107,0.0,9.0,88,0.10,,---,0.13,VWS V14.01,2013-02-26 11:20:00,
2013-02-26 06:21:00,36.9,34.2,29.60,East,95,2.0,7.0,90,0.05,,---,0.18,VWS V14.01,2013-02-26 11:21:00,
2013-02-26 06:22:00,37.0,34.3,29.59,SE,136,9.0,13.0,90,0.05,,---,0.18,VWS V14.01,2013-02-26 11:22:00,
2013-02-26 06:23:00,37.0,34.3,29.59,ESE,112,1.0,14.0,90,0.05,,---,0.18,VWS V14.01,2013-02-26 11:23:00,
2013-02-26 06:24:00,37.0,34.3,29.59,East,92,5.0,11.0,90,0.05,,---,0.18,VWS V14.01,2013-02-26 11:24:00,
2013-02-26 06:25:00,36.5,33.3,29.64,East,96,8.0,12.0,88,0.10,,---,0.13,VWS V14.01,2013-02-26 11:25:00,
2013-02-26 06:26:00,37.0,34.3,29.59,SE,143,2.0,8.0,90,0.05,,---,0.18,VWS V14.01,2013-02-26 11:26:00,
2013-02-26 06:27:00,37.0,34.3,29.59,SE,137,9.0,9.0,90,0.05,,---,0.18,VWS V14.01,2013-02-26 11:27:00,
2013-02-26 06:28:00,37.0,34.3,29.59,SE,131,5.0,14.0,90,0.05,,---,0.18,VWS V14.01,2013-02-26 11:28:00,
2013-02-26 06:29:00,37.0,34.3,29.59,SE,129,5.0,13.0,90,0.05,,---,0.18,VWS V14.01,2013-02-26 11:29:00,
2013-02-26 06:30:00,36.5,33.3,29.64,SSE,162,4.0,11.0,88,0.10,,---,0.13,VWS V14.01,2013-02-26 11:30:00,
2013-02-26 06:31:00,37.0,34.3,29.59,SSE,157,4.0,14.0,90,0.05,,---,0.18,VWS V14.01,2013-02-26 11:31:00,
2013-02-26 06:32:00,37.0,34.3,29.59,NNE,28,4.0,12.0,90,0.05,,---,0.18,VWS V14.01,2013-02-26 11:32:00,
2013-02-26 06:33:00,37.0,34.3,29.59,ESE,119,4.0,9.0,90,0.05,,---,0.18,VWS V14.01,2013-02-26 11:33:00,
2013-02-26 06:34:00,37.0,34.3,29.59,ESE,117,6.0,15.0,90,0.05,,---,0.18,VWS V14.01,2013-02-26 11:34:00,
2013-02-26 06:35:00,36.6,33.7,29.65,SSE,158,2.0,13.0,89,0.10,,---,0.14,VWS V14.01,2013-02-26 11:35:00,
2013-02-26 06:36:00,37.1,34.4,29.59,East,89,12.0,12.0,90,0.04,,---,0.18,VWS V14.01,2013-02-26 11:36:00,
2013-02-26 06:37:00,37.1,34.4,29.58,SSE,148,4.0,12.0,90,0.04,,---,0.18,VWS V14.01,2013-02-26 11:37:00,
2013-02-26 06:38:00,37.1,34.4,29.59,SSE,152,7.0,13.0,90,0.04,,---,0.18,VWS V14.01,2013-02-26 11:38:00,
2013-02-26 06:39:00,37.1,34.4,29.59,East,85,7.0,10.0,90,0.04,,---,0.18,VWS V14.01,2013-02-26 11:39:00,
2013-02-26 06:40:00,36.6,33.7,29.64,ESE,111,0.0,6.0,89,0.07,,---,0.14,VWS V14.01,2013-02-26 11:40:00,
2013-02-26 06:41:00,37.2,34.5,29.58,ENE,78,7.0,14.0,90,0.04,,---,0.18,VWS V14.01,2013-02-26 11:41:00,
2013-02-26 06:42:00,37.2,34.5,29.59,ESE,121,4.0,9.0,90,0.04,,---,0.18,VWS V14.01,2013-02-26 11:42:00,
2013-02-26 06:43:00,37.2,34.5,29.59,NE,38,11.0,11.0,90,0.04,,---,0.18,VWS V14.01,2013-02-26 11:43:00,
2013-02-26 06:44:00,37.2,34.5,29.59,ESE,107,2.0,11.0,90,0.04,,---,0.18,VWS V14.01,2013-02-26 11:44:00,
2013-02-26 06:45:00,36.6,33.7,29.64,SE,138,7.0,9.0,89,0.06,,---,0.14,VWS V14.01,2013-02-26 11:45:00,
2013-02-26 06:46:00,37.2,34.5,29.59,SE,131,7.0,8.0,90,0.04,,---,0.18,VWS V14.01,2013-02-26 11:46:00,
2013-02-26 06:47:00,37.2,34.5,29.59,East,101,7.0,8.0,90,0.03,,---,0.18,VWS V14.01,2013-02-26 11:47:00,
2013-02-26 06:48:00,37.3,34.6,29.59,SE,135,6.0,8.0,90,0.03,,---,0.18,VWS V14.01,2013-02-26 11:48:00,
2013-02-26 06:49:00,37.3,34.6,29.59,SE,133,6.0,7.0,90,0.03,,---,0.18,VWS V14.01,2013-02-26 11:49:00,
2013-02-26 06:50:00,36.6,33.7,29.63,SE,125,5.0,9.0,89,0.07,,---,0.15,VWS V14.01,2013-02-26 11:50:00,
2013-02-26 06:51:00,37.3,34.6,29.59,South,169,2.0,8.0,90,0.03,,---,0.18,VWS V14.01,2013-02-26 11:51:00,
2013-02-26 06:52:00,37.3,34.6,29.59,SSE,150,7.0,7.0,90,0.03,,---,0.18,VWS V14.01,2013-02-26 11:52:00,
2013-02-26 06:53:00,37.3,34.6,29.59,ESE,123,4.0,10.0,90,0.03,,---,0.19,VWS V14.01,2013-02-26 11:53:00,
2013-02-26 06:54:00,37.3,34.6,29.59,ESE,107,8.0,8.0,90,0.03,,---,0.19,VWS V14.01,2013-02-26 11:54:00,
2013-02-26 06:55:00,37.3,34.6,29.59,SE,126,1.0,8.0,90,0.03,,---,0.19,VWS V14.01,2013-02-26 11:55:00,
2013-02-26 06:56:00,36.6,33.7,29.62,SE,126,4.0,12.0,89,0.07,,---,0.17,VWS V14.01,2013-02-26 11:56:00,
2013-02-26 06:57:00,37.3,34.6,29.59,ESE,109,9.0,9.0,90,0.02,,---,0.19,VWS V14.01,2013-02-26 11:57:00,
2013-02-26 06:58:00,37.4,34.7,29.59,East,92,12.0,14.0,90,0.02,,---,0.19,VWS V14.01,2013-02-26 11:58:00,
2013-02-26 06:59:00,37.3,34.6,29.59,ESE,113,0.0,12.0,90,0.02,,---,0.19,VWS V14.01,2013-02-26 11:59:00,
2013-02-26 07:00:00,37.4,34.7,29.60,SE,142,9.0,9.0,90,0.02,,---,0.19,VWS V14.01,2013-02-26 12:00:00,
2013-02-26 07:01:00,36.6,34.0,29.62,ESE,122,2.0,11.0,90,0.06,,---,0.17,VWS V14.01,2013-02-26 12:01:00,
2013-02-26 07:02:00,37.4,34.7,29.59,SE,127,2.0,9.0,90,0.02,,---,0.19,VWS V14.01,2013-02-26 12:02:00,
2013-02-26 07:03:00,37.4,34.7,29.59,SE,130,5.0,6.0,90,0.02,,---,0.19,VWS V14.01,2013-02-26 12:03:00,
2013-02-26 07:04:00,37.4,34.7,29.59,ENE,63,3.0,8.0,90,0.02,,---,0.19,VWS V14.01,2013-02-26 12:04:00,
2013-02-26 07:05:00,37.4,34.7,29.59,East,101,7.0,7.0,90,0.02,,---,0.19,VWS V14.01,2013-02-26 12:05:00,
2013-02-26 07:06:00,36.7,34.0,29.62,ESE,117,6.0,11.0,90,0.05,,---,0.17,VWS V14.01,2013-02-26 12:06:00,
2013-02-26 07:07:00,37.4,34.7,29.59,ENE,77,4.0,10.0,90,0.03,,---,0.20,VWS V14.01,2013-02-26 12:07:00,
2013-02-26 07:08:00,37.4,34.7,29.59,ESE,109,2.0,10.0,90,0.03,,---,0.20,VWS V14.01,2013-02-26 12:08:00,
2013-02-26 07:09:00,37.4,34.7,29.59,ESE,113,1.0,7.0,90,0.03,,---,0.20,VWS V14.01,2013-02-26 12:09:00,
2013-02-26 07:10:00,37.4,34.7,29.59,East,97,0.0,1.0,90,0.03,,---,0.20,VWS V14.01,2013-02-26 12:10:00,
2013-02-26 07:11:00,36.8,34.2,29.61,SE,127,2.0,11.0,90,0.04,,---,0.17,VWS V14.01,2013-02-26 12:11:00,
2013-02-26 07:12:00,37.4,34.7,29.59,ESE,105,7.0,8.0,90,0.03,,---,0.20,VWS V14.01,2013-02-26 12:12:00,
2013-02-26 07:13:00,37.4,34.7,29.58,SE,135,7.0,11.0,90,0.03,,---,0.20,VWS V14.01,2013-02-26 12:13:00,
2013-02-26 07:14:00,37.4,34.7,29.59,ESE,121,1.0,9.0,90,0.03,,---,0.20,VWS V14.01,2013-02-26 12:14:00,
2013-02-26 07:15:00,37.5,34.8,29.59,East,92,4.0,4.0,90,0.03,,---,0.20,VWS V14.01,2013-02-26 12:15:00,
2013-02-26 07:16:00,36.9,34.2,29.60,ESE,121,8.0,14.0,90,0.05,,---,0.18,VWS V14.01,2013-02-26 12:16:00,
2013-02-26 07:17:00,37.5,34.8,29.59,SSE,147,2.0,6.0,90,0.02,,---,0.20,VWS V14.01,2013-02-26 12:17:00,
2013-02-26 07:18:00,37.5,34.8,29.59,SE,132,6.0,6.0,90,0.02,,---,0.20,VWS V14.01,2013-02-26 12:18:00,
2013-02-26 07:19:00,37.5,34.8,29.59,ESE,102,1.0,11.0,90,0.02,,---,0.20,VWS V14.01,2013-02-26 12:19:00,
2013-02-26 07:20:00,37.5,34.8,29.59,NE,45,2.0,4.0,90,0.02,,---,0.20,VWS V14.01,2013-02-26 12:20:00,
2013-02-26 07:21:00,36.9,34.2,29.60,East,95,2.0,7.0,90,0.05,,---,0.18,VWS V14.01,2013-02-26 12:21:00,
2013-02-26 07:22:00,37.5,34.8,29.58,SE,140,7.0,7.0,90,0.02,,---,0.20,VWS V14.01,2013-02-26 12:22:00,
2013-02-26 07:23:00,37.5,34.8,29.58,East,95,7.0,9.0,90,0.03,,---,0.21,VWS V14.01,2013-02-26 12:23:00,
2013-02-26 07:24:00,37.5,34.8,29.58,East,94,5.0,8.0,90,0.03,,---,0.21,VWS V14.01,2013-02-26 12:24:00,
2013-02-26 07:25:00,37.5,34.8,29.58,East,90,0.0,9.0,90,0.03,,---,0.21,VWS V14.01,2013-02-26 12:25:00,
2013-02-26 07:26:00,37.0,34.3,29.59,SE,143,2.0,8.0,90,0.05,,---,0.18,VWS V14.01,2013-02-26 12:26:00,
2013-02-26 07:27:00,37.5,34.8,29.58,SE,134,4.0,8.0,90,0.03,,---,0.21,VWS V14.01,2013-02-26 12:27:00,
2013-02-26 07:28:00,37.5,34.8,29.58,ESE,111,7.0,7.0,90,0.03,,---,0.21,VWS V14.01,2013-02-26 12:28:00,
2013-02-26 07:29:00,37.5,34.8,29.58,ENE,76,6.0,12.0,90,0.03,,---,0.21,VWS V14.01,2013-02-26 12:29:00,
2013-02-26 07:30:00,37.5,34.8,29.58,East,91,6.0,7.0,90,0.03,,---,0.21,VWS V14.01,2013-02-26 12:30:00,
2013-02-26 07:31:00,37.0,34.3,29.59,SSE,157,4.0,14.0,90,0.05,,---,0.18,VWS V14.01,2013-02-26 12:31:00,
2013-02-26 07:32:00,37.6,34.9,29.58,East,100,8.0,12.0,90,0.03,,---,0.21,VWS V14.01,2013-02-26 12:32:00,
2013-02-26 07:33:00,37.6,34.9,29.58,SSE,153,1.0,8.0,90,0.03,,---,0.21,VWS V14.01,2013-02-26 12:33:00,
2013-02-26 07:34:00,37.6,34.9,29.58,East,87,0.0,1.0,90,0.03,,---,0.21,VWS V14.01,2013-02-26 12:34:00,
2013-02-26 07:35:00,37.6,34.9,29.58,ESE,104,8.0,12.0,90,0.03,,---,0.21,VWS V14.01,2013-02-26 12:35:00,
2013-02-26 07:36:00,37.1,34.4,29.59,East,89,12.0,12.0,90,0.04,,---,0.18,VWS V14.01,2013-02-26 12:36:00,
2013-02-26 07:37:00,37.7,35.0,29.57,ESE,123,13.0,13.0,90,0.03,,---,0.21,VWS V14.01,2013-02-26 12:37:00,
2013-02-26 07:38:00,37.7,35.0,29.57,East,92,2.0,13.0,90,0.03,,---,0.21,VWS V14.01,2013-02-26 12:38:00,
2013-02-26 07:39:00,37.7,35.0,29.57,NE,56,7.0,8.0,90,0.03,,---,0.21,VWS V14.01,2013-02-26 12:39:00,
2013-02-26 07:40:00,37.7,35.0,29.57,ESE,103,4.0,11.0,90,0.04,,---,0.22,VWS V14.01,2013-02-26 12:40:00,
2013-02-26 07:41:00,37.2,34.5,29.58,ENE,78,7.0,14.0,90,0.04,,---,0.18,VWS V14.01,2013-02-26 12:41:00,
2013-02-26 07:42:00,37.7,35.3,29.57,SE,143,1.0,7.0,91,0.04,,---,0.22,VWS V14.01,2013-02-26 12:42:00,
2013-02-26 07:43:00,37.7,35.3,29.56,NE,55,5.0,8.0,91,0.04,,---,0.22,VWS V14.01,2013-02-26 12:43:00,
2013-02-26 07:44:00,37.7,35.3,29.56,SE,142,8.0,12.0,91,0.05,,---,0.23,VWS V14.01,2013-02-26 12:44:00,
2013-02-26 07:45:00,37.7,35.3,29.56,SE,132,5.0,9.0,91,0.05,,---,0.23,VWS V14.01,2013-02-26 12:45:00,
2013-02-26 07:46:00,37.7,35.3,29.56,ESE,116,4.0,6.0,91,0.05,,---,0.23,VWS V14.01,2013-02-26 12:46:00,
2013-02-26 07:47:00,37.2,34.5,29.59,East,101,7.0,8.0,90,0.03,,---,0.18,VWS V14.01,2013-02-26 12:47:00,
2013-02-26 07:48:00,37.7,35.3,29.56,East,101,0.0,6.0,91,0.05,,---,0.23,VWS V14.01,2013-02-26 12:48:00,
2013-02-26 07:49:00,37.7,35.3,29.56,ENE,61,2.0,6.0,91,0.05,,---,0.23,VWS V14.01,2013-02-26 12:49:00,
2013-02-26 07:50:00,37.7,35.3,29.56,ESE,119,4.0,4.0,91,0.05,,---,0.23,VWS V14.01,2013-02-26 12:50:00,
2013-02-26 07:51:00,37.8,35.4,29.56,East,86,2.0,7.0,91,0.05,,---,0.23,VWS V14.01,2013-02-26 12:51:00,
2013-02-26 07:52:00,37.3,34.6,29.59,SSE,150,7.0,7.0,90,0.03,,---,0.18,VWS V14.01,2013-02-26 12:52:00,
2013-02-26 07:53:00,37.8,35.4,29.56,SE,130,6.0,8.0,91,0.05,,---,0.23,VWS V14.01,2013-02-26 12:53:00,
2013-02-26 07:54:00,37.8,35.4,29.56,ESE,107,2.0,13.0,91,0.04,,---,0.23,VWS V14.01,2013-02-26 12:54:00,
2013-02-26 07:55:00,37.8,35.4,29.56,ESE,117,2.0,6.0,91,0.05,,---,0.24,VWS V14.01,2013-02-26 12:55:00,
2013-02-26 07:56:00,37.8,35.4,29.56,East,81,0.0,4.0,91,0.05,,---,0.24,VWS V14.01,2013-02-26 12:56:00,
2013-02-26 07:57:00,37.3,34.6,29.59,ESE,109,9.0,9.0,90,0.02,,---,0.19,VWS V14.01,2013-02-26 12:57:00,
2013-02-26 07:58:00,37.8,35.4,29.55,ENE,76,0.0,11.0,91,0.05,,---,0.24,VWS V14.01,2013-02-26 12:58:00,
2013-02-26 07:59:00,37.9,35.5,29.56,SE,139,6.0,13.0,91,0.05,,---,0.24,VWS V14.01,2013-02-26 12:59:00,
2013-02-26 08:00:00,37.9,35.5,29.56,ESE,119,1.0,6.0,91,0.05,,---,0.24,VWS V14.01,2013-02-26 13:00:00,
2013-02-26 08:01:00,37.9,35.5,29.56,ESE,115,2.0,11.0,91,0.05,,---,0.24,VWS V14.01,2013-02-26 13:01:00,
2013-02-26 08:02:00,37.4,34.7,29.59,SE,127,2.0,9.0,90,0.02,,---,0.19,VWS V14.01,2013-02-26 13:02:00,
2013-02-26 08:03:00,37.9,35.5,29.56,ESE,113,7.0,9.0,91,0.05,,---,0.24,VWS V14.01,2013-02-26 13:03:00,
2013-02-26 08:04:00,37.9,35.5,29.56,ESE,121,2.0,8.0,91,0.05,,---,0.24,VWS V14.01,2013-02-26 13:04:00,
2013-02-26 08:05:00,38.0,35.6,29.56,ESE,115,1.0,11.0,91,0.05,,---,0.24,VWS V14.01,2013-02-26 13:05:00,
2013-02-26 08:06:00,38.0,35.6,29.56,NE,53,4.0,6.0,91,0.05,,---,0.24,VWS V14.01,2013-02-26 13:06:00,
2013-02-26 08:07:00,37.4,34.7,29.59,ENE,77,4.0,10.0,90,0.03,,---,0.20,VWS V14.01,2013-02-26 13:07:00,
2013-02-26 08:08:00,38.0,35.6,29.56,East,93,0.0,11.0,91,0.04,,---,0.24,VWS V14.01,2013-02-26 13:08:00,
2013-02-26 08:09:00,38.0,35.6,29.56,SE,144,6.0,11.0,91,0.04,,---,0.24,VWS V14.01,2013-02-26 13:09:00,
2013-02-26 08:10:00,38.0,35.6,29.56,SE,146,2.0,6.0,91,0.04,,---,0.24,VWS V14.01,2013-02-26 13:10:00,
2013-02-26 08:11:00,38.1,35.7,29.55,SE,138,0.0,5.0,91,0.04,,---,0.24,VWS V14.01,2013-02-26 13:11:00,
2013-02-26 08:12:00,37.4,34.7,29.59,ESE,105,7.0,8.0,90,0.03,,---,0.20,VWS V14.01,2013-02-26 13:12:00,
2013-02-26 08:13:00,38.1,35.7,29.55,SW,216,6.0,13.0,91,0.05,,---,0.25,VWS V14.01,2013-02-26 13:13:00,
2013-02-26 08:14:00,38.1,35.7,29.55,ENE,77,3.0,8.0,91,0.05,,---,0.25,VWS V14.01,2013-02-26 13:14:00,
2013-02-26 08:15:00,38.2,35.8,29.55,ESE,105,7.0,12.0,91,0.05,,---,0.25,VWS V14.01,2013-02-26 13:15:00,
2013-02-26 08:16:00,38.2,35.8,29.55,East,88,5.0,12.0,91,0.05,,---,0.25,VWS V14.01,2013-02-26 13:16:00,
2013-02-26 08:17:00,37.5,34.8,29.59,SSE,147,2.0,6.0,90,0.02,,---,0.20,VWS V14.01,2013-02-26 13:17:00,
2013-02-26 08:18:00,38.2,35.8,29.54,East,94,4.0,13.0,91,0.06,,---,0.26,VWS V14.01,2013-02-26 13:18:00,
2013-02-26 08:19:00,38.3,35.9,29.54,East,98,5.0,14.0,91,0.07,,---,0.27,VWS V14.01,2013-02-26 13:19:00,
2013-02-26 08:20:00,38.3,35.9,29.54,SSE,150,1.0,14.0,91,0.07,,---,0.27,VWS V14.01,2013-02-26 13:20:00,
2013-02-26 08:21:00,38.3,35.9,29.54,SSE,160,7.0,9.0,91,0.07,,---,0.27,VWS V14.01,2013-02-26 13:21:00,
2013-02-26 08:22:00,37.5,34.8,29.58,SE,140,7.0,7.0,90,0.02,,---,0.20,VWS V14.01,2013-02-26 13:22:00,
2013-02-26 08:23:00,38.3,35.9,29.53,SE,140,6.0,12.0,91,0.07,,---,0.27,VWS V14.01,2013-02-26 13:23:00,
2013-02-26 08:24:00,38.3,35.9,29.53,ENE,69,6.0,13.0,91,0.06,,---,0.27,VWS V14.01,2013-02-26 13:24:00,
2013-02-26 08:25:00,38.4,36.0,29.53,East,101,11.0,12.0,91,0.06,,---,0.27,VWS V14.01,2013-02-26 13:25:00,
2013-02-26 08:26:00,38.4,36.0,29.53,SE,130,6.0,12.0,91,0.07,,---,0.28,VWS V14.01,2013-02-26 13:26:00,
2013-02-26 08:28:00,37.5,34.8,29.58,ESE,111,7.0,7.0,90,0.03,,---,0.21,VWS V14.01,2013-02-26 13:28:00,
2013-02-26 08:29:00,38.6,36.5,29.53,East,97,4.0,5.0,92,0.07,,---,0.28,VWS V14.01,2013-02-26 13:29:00,
2013-02-26 08:30:00,38.6,36.5,29.52,SE,133,6.0,8.0,92,0.07,,---,0.28,VWS V14.01,2013-02-26 13:30:00,
2013-02-26 08:31:00,38.7,36.6,29.52,East,79,3.0,12.0,92,0.07,,---,0.28,VWS V14.01,2013-02-26 13:31:00,
2013-02-26 08:32:00,38.7,36.6,29.52,ESE,120,6.0,13.0,92,0.07,,---,0.28,VWS V14.01,2013-02-26 13:32:00,
2013-02-26 08:33:00,37.6,34.9,29.58,SSE,153,1.0,8.0,90,0.03,,---,0.21,VWS V14.01,2013-02-26 13:33:00,
2013-02-26 08:34:00,38.8,36.7,29.52,ESE,122,6.0,10.0,92,0.07,,---,0.28,VWS V14.01,2013-02-26 13:34:00,
2013-02-26 08:35:00,38.8,36.7,29.52,East,99,8.0,14.0,92,0.07,,---,0.28,VWS V14.01,2013-02-26 13:35:00,
2013-02-26 08:36:00,38.9,36.8,29.52,ESE,121,7.0,12.0,92,0.07,,---,0.28,VWS V14.01,2013-02-26 13:36:00,
2013-02-26 08:37:00,39.0,36.9,29.52,SSW,196,5.0,12.0,92,0.07,,---,0.28,VWS V14.01,2013-02-26 13:37:00,
2013-02-26 08:38:00,37.7,35.0,29.57,East,92,2.0,13.0,90,0.03,,---,0.21,VWS V14.01,2013-02-26 13:38:00,
2013-02-26 08:39:00,39.1,37.0,29.52,East,93,5.0,6.0,92,0.07,,---,0.28,VWS V14.01,2013-02-26 13:39:00,
2013-02-26 08:40:00,39.1,37.0,29.52,East,101,11.0,12.0,92,0.07,,---,0.28,VWS V14.01,2013-02-26 13:40:00,
2013-02-26 08:41:00,39.2,37.1,29.52,East,100,6.0,12.0,92,0.06,,---,0.28,VWS V14.01,2013-02-26 13:41:00,
2013-02-26 08:42:00,39.2,37.1,29.52,SSE,162,6.0,9.0,92,0.06,,---,0.28,VWS V14.01,2013-02-26 13:42:00,
2013-02-26 08:43:00,37.7,35.3,29.56,NE,55,5.0,8.0,91,0.04,,---,0.22,VWS V14.01,2013-02-26 13:43:00,
2013-02-26 08:44:00,39.4,37.3,29.52,ESE,104,5.0,6.0,92,0.06,,---,0.28,VWS V14.01,2013-02-26 13:44:00,
2013-02-26 08:45:00,39.4,37.3,29.52,SSE,156,4.0,10.0,92,0.05,,---,0.28,VWS V14.01,2013-02-26 13:45:00,
2013-02-26 08:46:00,39.5,37.4,29.52,SE,136,15.0,18.0,92,0.05,,---,0.28,VWS V14.01,2013-02-26 13:46:00,
2013-02-26 08:47:00,39.6,37.5,29.52,SE,134,6.0,15.0,92,0.05,,---,0.28,VWS V14.01,2013-02-26 13:47:00,
2013-02-26 08:48:00,37.7,35.3,29.56,East,101,0.0,6.0,91,0.05,,---,0.23,VWS V14.01,2013-02-26 13:48:00,
2013-02-26 08:49:00,39.7,37.6,29.52,SE,124,21.0,21.0,92,0.05,,---,0.28,VWS V14.01,2013-02-26 13:49:00,
2013-02-26 08:50:00,39.8,37.7,29.52,SSE,156,9.0,21.0,92,0.05,,---,0.28,VWS V14.01,2013-02-26 13:50:00,
2013-02-26 08:51:00,39.9,37.8,29.52,SSE,150,5.0,13.0,92,0.05,,---,0.28,VWS V14.01,2013-02-26 13:51:00,
2013-02-26 08:52:00,40.0,37.6,29.52,ESE,122,4.0,7.0,91,0.05,,---,0.28,VWS V14.01,2013-02-26 13:52:00,
2013-02-26 08:53:00,37.8,35.4,29.56,SE,130,6.0,8.0,91,0.05,,---,0.23,VWS V14.01,2013-02-26 13:53:00,
2013-02-26 08:54:00,40.1,37.7,29.52,ESE,119,5.0,12.0,91,0.05,,---,0.28,VWS V14.01,2013-02-26 13:54:00,
2013-02-26 08:55:00,40.1,37.7,29.52,ESE,119,6.0,7.0,91,0.05,,---,0.28,VWS V14.01,2013-02-26 13:55:00,
2013-02-26 08:56:00,40.2,37.8,29.52,ESE,107,5.0,11.0,91,0.04,,---,0.28,VWS V14.01,2013-02-26 13:56:00,
2013-02-26 08:57:00,40.2,37.8,29.52,SE,129,6.0,9.0,91,0.04,,---,0.28,VWS V14.01,2013-02-26 13:57:00,
2013-02-26 08:58:00,37.8,35.4,29.55,ENE,76,0.0,11.0,91,0.05,,---,0.24,VWS V14.01,2013-02-26 13:58:00,
2013-02-26 08:59:00,40.3,37.9,29.52,ESE,118,14.0,14.0,91,0.04,,---,0.28,VWS V14.01,2013-02-26 13:59:00,
2013-02-26 09:00:00,40.4,38.0,29.51,SE,126,9.0,12.0,91,0.04,,---,0.28,VWS V14.01,2013-02-26 14:00:00,
2013-02-26 09:01:00,40.4,38.0,29.51,SSE,162,10.0,13.0,91,0.04,,---,0.28,VWS V14.01,2013-02-26 14:01:00,
2013-02-26 09:02:00,40.4,38.0,29.51,SE,124,5.0,12.0,91,0.04,,---,0.28,VWS V14.01,2013-02-26 14:02:00,
2013-02-26 09:03:00,37.9,35.5,29.56,ESE,113,7.0,9.0,91,0.05,,---,0.24,VWS V14.01,2013-02-26 14:03:00,
2013-02-26 09:04:00,40.5,38.1,29.52,SE,132,2.0,11.0,91,0.05,,---,0.29,VWS V14.01,2013-02-26 14:04:00,
2013-02-26 09:05:00,40.5,38.1,29.52,SSE,148,7.0,11.0,91,0.05,,---,0.29,VWS V14.01,2013-02-26 14:05:00,
2013-02-26 09:06:00,40.6,38.2,29.51,SE,140,5.0,12.0,91,0.05,,---,0.29,VWS V14.01,2013-02-26 14:06:00,
2013-02-26 09:07:00,40.6,38.2,29.51,SE,130,11.0,11.0,91,0.05,,---,0.29,VWS V14.01,2013-02-26 14:07:00,
2013-02-26 09:08:00,38.0,35.6,29.56,East,93,0.0,11.0,91,0.04,,---,0.24,VWS V14.01,2013-02-26 14:08:00,
2013-02-26 09:09:00,40.7,38.3,29.51,SE,146,6.0,12.0,91,0.05,,---,0.29,VWS V14.01,2013-02-26 14:09:00,
2013-02-26 09:10:00,40.7,38.3,29.51,ESE,122,8.0,11.0,91,0.05,,---,0.29,VWS V14.01,2013-02-26 14:10:00,
2013-02-26 09:11:00,40.7,38.3,29.51,SE,140,4.0,14.0,91,0.05,,---,0.29,VWS V14.01,2013-02-26 14:11:00,
2013-02-26 09:12:00,40.7,38.3,29.51,NE,55,5.0,7.0,91,0.06,,---,0.30,VWS V14.01,2013-02-26 14:12:00,
2013-02-26 09:13:00,38.1,35.7,29.55,SW,216,6.0,13.0,91,0.05,,---,0.25,VWS V14.01,2013-02-26 14:13:00,
2013-02-26 09:14:00,40.7,38.3,29.50,ESE,123,4.0,14.0,91,0.05,,---,0.30,VWS V14.01,2013-02-26 14:14:00,
2013-02-26 09:15:00,40.7,38.3,29.50,South,172,6.0,15.0,91,0.06,,---,0.31,VWS V14.01,2013-02-26 14:15:00,
2013-02-26 09:16:00,40.7,38.3,29.50,ESE,121,5.0,8.0,91,0.06,,---,0.31,VWS V14.01,2013-02-26 14:16:00,
2013-02-26 09:17:00,40.7,38.3,29.50,SE,138,6.0,14.0,91,0.07,,---,0.32,VWS V14.01,2013-02-26 14:17:00,
2013-02-26 09:18:00,38.2,35.8,29.54,East,94,4.0,13.0,91,0.06,,---,0.26,VWS V14.01,2013-02-26 14:18:00,
2013-02-26 09:19:00,40.7,38.6,29.50,ESE,121,4.0,8.0,92,0.07,,---,0.33,VWS V14.01,2013-02-26 14:19:00,
2013-02-26 09:20:00,40.7,38.6,29.50,ESE,122,9.0,11.0,92,0.06,,---,0.33,VWS V14.01,2013-02-26 14:20:00,
2013-02-26 09:21:00,40.7,38.6,29.50,SSE,153,5.0,9.0,92,0.06,,---,0.33,VWS V14.01,2013-02-26 14:21:00,
2013-02-26 09:22:00,40.7,38.6,29.50,SE,144,8.0,11.0,92,0.06,,---,0.33,VWS V14.01,2013-02-26 14:22:00,
2013-02-26 09:23:00,38.3,35.9,29.53,SE,140,6.0,12.0,91,0.07,,---,0.27,VWS V14.01,2013-02-26 14:23:00,
2013-02-26 09:24:00,40.7,38.6,29.50,SE,143,4.0,11.0,92,0.06,,---,0.33,VWS V14.01,2013-02-26 14:24:00,
2013-02-26 09:25:00,40.8,38.7,29.50,SE,143,4.0,9.0,92,0.06,,---,0.33,VWS V14.01,2013-02-26 14:25:00,
2013-02-26 09:26:00,40.7,38.6,29.50,ESE,117,6.0,10.0,92,0.06,,---,0.33,VWS V14.01,2013-02-26 14:26:00,
2013-02-26 09:27:00,40.8,38.7,29.50,SE,128,2.0,7.0,92,0.05,,---,0.33,VWS V14.01,2013-02-26 14:27:00,
2013-02-26 09:28:00,38.5,36.4,29.53,ESE,120,4.0,6.0,92,0.07,,---,0.28,VWS V14.01,2013-02-26 14:28:00,
2013-02-26 09:29:00,40.9,38.8,29.50,South,173,5.0,11.0,92,0.05,,---,0.33,VWS V14.01,2013-02-26 14:29:00,
2013-02-26 09:30:00,40.9,39.0,29.50,SE,131,6.0,6.0,93,0.05,,---,0.33,VWS V14.01,2013-02-26 14:30:00,
2013-02-26 09:32:00,41.0,40.5,29.50,East,84,2.0,6.0,98,0.05,,---,0.33,VWS V14.01,2013-02-26 14:32:00,
2013-02-26 09:33:00,38.8,36.7,29.52,SE,128,0.0,11.0,92,0.07,,---,0.28,VWS V14.01,2013-02-26 14:33:00,
2013-02-26 09:34:00,41.1,39.2,29.50,East,90,5.0,8.0,93,0.05,,---,0.33,VWS V14.01,2013-02-26 14:34:00,
2013-02-26 09:35:00,41.2,39.3,29.50,SSE,159,8.0,9.0,93,0.05,,---,0.33,VWS V14.01,2013-02-26 14:35:00,
2013-02-26 09:36:00,41.2,39.3,29.50,ESE,109,7.0,14.0,93,0.05,,---,0.33,VWS V14.01,2013-02-26 14:36:00,
2013-02-26 09:37:00,41.3,39.4,29.50,SE,134,7.0,7.0,93,0.05,,---,0.33,VWS V14.01,2013-02-26 14:37:00,
2013-02-26 09:38:00,39.0,36.9,29.52,ESE,117,6.0,9.0,92,0.07,,---,0.28,VWS V14.01,2013-02-26 14:38:00,
2013-02-26 09:39:00,41.4,39.5,29.50,SE,129,13.0,13.0,93,0.05,,---,0.33,VWS V14.01,2013-02-26 14:39:00,
2013-02-26 09:40:00,41.4,39.5,29.50,SE,140,10.0,13.0,93,0.05,,---,0.33,VWS V14.01,2013-02-26 14:40:00,
2013-02-26 09:41:00,41.4,39.5,29.50,ESE,123,5.0,10.0,93,0.05,,---,0.33,VWS V14.01,2013-02-26 14:41:00,
2013-02-26 09:42:00,41.5,39.6,29.50,SE,143,2.0,12.0,93,0.05,,---,0.33,VWS V14.01,2013-02-26 14:42:00,
2013-02-26 09:43:00,39.3,37.2,29.52,ESE,117,5.0,8.0,92,0.06,,---,0.28,VWS V14.01,2013-02-26 14:43:00,
2013-02-26 09:44:00,41.6,39.7,29.50,SE,125,0.0,8.0,93,0.05,,---,0.33,VWS V14.01,2013-02-26 14:44:00,
2013-02-26 09:45:00,41.6,39.7,29.50,SSE,159,2.0,4.0,93,0.05,,---,0.33,VWS V14.01,2013-02-26 14:45:00,
2013-02-26 09:46:00,41.6,39.7,29.50,East,93,1.0,6.0,93,0.05,,---,0.33,VWS V14.01,2013-02-26 14:46:00,
2013-02-26 09:47:00,41.7,39.8,29.50,ESE,109,2.0,4.0,93,0.05,,---,0.33,VWS V14.01,2013-02-26 14:47:00,
2013-02-26 09:48:00,39.7,37.6,29.52,SE,143,5.0,8.0,92,0.05,,---,0.28,VWS V14.01,2013-02-26 14:48:00,
2013-02-26 09:49:00,41.8,39.9,29.50,SE,146,4.0,8.0,93,0.05,,---,0.33,VWS V14.01,2013-02-26 14:49:00,
2013-02-26 09:50:00,41.8,39.7,29.50,SSE,157,2.0,13.0,92,0.05,,---,0.33,VWS V14.01,2013-02-26 14:50:00,
2013-02-26 09:51:00,41.8,39.7,29.50,SSE,152,5.0,12.0,92,0.05,,---,0.33,VWS V14.01,2013-02-26 14:51:00,
2013-02-26 09:52:00,41.8,39.7,29.50,SE,142,5.0,8.0,92,0.05,,---,0.33,VWS V14.01,2013-02-26 14:52:00,
2013-02-26 09:53:00,40.1,37.7,29.52,SE,138,6.0,12.0,91,0.05,,---,0.28,VWS V14.01,2013-02-26 14:53:00,
2013-02-26 09:54:00,41.9,39.8,29.50,SE,140,4.0,11.0,92,0.05,,---,0.33,VWS V14.01,2013-02-26 14:54:00,
2013-02-26 09:55:00,41.9,39.8,29.50,SE,124,4.0,7.0,92,0.05,,---,0.33,VWS V14.01,2013-02-26 14:55:00,
2013-02-26 09:56:00,41.9,39.8,29.50,ESE,120,6.0,8.0,92,0.05,,---,0.33,VWS V14.01,2013-02-26 14:56:00,
2013-02-26 09:57:00,42.0,39.8,29.49,ESE,111,4.0,6.0,92,0.05,,---,0.33,VWS V14.01,2013-02-26 14:57:00,
2013-02-26 09:58:00,42.0,39.8,29.49,SSE,159,4.0,11.0,92,0.05,,---,0.33,VWS V14.01,2013-02-26 14:58:00,
2013-02-26 09:59:00,40.3,37.9,29.52,ESE,118,14.0,14.0,91,0.04,,---,0.28,VWS V14.01,2013-02-26 14:59:00,
2013-02-26 10:01:00,42.1,40.0,29.50,SE,130,4.0,9.0,92,0.05,,---,0.33,VWS V14.01,2013-02-26 15:01:00,
2013-02-26 10:02:00,42.1,40.0,29.50,SE,140,0.0,6.0,92,0.05,,---,0.33,VWS V14.01,2013-02-26 15:02:00,
2013-02-26 10:03:00,42.1,40.0,29.49,ESE,115,5.0,9.0,92,0.05,,---,0.33,VWS V14.01,2013-02-26 15:03:00,
2013-02-26 10:04:00,40.5,38.1,29.52,SE,132,2.0,11.0,91,0.05,,---,0.29,VWS V14.01,2013-02-26 15:04:00,
2013-02-26 10:05:00,42.2,40.0,29.50,SE,140,6.0,9.0,92,0.04,,---,0.33,VWS V14.01,2013-02-26 15:05:00,
2013-02-26 10:07:00,42.2,40.0,29.50,ESE,109,4.0,7.0,92,0.04,,---,0.33,VWS V14.01,2013-02-26 15:07:00,
2013-02-26 10:08:00,42.2,40.0,29.50,ESE,118,5.0,13.0,92,0.04,,---,0.33,VWS V14.01,2013-02-26 15:08:00,
2013-02-26 10:09:00,40.7,38.3,29.51,SE,146,6.0,12.0,91,0.05,,---,0.29,VWS V14.01,2013-02-26 15:09:00,
2013-02-26 10:10:00,42.3,40.2,29.49,SE,133,4.0,5.0,92,0.04,,---,0.33,VWS V14.01,2013-02-26 15:10:00,
2013-02-26 10:11:00,42.3,40.2,29.49,SE,138,5.0,10.0,92,0.04,,---,0.33,VWS V14.01,2013-02-26 15:11:00,
2013-02-26 10:12:00,42.3,40.2,29.50,SSE,167,1.0,6.0,92,0.05,,---,0.34,VWS V14.01,2013-02-26 15:12:00,
2013-02-26 10:13:00,42.4,40.2,29.50,SE,135,9.0,11.0,92,0.04,,---,0.34,VWS V14.01,2013-02-26 15:13:00,
2013-02-26 10:14:00,40.7,38.3,29.50,ESE,123,4.0,14.0,91,0.05,,---,0.30,VWS V14.01,2013-02-26 15:14:00,
2013-02-26 10:15:00,42.4,40.2,29.50,ENE,71,6.0,8.0,92,0.04,,---,0.34,VWS V14.01,2013-02-26 15:15:00,
2013-02-26 10:16:00,42.4,40.2,29.49,ESE,111,2.0,8.0,92,0.03,,---,0.34,VWS V14.01,2013-02-26 15:16:00,
2013-02-26 10:17:00,42.4,40.2,29.49,East,94,0.0,5.0,92,0.03,,---,0.34,VWS V14.01,2013-02-26 15:17:00,
2013-02-26 10:18:00,42.4,40.2,29.49,SE,128,5.0,7.0,92,0.02,,---,0.34,VWS V14.01,2013-02-26 15:18:00,
2013-02-26 10:19:00,40.7,38.6,29.50,ESE,121,4.0,8.0,92,0.07,,---,0.33,VWS V14.01,2013-02-26 15:19:00,
2013-02-26 10:20:00,42.5,40.6,29.49,East,88,0.0,4.0,93,0.02,,---,0.35,VWS V14.01,2013-02-26 15:20:00,
2013-02-26 10:21:00,42.5,40.3,29.49,SE,145,8.0,8.0,92,0.02,,---,0.35,VWS V14.01,2013-02-26 15:21:00,
2013-02-26 10:22:00,42.5,40.6,29.49,ESE,116,0.0,9.0,93,0.02,,---,0.35,VWS V14.01,2013-02-26 15:22:00,
2013-02-26 10:23:00,42.6,40.7,29.49,ESE,120,0.0,5.0,93,0.02,,---,0.35,VWS V14.01,2013-02-26 15:23:00,
2013-02-26 10:24:00,40.7,38.6,29.50,SE,143,4.0,11.0,92,0.06,,---,0.33,VWS V14.01,2013-02-26 15:24:00,
2013-02-26 10:25:00,42.6,40.7,29.49,SE,132,5.0,6.0,93,0.02,,---,0.35,VWS V14.01,2013-02-26 15:25:00,
2013-02-26 10:26:00,42.6,40.7,29.49,ESE,123,5.0,6.0,93,0.02,,---,0.35,VWS V14.01,2013-02-26 15:26:00,
2013-02-26 10:27:00,42.6,40.7,29.49,SE,142,5.0,5.0,93,0.02,,---,0.35,VWS V14.01,2013-02-26 15:27:00,
2013-02-26 10:28:00,42.7,40.8,29.49,ESE,103,0.0,7.0,93,0.02,,---,0.35,VWS V14.01,2013-02-26 15:28:00,
2013-02-26 10:29:00,42.7,40.8,29.50,ESE,118,2.0,8.0,93,0.02,,---,0.35,VWS V14.01,2013-02-26 15:29:00,
2013-02-26 10:30:00,40.9,39.0,29.50,SE,131,6.0,6.0,93,0.05,,---,0.33,VWS V14.01,2013-02-26 15:30:00,
2013-02-26 10:31:00,42.8,40.9,29.49,SE,135,4.0,8.0,93,0.02,,---,0.35,VWS V14.01,2013-02-26 15:31:00,
2013-02-26 10:32:00,42.8,40.9,29.49,ENE,71,0.0,5.0,93,0.02,,---,0.35,VWS V14.01,2013-02-26 15:32:00,
2013-02-26 10:33:00,42.9,41.0,29.49,East,80,1.0,1.0,93,0.02,,---,0.35,VWS V14.01,2013-02-26 15:33:00,
2013-02-26 10:34:00,42.9,41.0,29.49,SSE,156,1.0,4.0,93,0.02,,---,0.35,VWS V14.01,2013-02-26 15:34:00,
2013-02-26 10:35:00,41.2,39.3,29.50,SSE,159,8.0,9.0,93,0.05,,---,0.33,VWS V14.01,2013-02-26 15:35:00,
2013-02-26 10:36:00,43.0,41.1,29.49,SE,130,0.0,5.0,93,0.02,,---,0.35,VWS V14.01,2013-02-26 15:36:00,
2013-02-26 10:37:00,43.0,41.1,29.49,SE,140,4.0,6.0,93,0.02,,---,0.35,VWS V14.01,2013-02-26 15:37:00,
2013-02-26 10:38:00,43.0,41.1,29.49,SE,133,2.0,6.0,93,0.02,,---,0.35,VWS V14.01,2013-02-26 15:38:00,
2013-02-26 10:39:00,43.1,41.2,29.49,SE,126,0.0,4.0,93,0.02,,---,0.35,VWS V14.01,2013-02-26 15:39:00,
2013-02-26 10:40:00,41.4,39.5,29.50,SE,140,10.0,13.0,93,0.05,,---,0.33,VWS V14.01,2013-02-26 15:40:00,
2013-02-26 10:41:00,43.1,41.2,29.49,SE,137,1.0,5.0,93,0.02,,---,0.35,VWS V14.01,2013-02-26 15:41:00,
2013-02-26 10:42:00,43.1,41.2,29.49,SE,124,1.0,7.0,93,0.02,,---,0.35,VWS V14.01,2013-02-26 15:42:00,
2013-02-26 10:43:00,43.2,41.3,29.49,SE,142,1.0,8.0,93,0.02,,---,0.35,VWS V14.01,2013-02-26 15:43:00,
2013-02-26 10:44:00,43.1,41.2,29.49,SE,127,7.0,7.0,93,0.02,,---,0.35,VWS V14.01,2013-02-26 15:44:00,
2013-02-26 10:45:00,41.6,39.7,29.50,SSE,159,2.0,4.0,93,0.05,,---,0.33,VWS V14.01,2013-02-26 15:45:00,
2013-02-26 10:46:00,43.2,41.3,29.49,SE,130,4.0,6.0,93,0.02,,---,0.35,VWS V14.01,2013-02-26 15:46:00,
2013-02-26 10:47:00,43.2,41.3,29.49,SE,143,2.0,6.0,93,0.02,,---,0.35,VWS V14.01,2013-02-26 15:47:00,
2013-02-26 10:48:00,43.2,41.3,29.49,ESE,106,2.0,5.0,93,0.02,,---,0.35,VWS V14.01,2013-02-26 15:48:00,
2013-02-26 10:49:00,43.2,41.3,29.49,SE,131,2.0,8.0,93,0.02,,---,0.35,VWS V14.01,2013-02-26 15:49:00,
2013-02-26 10:50:00,41.8,39.7,29.50,SSE,157,2.0,13.0,92,0.05,,---,0.33,VWS V14.01,2013-02-26 15:50:00,
2013-02-26 10:51:00,43.2,41.3,29.49,ESE,117,0.0,9.0,93,0.02,,---,0.35,VWS V14.01,2013-02-26 15:51:00,
2013-02-26 10:52:00,43.3,41.4,29.48,ESE,122,1.0,5.0,93,0.03,,---,0.36,VWS V14.01,2013-02-26 15:52:00,
2013-02-26 10:53:00,43.3,41.4,29.48,SE,135,6.0,6.0,93,0.03,,---,0.36,VWS V14.01,2013-02-26 15:53:00,
2013-02-26 10:54:00,43.3,41.4,29.49,SE,142,0.0,6.0,93,0.04,,---,0.37,VWS V14.01,2013-02-26 15:54:00,
2013-02-26 10:55:00,41.9,39.8,29.50,SE,124,4.0,7.0,92,0.05,,---,0.33,VWS V14.01,2013-02-26 15:55:00,
2013-02-26 10:56:00,43.3,41.4,29.49,SSE,147,2.0,2.0,93,0.05,,---,0.38,VWS V14.01,2013-02-26 15:56:00,
2013-02-26 10:57:00,43.3,41.4,29.49,SE,140,4.0,5.0,93,0.05,,---,0.38,VWS V14.01,2013-02-26 15:57:00,
2013-02-26 10:58:00,43.3,41.7,29.49,East,98,2.0,5.0,94,0.06,,---,0.39,VWS V14.01,2013-02-26 15:58:00,
2013-02-26 10:59:00,43.3,41.7,29.48,SE,134,4.0,8.0,94,0.06,,---,0.39,VWS V14.01,2013-02-26 15:59:00,
2013-02-26 11:00:00,42.0,39.8,29.49,SE,143,6.0,11.0,92,0.05,,---,0.33,VWS V14.01,2013-02-26 16:00:00,
2013-02-26 11:01:00,43.3,41.7,29.48,ESE,123,4.0,5.0,94,0.08,,---,0.41,VWS V14.01,2013-02-26 16:01:00,
2013-02-26 11:02:00,43.3,41.7,29.47,SE,132,6.0,7.0,94,0.09,,---,0.42,VWS V14.01,2013-02-26 16:02:00,
2013-02-26 11:03:00,43.3,41.7,29.47,SE,135,2.0,6.0,94,0.10,,---,0.43,VWS V14.01,2013-02-26 16:03:00,
2013-02-26 11:04:00,43.4,41.8,29.47,SE,132,0.0,2.0,94,0.11,,---,0.44,VWS V14.01,2013-02-26 16:04:00,
2013-02-26 11:05:00,42.2,40.0,29.50,SE,140,6.0,9.0,92,0.04,,---,0.33,VWS V14.01,2013-02-26 16:05:00,
2013-02-26 11:07:00,43.4,41.8,29.47,SE,145,6.0,7.0,94,0.12,,---,0.45,VWS V14.01,2013-02-26 16:07:00,
2013-02-26 11:09:00,43.4,41.8,29.48,ESE,111,1.0,8.0,94,0.12,,---,0.45,VWS V14.01,2013-02-26 16:09:00,
2013-02-26 11:10:00,42.3,40.2,29.49,SE,133,4.0,5.0,92,0.04,,---,0.33,VWS V14.01,2013-02-26 16:10:00,
2013-02-26 11:11:00,43.5,41.9,29.47,SE,127,0.0,4.0,94,0.13,,---,0.46,VWS V14.01,2013-02-26 16:11:00,
2013-02-26 11:12:00,43.6,42.0,29.47,ESE,103,6.0,8.0,94,0.13,,---,0.46,VWS V14.01,2013-02-26 16:12:00,
2013-02-26 11:13:00,43.6,42.0,29.47,ESE,107,2.0,6.0,94,0.12,,---,0.46,VWS V14.01,2013-02-26 16:13:00,
2013-02-26 11:14:00,43.6,42.3,29.47,SSE,148,2.0,5.0,95,0.12,,---,0.46,VWS V14.01,2013-02-26 16:14:00,
2013-02-26 11:15:00,42.4,40.2,29.50,ENE,71,6.0,8.0,92,0.04,,---,0.34,VWS V14.01,2013-02-26 16:15:00,
2013-02-26 11:16:00,43.7,42.4,29.47,SE,125,5.0,9.0,95,0.12,,---,0.46,VWS V14.01,2013-02-26 16:16:00,
2013-02-26 11:17:00,43.8,42.5,29.47,SE,124,4.0,9.0,95,0.12,,---,0.46,VWS V14.01,2013-02-26 16:17:00,
2013-02-26 11:18:00,43.9,42.6,29.47,South,180,4.0,6.0,95,0.12,,---,0.46,VWS V14.01,2013-02-26 16:18:00,
2013-02-26 11:19:00,44.0,42.7,29.47,SE,142,1.0,12.0,95,0.12,,---,0.46,VWS V14.01,2013-02-26 16:19:00,
2013-02-26 11:20:00,42.5,40.6,29.49,East,88,0.0,4.0,93,0.02,,---,0.35,VWS V14.01,2013-02-26 16:20:00,
2013-02-26 11:21:00,44.1,42.8,29.47,ESE,114,4.0,8.0,95,0.11,,---,0.46,VWS V14.01,2013-02-26 16:21:00,
2013-02-26 11:22:00,44.2,42.9,29.47,SE,140,1.0,9.0,95,0.11,,---,0.46,VWS V14.01,2013-02-26 16:22:00,
2013-02-26 11:24:00,44.4,43.1,29.46,ESE,115,2.0,7.0,95,0.11,,---,0.46,VWS V14.01,2013-02-26 16:24:00,
2013-02-26 11:25:00,42.6,40.7,29.49,SE,132,5.0,6.0,93,0.02,,---,0.35,VWS V14.01,2013-02-26 16:25:00,
2013-02-26 11:26:00,44.5,43.2,29.46,ESE,115,7.0,8.0,95,0.11,,---,0.46,VWS V14.01,2013-02-26 16:26:00,
2013-02-26 11:27:00,44.7,43.4,29.46,SE,142,4.0,7.0,95,0.11,,---,0.46,VWS V14.01,2013-02-26 16:27:00,
2013-02-26 11:28:00,44.7,43.4,29.46,ESE,102,2.0,8.0,95,0.11,,---,0.46,VWS V14.01,2013-02-26 16:28:00,
2013-02-26 11:29:00,44.9,43.8,29.46,ESE,117,0.0,7.0,96,0.11,,---,0.46,VWS V14.01,2013-02-26 16:29:00,
2013-02-26 11:30:00,42.7,40.8,29.49,SE,136,7.0,9.0,93,0.02,,---,0.35,VWS V14.01,2013-02-26 16:30:00,
2013-02-26 11:31:00,45.0,43.9,29.46,ESE,114,1.0,8.0,96,0.11,,---,0.46,VWS V14.01,2013-02-26 16:31:00,
2013-02-26 11:32:00,45.1,44.0,29.46,SE,143,7.0,11.0,96,0.11,,---,0.46,VWS V14.01,2013-02-26 16:32:00,
2013-02-26 11:33:00,45.2,44.1,29.46,SSE,161,7.0,10.0,96,0.11,,---,0.46,VWS V14.01,2013-02-26 16:33:00,
2013-02-26 11:34:00,45.2,44.1,29.45,SSE,149,6.0,11.0,96,0.11,,---,0.46,VWS V14.01,2013-02-26 16:34:00,
2013-02-26 11:35:00,42.9,41.0,29.49,SSE,150,2.0,4.0,93,0.02,,---,0.35,VWS V14.01,2013-02-26 16:35:00,
2013-02-26 11:36:00,45.4,44.3,29.45,SE,140,5.0,7.0,96,0.11,,---,0.46,VWS V14.01,2013-02-26 16:36:00,
2013-02-26 11:37:00,45.5,44.4,29.45,SSE,156,7.0,7.0,96,0.11,,---,0.46,VWS V14.01,2013-02-26 16:37:00,
2013-02-26 11:38:00,45.6,44.5,29.45,ESE,105,5.0,9.0,96,0.11,,---,0.46,VWS V14.01,2013-02-26 16:38:00,
2013-02-26 11:39:00,45.6,44.5,29.45,SE,132,4.0,11.0,96,0.11,,---,0.46,VWS V14.01,2013-02-26 16:39:00,
2013-02-26 11:40:00,43.1,41.2,29.49,ESE,122,4.0,4.0,93,0.02,,---,0.35,VWS V14.01,2013-02-26 16:40:00,
2013-02-26 11:41:00,45.8,44.7,29.45,SE,125,11.0,12.0,96,0.11,,---,0.46,VWS V14.01,2013-02-26 16:41:00,
2013-02-26 11:42:00,45.9,44.5,29.45,ESE,121,6.0,12.0,95,0.11,,---,0.46,VWS V14.01,2013-02-26 16:42:00,
2013-02-26 11:43:00,45.9,44.8,29.45,ESE,123,2.0,9.0,96,0.11,,---,0.46,VWS V14.01,2013-02-26 16:43:00,
2013-02-26 11:44:00,46.0,44.9,29.45,SSE,161,1.0,13.0,96,0.11,,---,0.46,VWS V14.01,2013-02-26 16:44:00,
2013-02-26 11:45:00,43.1,41.2,29.49,SE,132,6.0,7.0,93,0.02,,---,0.35,VWS V14.01,2013-02-26 16:45:00,
2013-02-26 11:46:00,46.1,44.8,29.45,SE,126,7.0,9.0,95,0.11,,---,0.46,VWS V14.01,2013-02-26 16:46:00,
2013-02-26 11:47:00,46.2,44.8,29.44,South,175,4.0,7.0,95,0.11,,---,0.46,VWS V14.01,2013-02-26 16:47:00,
2013-02-26 11:48:00,46.2,44.8,29.44,ESE,123,11.0,11.0,95,0.11,,---,0.46,VWS V14.01,2013-02-26 16:48:00,
2013-02-26 11:49:00,46.3,45.0,29.44,ESE,112,11.0,13.0,95,0.11,,---,0.46,VWS V14.01,2013-02-26 16:49:00,
2013-02-26 11:50:00,43.2,41.3,29.49,ESE,121,2.0,5.0,93,0.02,,---,0.35,VWS V14.01,2013-02-26 16:50:00,
2013-02-26 11:51:00,46.4,45.0,29.44,SE,136,4.0,9.0,95,0.11,,---,0.46,VWS V14.01,2013-02-26 16:51:00,
2013-02-26 11:52:00,46.5,45.2,29.44,SE,126,2.0,5.0,95,0.11,,---,0.46,VWS V14.01,2013-02-26 16:52:00,
2013-02-26 11:55:00,43.3,41.4,29.49,SSE,163,1.0,4.0,93,0.04,,---,0.37,VWS V14.01,2013-02-26 16:55:00,
2013-02-26 11:56:00,46.7,45.3,29.44,ESE,123,6.0,8.0,95,0.10,,---,0.47,VWS V14.01,2013-02-26 16:56:00,
2013-02-26 11:57:00,46.7,45.3,29.44,SSE,151,8.0,13.0,95,0.09,,---,0.47,VWS V14.01,2013-02-26 16:57:00,
2013-02-26 11:58:00,46.7,45.3,29.44,SE,146,5.0,12.0,95,0.09,,---,0.47,VWS V14.01,2013-02-26 16:58:00,
2013-02-26 11:59:00,46.7,45.1,29.44,South,180,1.0,8.0,94,0.08,,---,0.47,VWS V14.01,2013-02-26 16:59:00,
2013-02-26 12:00:00,43.3,41.7,29.48,ESE,117,0.0,5.0,94,0.08,,---,0.41,VWS V14.01,2013-02-26 17:00:00,
2013-02-26 12:02:00,46.7,45.1,29.43,ESE,115,0.0,4.0,94,0.06,,---,0.47,VWS V14.01,2013-02-26 17:02:00,
2013-02-26 12:03:00,46.8,45.2,29.43,SE,128,8.0,8.0,94,0.05,,---,0.47,VWS V14.01,2013-02-26 17:03:00,
2013-02-26 12:04:00,46.8,45.5,29.43,ESE,119,4.0,12.0,95,0.04,,---,0.47,VWS V14.01,2013-02-26 17:04:00,
2013-02-26 12:05:00,43.4,41.8,29.47,SE,131,4.0,4.0,94,0.11,,---,0.44,VWS V14.01,2013-02-26 17:05:00,
2013-02-26 12:06:00,46.8,45.2,29.43,ESE,109,2.0,7.0,94,0.03,,---,0.47,VWS V14.01,2013-02-26 17:06:00,
2013-02-26 12:07:00,46.8,45.2,29.43,ESE,115,6.0,9.0,94,0.02,,---,0.47,VWS V14.01,2013-02-26 17:07:00,
2013-02-26 12:08:00,46.8,45.2,29.43,SE,140,5.0,11.0,94,0.03,,---,0.48,VWS V14.01,2013-02-26 17:08:00,
2013-02-26 12:09:00,46.8,45.2,29.43,SE,140,5.0,6.0,94,0.03,,---,0.48,VWS V14.01,2013-02-26 17:09:00,
2013-02-26 12:10:00,43.5,41.9,29.48,SE,140,4.0,4.0,94,0.12,,---,0.45,VWS V14.01,2013-02-26 17:10:00,
2013-02-26 12:11:00,46.8,45.2,29.43,ESE,115,5.0,8.0,94,0.03,,---,0.48,VWS V14.01,2013-02-26 17:11:00,
2013-02-26 12:12:00,46.8,45.2,29.43,SE,146,1.0,5.0,94,0.02,,---,0.48,VWS V14.01,2013-02-26 17:12:00,
2013-02-26 12:13:00,46.8,45.2,29.43,SE,128,8.0,8.0,94,0.02,,---,0.48,VWS V14.01,2013-02-26 17:13:00,
2013-02-26 12:14:00,46.8,45.2,29.42,SSE,152,6.0,12.0,94,0.02,,---,0.48,VWS V14.01,2013-02-26 17:14:00,
2013-02-26 12:15:00,43.7,42.4,29.47,SE,141,4.0,5.0,95,0.12,,---,0.46,VWS V14.01,2013-02-26 17:15:00,
2013-02-26 12:16:00,46.8,45.2,29.42,SSE,148,6.0,7.0,94,0.02,,---,0.48,VWS V14.01,2013-02-26 17:16:00,
2013-02-26 12:17:00,46.8,45.2,29.42,SE,131,9.0,9.0,94,0.02,,---,0.48,VWS V14.01,2013-02-26 17:17:00,
2013-02-26 12:18:00,46.7,45.1,29.42,ESE,109,1.0,10.0,94,0.02,,---,0.48,VWS V14.01,2013-02-26 17:18:00,
2013-02-26 12:19:00,46.7,45.1,29.42,SSE,149,7.0,7.0,94,0.02,,---,0.48,VWS V14.01,2013-02-26 17:19:00,
2013-02-26 12:20:00,44.0,42.7,29.47,SE,138,5.0,8.0,95,0.11,,---,0.46,VWS V14.01,2013-02-26 17:20:00,
2013-02-26 12:21:00,46.7,45.1,29.42,East,93,4.0,7.0,94,0.03,,---,0.49,VWS V14.01,2013-02-26 17:21:00,
2013-02-26 12:22:00,46.7,45.1,29.42,SSE,147,5.0,11.0,94,0.03,,---,0.49,VWS V14.01,2013-02-26 17:22:00,
2013-02-26 12:23:00,46.7,45.1,29.42,SSE,157,7.0,14.0,94,0.03,,---,0.49,VWS V14.01,2013-02-26 17:23:00,
2013-02-26 12:24:00,46.7,45.1,29.42,SE,135,5.0,16.0,94,0.03,,---,0.49,VWS V14.01,2013-02-26 17:24:00,
2013-02-26 12:25:00,44.5,43.2,29.46,ESE,122,0.0,6.0,95,0.11,,---,0.46,VWS V14.01,2013-02-26 17:25:00,
2013-02-26 12:26:00,46.7,45.1,29.42,SE,144,2.0,6.0,94,0.03,,---,0.49,VWS V14.01,2013-02-26 17:26:00,
2013-02-26 12:27:00,46.7,45.1,29.42,SE,138,4.0,6.0,94,0.03,,---,0.49,VWS V14.01,2013-02-26 17:27:00,
2013-02-26 12:28:00,46.7,45.1,29.42,SE,126,2.0,6.0,94,0.03,,---,0.49,VWS V14.01,2013-02-26 17:28:00,
2013-02-26 12:29:00,46.7,45.1,29.42,SE,130,1.0,4.0,94,0.04,,---,0.50,VWS V14.01,2013-02-26 17:29:00,
2013-02-26 12:30:00,44.9,43.8,29.46,SE,127,7.0,8.0,96,0.11,,---,0.46,VWS V14.01,2013-02-26 17:30:00,
2013-02-26 12:31:00,46.7,45.1,29.42,SSE,151,6.0,9.0,94,0.04,,---,0.50,VWS V14.01,2013-02-26 17:31:00,
2013-02-26 12:32:00,46.8,45.2,29.42,ESE,120,1.0,6.0,94,0.04,,---,0.50,VWS V14.01,2013-02-26 17:32:00,
2013-02-26 12:33:00,46.8,45.2,29.42,SE,140,2.0,2.0,94,0.04,,---,0.50,VWS V14.01,2013-02-26 17:33:00,
2013-02-26 12:34:00,46.8,45.5,29.42,ESE,111,0.0,5.0,95,0.04,,---,0.50,VWS V14.01,2013-02-26 17:34:00,
2013-02-26 12:35:00,45.3,44.2,29.45,ESE,119,2.0,9.0,96,0.11,,---,0.46,VWS V14.01,2013-02-26 17:35:00,
2013-02-26 12:36:00,46.9,45.5,29.42,SSE,155,2.0,9.0,95,0.04,,---,0.50,VWS V14.01,2013-02-26 17:36:00,
2013-02-26 12:37:00,46.9,45.5,29.42,SE,129,7.0,7.0,95,0.04,,---,0.50,VWS V14.01,2013-02-26 17:37:00,
2013-02-26 12:38:00,46.9,45.5,29.42,ESE,117,8.0,9.0,95,0.04,,---,0.50,VWS V14.01,2013-02-26 17:38:00,
2013-02-26 12:39:00,46.9,45.5,29.42,SSE,159,4.0,8.0,95,0.04,,---,0.50,VWS V14.01,2013-02-26 17:39:00,
2013-02-26 12:40:00,45.7,44.6,29.45,SE,134,6.0,11.0,96,0.11,,---,0.46,VWS V14.01,2013-02-26 17:40:00,
2013-02-26 12:41:00,47.0,45.7,29.41,ESE,114,4.0,8.0,95,0.04,,---,0.50,VWS V14.01,2013-02-26 17:41:00,
2013-02-26 12:42:00,47.1,45.7,29.41,SE,136,4.0,5.0,95,0.04,,---,0.50,VWS V14.01,2013-02-26 17:42:00,
2013-02-26 12:43:00,47.1,45.7,29.41,ESE,119,4.0,6.0,95,0.04,,---,0.50,VWS V14.01,2013-02-26 17:43:00,
2013-02-26 12:44:00,47.2,45.8,29.41,ESE,111,7.0,8.0,95,0.04,,---,0.50,VWS V14.01,2013-02-26 17:44:00,
2013-02-26 12:45:00,46.0,44.7,29.45,SE,134,6.0,8.0,95,0.11,,---,0.46,VWS V14.01,2013-02-26 17:45:00,
2013-02-26 12:46:00,47.2,45.8,29.41,ESE,116,0.0,6.0,95,0.04,,---,0.50,VWS V14.01,2013-02-26 17:46:00,
2013-02-26 12:47:00,47.2,45.8,29.41,SE,137,4.0,6.0,95,0.04,,---,0.50,VWS V14.01,2013-02-26 17:47:00,
2013-02-26 12:48:00,47.2,45.8,29.41,SE,140,2.0,6.0,95,0.04,,---,0.50,VWS V14.01,2013-02-26 17:48:00,
2013-02-26 12:49:00,47.2,45.8,29.41,SSE,164,0.0,2.0,95,0.04,,---,0.50,VWS V14.01,2013-02-26 17:49:00,
2013-02-26 12:50:00,46.4,45.0,29.44,SE,139,8.0,11.0,95,0.11,,---,0.46,VWS V14.01,2013-02-26 17:50:00,
2013-02-26 12:51:00,47.3,45.9,29.41,SE,144,0.0,4.0,95,0.04,,---,0.50,VWS V14.01,2013-02-26 17:51:00,
2013-02-26 12:52:00,47.3,45.9,29.41,ESE,121,5.0,7.0,95,0.04,,---,0.50,VWS V14.01,2013-02-26 17:52:00,
2013-02-26 12:53:00,47.3,45.9,29.41,ESE,105,4.0,8.0,95,0.04,,---,0.50,VWS V14.01,2013-02-26 17:53:00,
2013-02-26 12:54:00,47.3,45.9,29.41,SE,140,7.0,8.0,95,0.03,,---,0.50,VWS V14.01,2013-02-26 17:54:00,
2013-02-26 12:55:00,46.7,45.3,29.44,ESE,119,8.0,11.0,95,0.10,,---,0.47,VWS V14.01,2013-02-26 17:55:00,
2013-02-26 12:56:00,47.3,45.9,29.41,SE,132,2.0,4.0,95,0.04,,---,0.51,VWS V14.01,2013-02-26 17:56:00,
2013-02-26 12:57:00,47.3,45.9,29.41,SE,132,0.0,4.0,95,0.04,,---,0.51,VWS V14.01,2013-02-26 17:57:00,
2013-02-26 12:58:00,47.3,45.9,29.41,South,169,6.0,6.0,95,0.04,,---,0.51,VWS V14.01,2013-02-26 17:58:00,
2013-02-26 12:59:00,47.4,46.0,29.41,SE,136,2.0,10.0,95,0.04,,---,0.51,VWS V14.01,2013-02-26 17:59:00,
2013-02-26 13:00:00,46.7,45.1,29.44,ESE,118,5.0,7.0,94,0.08,,---,0.47,VWS V14.01,2013-02-26 18:00:00,
2013-02-26 13:01:00,47.4,46.0,29.41,SSE,153,4.0,7.0,95,0.04,,---,0.51,VWS V14.01,2013-02-26 18:01:00,
2013-02-26 13:02:00,47.4,46.0,29.40,SE,127,4.0,4.0,95,0.05,,---,0.52,VWS V14.01,2013-02-26 18:02:00,
2013-02-26 13:03:00,47.4,46.0,29.40,ESE,122,6.0,6.0,95,0.05,,---,0.52,VWS V14.01,2013-02-26 18:03:00,
2013-02-26 13:04:00,47.4,46.0,29.40,East,100,5.0,6.0,95,0.05,,---,0.52,VWS V14.01,2013-02-26 18:04:00,
2013-02-26 13:05:00,46.8,45.5,29.43,ESE,113,5.0,9.0,95,0.03,,---,0.47,VWS V14.01,2013-02-26 18:05:00,
2013-02-26 13:06:00,47.4,46.0,29.40,SE,130,5.0,6.0,95,0.05,,---,0.52,VWS V14.01,2013-02-26 18:06:00,
2013-02-26 13:07:00,47.5,46.1,29.40,ESE,122,2.0,5.0,95,0.05,,---,0.52,VWS V14.01,2013-02-26 18:07:00,
2013-02-26 13:08:00,47.5,46.1,29.40,SE,124,2.0,6.0,95,0.05,,---,0.52,VWS V14.01,2013-02-26 18:08:00,
2013-02-26 13:09:00,47.5,46.1,29.40,ENE,76,2.0,6.0,95,0.04,,---,0.52,VWS V14.01,2013-02-26 18:09:00,
2013-02-26 13:10:00,46.8,45.2,29.43,ESE,117,8.0,8.0,94,0.03,,---,0.48,VWS V14.01,2013-02-26 18:10:00,
2013-02-26 13:11:00,47.5,46.1,29.40,East,92,2.0,5.0,95,0.05,,---,0.53,VWS V14.01,2013-02-26 18:11:00,
2013-02-26 13:12:00,47.6,46.2,29.39,ESE,123,4.0,5.0,95,0.05,,---,0.53,VWS V14.01,2013-02-26 18:12:00,
2013-02-26 13:13:00,47.6,46.2,29.40,SSE,165,1.0,4.0,95,0.05,,---,0.53,VWS V14.01,2013-02-26 18:13:00,
2013-02-26 13:14:00,47.6,46.2,29.40,SSE,159,1.0,1.0,95,0.05,,---,0.53,VWS V14.01,2013-02-26 18:14:00,
2013-02-26 13:15:00,46.7,45.1,29.42,SE,125,4.0,7.0,94,0.02,,---,0.48,VWS V14.01,2013-02-26 18:15:00,
2013-02-26 13:16:00,47.6,46.2,29.40,ESE,109,4.0,5.0,95,0.05,,---,0.53,VWS V14.01,2013-02-26 18:16:00,
2013-02-26 13:17:00,47.7,46.3,29.40,SE,132,0.0,5.0,95,0.05,,---,0.53,VWS V14.01,2013-02-26 18:17:00,
2013-02-26 13:18:00,47.7,46.6,29.40,SE,134,0.0,1.0,96,0.05,,---,0.53,VWS V14.01,2013-02-26 18:18:00,
2013-02-26 13:19:00,47.7,46.6,29.40,SE,138,9.0,9.0,96,0.05,,---,0.53,VWS V14.01,2013-02-26 18:19:00,
2013-02-26 13:20:00,46.7,45.1,29.42,SE,126,4.0,9.0,94,0.03,,---,0.49,VWS V14.01,2013-02-26 18:20:00,
2013-02-26 13:21:00,47.7,46.6,29.39,ESE,119,7.0,7.0,96,0.04,,---,0.53,VWS V14.01,2013-02-26 18:21:00,
2013-02-26 13:22:00,47.8,46.7,29.39,ESE,120,4.0,7.0,96,0.04,,---,0.53,VWS V14.01,2013-02-26 18:22:00,
2013-02-26 13:23:00,47.8,46.7,29.39,SE,138,5.0,5.0,96,0.04,,---,0.53,VWS V14.01,2013-02-26 18:23:00,
2013-02-26 13:24:00,47.8,46.7,29.40,SE,128,2.0,5.0,96,0.04,,---,0.53,VWS V14.01,2013-02-26 18:24:00,
2013-02-26 13:25:00,46.7,45.1,29.42,SE,136,5.0,9.0,94,0.03,,---,0.49,VWS V14.01,2013-02-26 18:25:00,
2013-02-26 13:26:00,47.8,46.4,29.39,ESE,121,0.0,4.0,95,0.05,,---,0.54,VWS V14.01,2013-02-26 18:26:00,
2013-02-26 13:27:00,47.8,46.7,29.39,ESE,104,1.0,2.0,96,0.05,,---,0.54,VWS V14.01,2013-02-26 18:27:00,
2013-02-26 13:28:00,47.8,46.7,29.39,ESE,115,0.0,4.0,96,0.05,,---,0.54,VWS V14.01,2013-02-26 18:28:00,
2013-02-26 13:29:00,47.8,46.7,29.39,ESE,115,2.0,2.0,96,0.05,,---,0.54,VWS V14.01,2013-02-26 18:29:00,
2013-02-26 13:30:00,46.8,45.2,29.42,SE,130,8.0,9.0,94,0.04,,---,0.50,VWS V14.01,2013-02-26 18:30:00,
2013-02-26 13:31:00,47.9,46.8,29.39,South,173,1.0,5.0,96,0.04,,---,0.54,VWS V14.01,2013-02-26 18:31:00,
2013-02-26 13:32:00,47.9,46.8,29.39,SSE,151,2.0,5.0,96,0.04,,---,0.54,VWS V14.01,2013-02-26 18:32:00,
2013-02-26 13:33:00,47.9,46.8,29.39,SSE,149,1.0,2.0,96,0.04,,---,0.54,VWS V14.01,2013-02-26 18:33:00,
2013-02-26 13:34:00,47.9,46.8,29.39,SSE,150,1.0,4.0,96,0.04,,---,0.54,VWS V14.01,2013-02-26 18:34:00,
2013-02-26 13:35:00,46.8,45.5,29.42,SE,124,4.0,4.0,95,0.04,,---,0.50,VWS V14.01,2013-02-26 18:35:00,
2013-02-26 13:36:00,48.0,46.9,29.39,SE,140,5.0,6.0,96,0.04,,---,0.54,VWS V14.01,2013-02-26 18:36:00,
2013-02-26 13:37:00,47.9,46.8,29.39,SE,134,5.0,8.0,96,0.05,,---,0.55,VWS V14.01,2013-02-26 18:37:00,
2013-02-26 13:38:00,48.0,46.9,29.39,SSE,148,5.0,9.0,96,0.05,,---,0.55,VWS V14.01,2013-02-26 18:38:00,
2013-02-26 13:39:00,48.0,46.9,29.39,SE,128,4.0,8.0,96,0.05,,---,0.55,VWS V14.01,2013-02-26 18:39:00,
2013-02-26 13:40:00,47.0,45.7,29.41,SE,137,5.0,7.0,95,0.04,,---,0.50,VWS V14.01,2013-02-26 18:40:00,
2013-02-26 13:41:00,48.1,47.0,29.38,ESE,121,4.0,7.0,96,0.05,,---,0.55,VWS V14.01,2013-02-26 18:41:00,
2013-02-26 13:42:00,48.1,47.0,29.38,ESE,120,1.0,10.0,96,0.05,,---,0.55,VWS V14.01,2013-02-26 18:42:00,
2013-02-26 13:43:00,48.1,47.0,29.39,SSE,160,1.0,1.0,96,0.05,,---,0.55,VWS V14.01,2013-02-26 18:43:00,
2013-02-26 13:44:00,48.2,47.1,29.38,ESE,117,0.0,4.0,96,0.05,,---,0.55,VWS V14.01,2013-02-26 18:44:00,
2013-02-26 13:45:00,47.2,45.8,29.41,SE,136,5.0,8.0,95,0.04,,---,0.50,VWS V14.01,2013-02-26 18:45:00,
2013-02-26 13:46:00,48.3,47.2,29.38,South,174,4.0,6.0,96,0.05,,---,0.55,VWS V14.01,2013-02-26 18:46:00,
2013-02-26 13:47:00,48.3,47.2,29.39,SSW,213,3.0,5.0,96,0.05,,---,0.55,VWS V14.01,2013-02-26 18:47:00,
2013-02-26 13:48:00,48.3,47.2,29.39,SSW,213,0.0,4.0,96,0.05,,---,0.55,VWS V14.01,2013-02-26 18:48:00,
2013-02-26 13:49:00,48.3,47.2,29.39,SSW,213,0.0,0.0,96,0.05,,---,0.55,VWS V14.01,2013-02-26 18:49:00,
2013-02-26 13:50:00,47.2,45.8,29.41,SSE,164,0.0,2.0,95,0.04,,---,0.50,VWS V14.01,2013-02-26 18:50:00,
2013-02-26 13:51:00,48.3,47.2,29.39,SSW,196,2.0,4.0,96,0.05,,---,0.55,VWS V14.01,2013-02-26 18:51:00,
2013-02-26 13:52:00,48.4,47.3,29.39,SSE,165,2.0,5.0,96,0.05,,---,0.55,VWS V14.01,2013-02-26 18:52:00,
2013-02-26 13:53:00,48.3,47.2,29.39,SE,142,0.0,2.0,96,0.05,,---,0.55,VWS V14.01,2013-02-26 18:53:00,
2013-02-26 13:54:00,48.4,47.3,29.39,SE,142,0.0,0.0,96,0.05,,---,0.55,VWS V14.01,2013-02-26 18:54:00,
2013-02-26 13:55:00,47.3,45.9,29.41,ESE,114,1.0,7.0,95,0.03,,---,0.50,VWS V14.01,2013-02-26 18:55:00,
2013-02-26 13:56:00,48.4,47.3,29.39,SE,142,0.0,0.0,96,0.06,,---,0.56,VWS V14.01,2013-02-26 18:56:00,
2013-02-26 13:57:00,48.4,47.3,29.39,ESE,104,0.0,1.0,96,0.05,,---,0.56,VWS V14.01,2013-02-26 18:57:00,
2013-02-26 13:58:00,48.4,47.3,29.39,SSE,151,0.0,5.0,96,0.05,,---,0.56,VWS V14.01,2013-02-26 18:58:00,
2013-02-26 13:59:00,48.5,47.4,29.38,SSE,151,0.0,0.0,96,0.05,,---,0.56,VWS V14.01,2013-02-26 18:59:00,
2013-02-26 14:00:00,47.4,46.0,29.41,ESE,109,1.0,5.0,95,0.04,,---,0.51,VWS V14.01,2013-02-26 19:00:00,
2013-02-26 14:01:00,48.5,47.4,29.38,SE,135,2.0,10.0,96,0.05,,---,0.56,VWS V14.01,2013-02-26 19:01:00,
2013-02-26 14:02:00,48.5,47.4,29.38,ESE,112,1.0,6.0,96,0.05,,---,0.56,VWS V14.01,2013-02-26 19:02:00,
2013-02-26 14:03:00,48.5,47.4,29.39,SSE,153,1.0,4.0,96,0.05,,---,0.57,VWS V14.01,2013-02-26 19:03:00,
2013-02-26 14:04:00,48.5,47.4,29.39,South,181,2.0,5.0,96,0.05,,---,0.57,VWS V14.01,2013-02-26 19:04:00,
2013-02-26 14:05:00,47.4,46.0,29.40,ESE,114,1.0,6.0,95,0.05,,---,0.52,VWS V14.01,2013-02-26 19:05:00,
2013-02-26 14:06:00,48.5,47.4,29.39,South,188,2.0,4.0,96,0.05,,---,0.57,VWS V14.01,2013-02-26 19:06:00,
2013-02-26 14:07:00,48.5,47.4,29.39,South,188,2.0,2.0,96,0.06,,---,0.58,VWS V14.01,2013-02-26 19:07:00,
2013-02-26 14:08:00,48.5,47.4,29.39,SSE,161,1.0,5.0,96,0.06,,---,0.58,VWS V14.01,2013-02-26 19:08:00,
2013-02-26 14:09:00,48.5,47.4,29.39,SE,140,4.0,5.0,96,0.06,,---,0.58,VWS V14.01,2013-02-26 19:09:00,
2013-02-26 14:10:00,47.5,46.1,29.40,SE,125,5.0,7.0,95,0.05,,---,0.53,VWS V14.01,2013-02-26 19:10:00,
2013-02-26 14:11:00,48.5,47.4,29.38,SE,141,4.0,7.0,96,0.05,,---,0.58,VWS V14.01,2013-02-26 19:11:00,
2013-02-26 14:12:00,48.5,47.4,29.38,SSE,157,5.0,7.0,96,0.05,,---,0.58,VWS V14.01,2013-02-26 19:12:00,
2013-02-26 14:13:00,48.6,47.5,29.38,SE,146,5.0,10.0,96,0.05,,---,0.58,VWS V14.01,2013-02-26 19:13:00,
2013-02-26 14:14:00,48.6,47.5,29.38,SE,146,5.0,7.0,96,0.05,,---,0.58,VWS V14.01,2013-02-26 19:14:00,
2013-02-26 14:15:00,47.6,46.2,29.40,SSE,157,2.0,4.0,95,0.05,,---,0.53,VWS V14.01,2013-02-26 19:15:00,
2013-02-26 14:16:00,48.7,47.6,29.38,SE,134,6.0,13.0,96,0.05,,---,0.58,VWS V14.01,2013-02-26 19:16:00,
2013-02-26 14:17:00,48.7,47.6,29.38,SE,136,6.0,11.0,96,0.05,,---,0.58,VWS V14.01,2013-02-26 19:17:00,
2013-02-26 14:18:00,48.7,47.6,29.37,SE,130,8.0,8.0,96,0.05,,---,0.58,VWS V14.01,2013-02-26 19:18:00,
2013-02-26 14:19:00,48.8,47.7,29.37,SE,136,7.0,8.0,96,0.05,,---,0.58,VWS V14.01,2013-02-26 19:19:00,
2013-02-26 14:20:00,47.7,46.6,29.39,SE,137,4.0,9.0,96,0.05,,---,0.53,VWS V14.01,2013-02-26 19:20:00,
2013-02-26 14:21:00,48.8,47.7,29.37,SE,130,9.0,12.0,96,0.05,,---,0.58,VWS V14.01,2013-02-26 19:21:00,
2013-02-26 14:22:00,48.8,47.7,29.37,ESE,112,5.0,12.0,96,0.05,,---,0.58,VWS V14.01,2013-02-26 19:22:00,
2013-02-26 14:23:00,48.8,47.7,29.37,SE,130,8.0,8.0,96,0.05,,---,0.58,VWS V14.01,2013-02-26 19:23:00,
2013-02-26 14:24:00,48.9,47.8,29.37,SE,127,8.0,12.0,96,0.05,,---,0.58,VWS V14.01,2013-02-26 19:24:00,
2013-02-26 14:25:00,47.8,46.4,29.39,SE,129,1.0,2.0,95,0.05,,---,0.54,VWS V14.01,2013-02-26 19:25:00,
2013-02-26 14:26:00,48.9,47.8,29.37,ESE,120,9.0,11.0,96,0.04,,---,0.58,VWS V14.01,2013-02-26 19:26:00,
2013-02-26 14:27:00,49.0,47.9,29.37,SE,145,4.0,9.0,96,0.04,,---,0.58,VWS V14.01,2013-02-26 19:27:00,
2013-02-26 14:28:00,49.0,47.9,29.37,SSE,160,4.0,7.0,96,0.04,,---,0.58,VWS V14.01,2013-02-26 19:28:00,
2013-02-26 14:29:00,49.0,47.9,29.37,East,79,4.0,7.0,96,0.04,,---,0.58,VWS V14.01,2013-02-26 19:29:00,
2013-02-26 14:30:00,47.9,46.8,29.39,SE,127,4.0,4.0,96,0.04,,---,0.54,VWS V14.01,2013-02-26 19:30:00,
2013-02-26 14:31:00,49.0,47.9,29.37,SE,143,4.0,11.0,96,0.05,,---,0.59,VWS V14.01,2013-02-26 19:31:00,
2013-02-26 14:32:00,49.0,47.9,29.37,SE,145,7.0,11.0,96,0.05,,---,0.59,VWS V14.01,2013-02-26 19:32:00,
2013-02-26 14:33:00,49.0,47.9,29.37,SSE,159,5.0,7.0,96,0.05,,---,0.59,VWS V14.01,2013-02-26 19:33:00,
2013-02-26 14:34:00,49.0,47.9,29.37,SE,136,2.0,7.0,96,0.05,,---,0.59,VWS V14.01,2013-02-26 19:34:00,
2013-02-26 14:35:00,47.9,46.8,29.39,SSE,148,4.0,5.0,96,0.04,,---,0.54,VWS V14.01,2013-02-26 19:35:00,
2013-02-26 14:36:00,49.1,48.0,29.37,SE,129,5.0,7.0,96,0.05,,---,0.59,VWS V14.01,2013-02-26 19:36:00,
2013-02-26 14:37:00,49.1,48.0,29.37,SE,144,5.0,6.0,96,0.05,,---,0.59,VWS V14.01,2013-02-26 19:37:00,
2013-02-26 14:38:00,49.1,48.0,29.37,SE,133,2.0,5.0,96,0.04,,---,0.59,VWS V14.01,2013-02-26 19:38:00,
2013-02-26 14:39:00,49.1,48.0,29.37,SE,140,8.0,8.0,96,0.04,,---,0.59,VWS V14.01,2013-02-26 19:39:00,
2013-02-26 14:40:00,48.1,47.0,29.39,ESE,120,4.0,6.0,96,0.05,,---,0.55,VWS V14.01,2013-02-26 19:40:00,
2013-02-26 14:41:00,49.2,48.1,29.37,SE,136,8.0,8.0,96,0.04,,---,0.59,VWS V14.01,2013-02-26 19:41:00,
2013-02-26 14:42:00,49.2,48.1,29.37,SE,142,1.0,11.0,96,0.04,,---,0.59,VWS V14.01,2013-02-26 19:42:00,
2013-02-26 14:43:00,49.2,48.1,29.37,SE,128,6.0,7.0,96,0.04,,---,0.59,VWS V14.01,2013-02-26 19:43:00,
2013-02-26 14:44:00,49.2,48.1,29.37,SE,136,2.0,6.0,96,0.04,,---,0.59,VWS V14.01,2013-02-26 19:44:00,
2013-02-26 14:45:00,48.2,47.1,29.39,SSE,164,2.0,7.0,96,0.05,,---,0.55,VWS V14.01,2013-02-26 19:45:00,
2013-02-26 14:46:00,49.2,48.1,29.37,SE,146,4.0,4.0,96,0.04,,---,0.59,VWS V14.01,2013-02-26 19:46:00,
2013-02-26 14:47:00,49.3,48.2,29.37,SE,146,0.0,4.0,96,0.04,,---,0.59,VWS V14.01,2013-02-26 19:47:00,
2013-02-26 14:48:00,49.3,48.2,29.37,SSE,148,2.0,2.0,96,0.04,,---,0.59,VWS V14.01,2013-02-26 19:48:00,
2013-02-26 14:49:00,49.2,48.1,29.37,SE,143,1.0,4.0,96,0.04,,---,0.59,VWS V14.01,2013-02-26 19:49:00,
2013-02-26 14:50:00,48.3,47.2,29.39,South,173,0.0,2.0,96,0.05,,---,0.55,VWS V14.01,2013-02-26 19:50:00,
2013-02-26 14:52:00,49.3,48.2,29.37,SE,143,0.0,0.0,96,0.04,,---,0.59,VWS V14.01,2013-02-26 19:52:00,
2013-02-26 14:54:00,49.3,48.2,29.37,SE,143,0.0,1.0,96,0.04,,---,0.59,VWS V14.01,2013-02-26 19:54:00,
2013-02-26 14:55:00,48.4,47.3,29.39,SE,142,0.0,2.0,96,0.05,,---,0.55,VWS V14.01,2013-02-26 19:55:00,
2013-02-26 14:56:00,49.3,48.2,29.38,WSW,254,0.0,3.0,96,0.04,,---,0.59,VWS V14.01,2013-02-26 19:56:00,
2013-02-26 14:57:00,49.2,48.1,29.38,WSW,254,0.0,0.0,96,0.04,,---,0.60,VWS V14.01,2013-02-26 19:57:00,
2013-02-26 14:58:00,49.3,48.2,29.38,WSW,254,0.0,1.0,96,0.05,,---,0.61,VWS V14.01,2013-02-26 19:58:00,
2013-02-26 14:59:00,49.2,48.1,29.38,WSW,254,0.0,0.0,96,0.05,,---,0.61,VWS V14.01,2013-02-26 19:59:00,
2013-02-26 15:00:00,48.5,47.4,29.38,SE,130,0.0,5.0,96,0.05,,---,0.56,VWS V14.01,2013-02-26 20:00:00,
2013-02-26 15:02:00,49.2,48.1,29.38,WSW,254,0.0,0.0,96,0.08,,---,0.64,VWS V14.01,2013-02-26 20:02:00,
2013-02-26 15:03:00,49.2,48.1,29.38,WSW,254,0.0,0.0,96,0.09,,---,0.65,VWS V14.01,2013-02-26 20:03:00,
2013-02-26 15:05:00,48.5,47.4,29.39,South,188,4.0,5.0,96,0.05,,---,0.57,VWS V14.01,2013-02-26 20:05:00,
2013-02-26 15:07:00,49.2,48.1,29.39,WSW,257,2.0,4.0,96,0.14,,---,0.71,VWS V14.01,2013-02-26 20:07:00,
2013-02-26 15:09:00,49.2,48.1,29.38,WSW,257,4.0,6.0,96,0.16,,---,0.74,VWS V14.01,2013-02-26 20:09:00,
2013-02-26 15:10:00,48.5,47.4,29.39,SE,132,5.0,6.0,96,0.06,,---,0.58,VWS V14.01,2013-02-26 20:10:00,
2013-02-26 15:11:00,49.3,48.2,29.38,SW,230,1.0,6.0,96,0.17,,---,0.75,VWS V14.01,2013-02-26 20:11:00,
2013-02-26 15:13:00,49.4,48.3,29.38,SSE,154,1.0,4.0,96,0.18,,---,0.76,VWS V14.01,2013-02-26 20:13:00,
2013-02-26 15:14:00,49.4,48.3,29.38,SSE,154,0.0,4.0,96,0.19,,---,0.77,VWS V14.01,2013-02-26 20:14:00,
2013-02-26 15:15:00,48.6,47.5,29.38,ESE,110,7.0,9.0,96,0.05,,---,0.58,VWS V14.01,2013-02-26 20:15:00,
2013-02-26 15:17:00,49.3,48.2,29.38,SSE,155,0.0,2.0,96,0.20,,---,0.78,VWS V14.01,2013-02-26 20:17:00,
2013-02-26 15:19:00,49.3,48.2,29.38,SSW,201,3.0,6.0,96,0.21,,---,0.79,VWS V14.01,2013-02-26 20:19:00,
2013-02-26 15:20:00,48.8,47.7,29.37,SE,134,7.0,14.0,96,0.05,,---,0.58,VWS V14.01,2013-02-26 20:20:00,
2013-02-26 15:21:00,49.3,48.2,29.38,SSW,194,3.0,5.0,96,0.21,,---,0.79,VWS V14.01,2013-02-26 20:21:00,
2013-02-26 15:22:00,49.4,48.3,29.38,South,188,2.0,4.0,96,0.22,,---,0.80,VWS V14.01,2013-02-26 20:22:00,
2013-02-26 15:23:00,49.4,48.6,29.38,South,189,0.0,3.0,97,0.22,,---,0.80,VWS V14.01,2013-02-26 20:23:00,
2013-02-26 15:24:00,49.4,48.6,29.38,SSW,211,2.0,5.0,97,0.22,,---,0.80,VWS V14.01,2013-02-26 20:24:00,
2013-02-26 15:25:00,48.9,47.8,29.37,SE,138,5.0,8.0,96,0.05,,---,0.58,VWS V14.01,2013-02-26 20:25:00,
2013-02-26 15:26:00,49.5,48.7,29.38,SW,217,2.0,4.0,97,0.22,,---,0.80,VWS V14.01,2013-02-26 20:26:00,
2013-02-26 15:28:00,49.5,48.7,29.38,SSW,208,2.0,2.0,97,0.22,,---,0.80,VWS V14.01,2013-02-26 20:28:00,
2013-02-26 15:29:00,49.6,48.8,29.38,SSW,208,0.0,2.0,97,0.22,,---,0.80,VWS V14.01,2013-02-26 20:29:00,
2013-02-26 15:30:00,49.0,47.9,29.37,SSE,163,5.0,9.0,96,0.04,,---,0.58,VWS V14.01,2013-02-26 20:30:00,
2013-02-26 15:32:00,49.6,48.8,29.38,South,189,1.0,2.0,97,0.21,,---,0.80,VWS V14.01,2013-02-26 20:32:00,
2013-02-26 15:33:00,49.6,48.8,29.38,South,176,0.0,2.0,97,0.21,,---,0.80,VWS V14.01,2013-02-26 20:33:00,
2013-02-26 15:34:00,49.6,48.8,29.38,South,176,2.0,4.0,97,0.21,,---,0.80,VWS V14.01,2013-02-26 20:34:00,
2013-02-26 15:35:00,49.7,48.9,29.38,South,177,0.0,4.0,97,0.21,,---,0.80,VWS V14.01,2013-02-26 20:35:00,
2013-02-26 15:36:00,49.1,48.0,29.37,SE,129,5.0,7.0,96,0.05,,---,0.59,VWS V14.01,2013-02-26 20:36:00,
2013-02-26 15:37:00,49.7,48.9,29.38,South,176,1.0,4.0,97,0.22,,---,0.81,VWS V14.01,2013-02-26 20:37:00,
2013-02-26 15:38:00,49.7,48.9,29.38,South,177,1.0,2.0,97,0.22,,---,0.81,VWS V14.01,2013-02-26 20:38:00,
2013-02-26 15:39:00,49.7,48.9,29.38,South,177,4.0,5.0,97,0.22,,---,0.81,VWS V14.01,2013-02-26 20:39:00,
2013-02-26 15:40:00,49.8,49.0,29.38,South,177,0.0,5.0,97,0.22,,---,0.81,VWS V14.01,2013-02-26 20:40:00,
2013-02-26 15:41:00,49.2,48.1,29.37,SE,136,8.0,8.0,96,0.04,,---,0.59,VWS V14.01,2013-02-26 20:41:00,
2013-02-26 15:42:00,49.8,48.7,29.38,South,177,0.0,2.0,96,0.22,,---,0.81,VWS V14.01,2013-02-26 20:42:00,
2013-02-26 15:43:00,49.8,48.7,29.38,South,177,0.0,1.0,96,0.22,,---,0.81,VWS V14.01,2013-02-26 20:43:00,
2013-02-26 15:44:00,49.8,48.7,29.38,South,177,2.0,4.0,96,0.22,,---,0.81,VWS V14.01,2013-02-26 20:44:00,
2013-02-26 15:45:00,49.8,48.7,29.38,West,262,2.0,4.0,96,0.22,,---,0.81,VWS V14.01,2013-02-26 20:45:00,
2013-02-26 15:46:00,49.2,48.1,29.37,SE,146,4.0,4.0,96,0.04,,---,0.59,VWS V14.01,2013-02-26 20:46:00,
2013-02-26 15:47:00,49.9,48.8,29.38,WSW,246,2.0,3.0,96,0.22,,---,0.81,VWS V14.01,2013-02-26 20:47:00,
2013-02-26 15:48:00,49.9,48.8,29.38,WSW,246,2.0,2.0,96,0.22,,---,0.81,VWS V14.01,2013-02-26 20:48:00,
2013-02-26 15:49:00,49.8,48.7,29.38,WSW,246,0.0,2.0,96,0.22,,---,0.81,VWS V14.01,2013-02-26 20:49:00,
2013-02-26 15:50:00,49.9,48.8,29.38,WSW,246,1.0,1.0,96,0.22,,---,0.81,VWS V14.01,2013-02-26 20:50:00,
2013-02-26 15:51:00,49.2,48.1,29.37,SE,143,0.0,1.0,96,0.04,,---,0.59,VWS V14.01,2013-02-26 20:51:00,
2013-02-26 15:52:00,49.9,48.8,29.38,SSW,192,2.0,4.0,96,0.22,,---,0.81,VWS V14.01,2013-02-26 20:52:00,
2013-02-26 15:53:00,49.9,48.8,29.38,SSW,192,0.0,2.0,96,0.22,,---,0.81,VWS V14.01,2013-02-26 20:53:00,
2013-02-26 15:54:00,49.8,48.7,29.38,SSW,192,0.0,2.0,96,0.22,,---,0.81,VWS V14.01,2013-02-26 20:54:00,
2013-02-26 15:55:00,49.8,48.7,29.38,South,184,3.0,4.0,96,0.22,,---,0.81,VWS V14.01,2013-02-26 20:55:00,
2013-02-26 15:56:00,49.3,48.2,29.38,WSW,254,0.0,3.0,96,0.04,,---,0.59,VWS V14.01,2013-02-26 20:56:00,
2013-02-26 15:57:00,49.8,48.7,29.38,South,184,0.0,0.0,96,0.22,,---,0.81,VWS V14.01,2013-02-26 20:57:00,
2013-02-26 15:58:00,49.8,48.7,29.38,South,184,0.0,1.0,96,0.21,,---,0.81,VWS V14.01,2013-02-26 20:58:00,
2013-02-26 15:59:00,49.8,48.7,29.38,South,190,2.0,4.0,96,0.22,,---,0.83,VWS V14.01,2013-02-26 20:59:00,
2013-02-26 16:00:00,49.8,48.7,29.38,South,190,0.0,2.0,96,0.23,,---,0.84,VWS V14.01,2013-02-26 21:00:00,
2013-02-26 16:01:00,49.2,48.1,29.38,WSW,254,0.0,0.0,96,0.07,,---,0.63,VWS V14.01,2013-02-26 21:01:00,
2013-02-26 16:02:00,49.8,48.7,29.38,WSW,248,5.0,9.0,96,0.22,,---,0.85,VWS V14.01,2013-02-26 21:02:00,
2013-02-26 16:03:00,49.8,48.7,29.39,West,263,0.0,5.0,96,0.21,,---,0.85,VWS V14.01,2013-02-26 21:03:00,
2013-02-26 16:04:00,49.7,48.6,29.39,West,264,0.0,3.0,96,0.23,,---,0.88,VWS V14.01,2013-02-26 21:04:00,
2013-02-26 16:06:00,49.2,48.1,29.38,WSW,255,4.0,6.0,96,0.11,,---,0.68,VWS V14.01,2013-02-26 21:06:00,
2013-02-26 16:07:00,49.7,48.6,29.40,WSW,257,2.0,6.0,96,0.20,,---,0.88,VWS V14.01,2013-02-26 21:07:00,
2013-02-26 16:08:00,49.7,48.6,29.40,WSW,250,2.0,4.0,96,0.18,,---,0.89,VWS V14.01,2013-02-26 21:08:00,
2013-02-26 16:09:00,49.6,48.5,29.40,WSW,238,3.0,3.0,96,0.16,,---,0.89,VWS V14.01,2013-02-26 21:09:00,
2013-02-26 16:10:00,49.6,48.5,29.40,SW,227,5.0,7.0,96,0.15,,---,0.89,VWS V14.01,2013-02-26 21:10:00,
2013-02-26 16:11:00,49.3,48.2,29.38,SW,230,1.0,6.0,96,0.17,,---,0.75,VWS V14.01,2013-02-26 21:11:00,
2013-02-26 16:13:00,49.4,48.3,29.40,WSW,240,6.0,9.0,96,0.13,,---,0.89,VWS V14.01,2013-02-26 21:13:00,
2013-02-26 16:14:00,49.2,48.1,29.39,SW,234,10.0,17.0,96,0.13,,---,0.89,VWS V14.01,2013-02-26 21:14:00,
2013-02-26 16:15:00,49.1,48.0,29.39,West,272,9.0,10.0,96,0.12,,---,0.89,VWS V14.01,2013-02-26 21:15:00,
2013-02-26 16:16:00,49.3,48.2,29.38,SSE,154,1.0,2.0,96,0.20,,---,0.78,VWS V14.01,2013-02-26 21:16:00,
2013-02-26 16:17:00,48.9,47.8,29.40,SSW,198,10.0,15.0,96,0.11,,---,0.89,VWS V14.01,2013-02-26 21:17:00,
2013-02-26 16:18:00,48.8,47.4,29.40,West,271,7.0,16.0,95,0.11,,---,0.89,VWS V14.01,2013-02-26 21:18:00,
2013-02-26 16:19:00,48.7,47.3,29.40,WSW,256,16.0,16.0,95,0.10,,---,0.89,VWS V14.01,2013-02-26 21:19:00,
2013-02-26 16:20:00,48.6,47.2,29.40,SW,230,9.0,16.0,95,0.10,,---,0.89,VWS V14.01,2013-02-26 21:20:00,
2013-02-26 16:21:00,49.3,48.2,29.38,SSW,194,3.0,5.0,96,0.21,,---,0.79,VWS V14.01,2013-02-26 21:21:00,
2013-02-26 16:22:00,48.4,46.8,29.40,WNW,303,5.0,8.0,94,0.10,,---,0.89,VWS V14.01,2013-02-26 21:22:00,
2013-02-26 16:23:00,48.3,46.7,29.41,WNW,284,10.0,17.0,94,0.09,,---,0.89,VWS V14.01,2013-02-26 21:23:00,
2013-02-26 16:24:00,48.2,47.7,29.41,WNW,285,3.0,10.0,98,0.09,,---,0.89,VWS V14.01,2013-02-26 21:24:00,
2013-02-26 16:25:00,48.0,46.1,29.41,WSW,244,4.0,9.0,93,0.09,,---,0.89,VWS V14.01,2013-02-26 21:25:00,
2013-02-26 16:26:00,49.5,48.7,29.38,SW,217,2.0,4.0,97,0.22,,---,0.80,VWS V14.01,2013-02-26 21:26:00,
2013-02-26 16:27:00,47.8,45.6,29.41,West,269,5.0,8.0,92,0.09,,---,0.89,VWS V14.01,2013-02-26 21:27:00,
2013-02-26 16:28:00,47.7,45.5,29.41,NW,306,5.0,6.0,92,0.09,,---,0.89,VWS V14.01,2013-02-26 21:28:00,
2013-02-26 16:29:00,47.6,45.4,29.42,West,278,2.0,6.0,92,0.09,,---,0.89,VWS V14.01,2013-02-26 21:29:00,
2013-02-26 16:30:00,47.5,45.3,29.42,WNW,286,4.0,5.0,92,0.09,,---,0.89,VWS V14.01,2013-02-26 21:30:00,
2013-02-26 16:31:00,49.6,48.8,29.38,South,186,0.0,2.0,97,0.22,,---,0.80,VWS V14.01,2013-02-26 21:31:00,
2013-02-26 16:32:00,47.4,45.2,29.42,WNW,286,2.0,8.0,92,0.09,,---,0.89,VWS V14.01,2013-02-26 21:32:00,
2013-02-26 16:33:00,47.3,45.1,29.42,WSW,241,6.0,8.0,92,0.09,,---,0.89,VWS V14.01,2013-02-26 21:33:00,
2013-02-26 16:34:00,47.3,45.1,29.42,SW,234,7.0,10.0,92,0.09,,---,0.89,VWS V14.01,2013-02-26 21:34:00,
2013-02-26 16:35:00,47.3,45.1,29.42,WSW,257,6.0,7.0,92,0.09,,---,0.89,VWS V14.01,2013-02-26 21:35:00,
2013-02-26 16:36:00,49.7,48.9,29.38,South,177,0.0,2.0,97,0.21,,---,0.80,VWS V14.01,2013-02-26 21:36:00,
2013-02-26 16:37:00,47.2,45.0,29.42,SW,219,3.0,3.0,92,0.10,,---,0.90,VWS V14.01,2013-02-26 21:37:00,
2013-02-26 16:38:00,47.1,44.9,29.42,West,275,4.0,7.0,92,0.09,,---,0.90,VWS V14.01,2013-02-26 21:38:00,
2013-02-26 16:39:00,47.1,44.9,29.43,WSW,254,7.0,7.0,92,0.09,,---,0.90,VWS V14.01,2013-02-26 21:39:00,
2013-02-26 16:40:00,47.0,44.8,29.43,SW,227,7.0,8.0,92,0.09,,---,0.90,VWS V14.01,2013-02-26 21:40:00,
2013-02-26 16:41:00,49.8,49.0,29.38,South,177,4.0,4.0,97,0.22,,---,0.81,VWS V14.01,2013-02-26 21:41:00,
2013-02-26 16:42:00,46.9,44.7,29.43,West,280,5.0,11.0,92,0.09,,---,0.90,VWS V14.01,2013-02-26 21:42:00,
2013-02-26 16:43:00,46.9,44.7,29.43,West,263,4.0,7.0,92,0.09,,---,0.90,VWS V14.01,2013-02-26 21:43:00,
2013-02-26 16:44:00,46.8,44.6,29.43,WNW,298,4.0,10.0,92,0.09,,---,0.90,VWS V14.01,2013-02-26 21:44:00,
2013-02-26 16:45:00,46.7,44.2,29.44,NW,308,5.0,8.0,91,0.09,,---,0.90,VWS V14.01,2013-02-26 21:45:00,
2013-02-26 16:46:00,49.9,48.8,29.38,West,262,1.0,2.0,96,0.22,,---,0.81,VWS V14.01,2013-02-26 21:46:00,
2013-02-26 16:47:00,46.6,44.1,29.44,SW,233,6.0,6.0,91,0.09,,---,0.90,VWS V14.01,2013-02-26 21:47:00,
2013-02-26 16:48:00,46.5,44.0,29.44,WNW,290,9.0,9.0,91,0.09,,---,0.90,VWS V14.01,2013-02-26 21:48:00,
2013-02-26 16:49:00,46.5,43.7,29.44,WSW,243,8.0,9.0,90,0.09,,---,0.90,VWS V14.01,2013-02-26 21:49:00,
2013-02-26 16:50:00,46.4,43.6,29.44,SW,234,7.0,10.0,90,0.09,,---,0.90,VWS V14.01,2013-02-26 21:50:00,
2013-02-26 16:51:00,49.9,48.8,29.38,SSW,207,1.0,3.0,96,0.22,,---,0.81,VWS V14.01,2013-02-26 21:51:00,
2013-02-26 16:52:00,46.3,43.5,29.44,West,279,2.0,9.0,90,0.10,,---,0.91,VWS V14.01,2013-02-26 21:52:00,
2013-02-26 16:53:00,46.2,43.4,29.44,West,262,5.0,6.0,90,0.10,,---,0.91,VWS V14.01,2013-02-26 21:53:00,
2013-02-26 16:54:00,46.2,43.4,29.44,WSW,252,3.0,9.0,90,0.10,,---,0.91,VWS V14.01,2013-02-26 21:54:00,
2013-02-26 16:55:00,46.1,43.3,29.44,WNW,286,4.0,8.0,90,0.10,,---,0.91,VWS V14.01,2013-02-26 21:55:00,
2013-02-26 16:56:00,49.9,48.8,29.38,South,184,0.0,3.0,96,0.22,,---,0.81,VWS V14.01,2013-02-26 21:56:00,
2013-02-26 16:57:00,46.0,43.2,29.44,WSW,255,2.0,5.0,90,0.10,,---,0.91,VWS V14.01,2013-02-26 21:57:00,
2013-02-26 16:58:00,46.0,43.2,29.44,WSW,243,4.0,6.0,90,0.10,,---,0.91,VWS V14.01,2013-02-26 21:58:00,
2013-02-26 16:59:00,46.0,43.5,29.44,West,275,3.0,7.0,91,0.10,,---,0.91,VWS V14.01,2013-02-26 21:59:00,
2013-02-26 17:00:00,45.9,43.1,29.44,West,261,4.0,8.0,90,0.08,,---,0.91,VWS V14.01,2013-02-26 22:00:00,
2013-02-26 17:01:00,49.8,48.7,29.38,SSW,202,2.0,3.0,96,0.22,,---,0.84,VWS V14.01,2013-02-26 22:01:00,
2013-02-26 17:02:00,45.9,43.4,29.44,SW,236,5.0,9.0,91,0.07,,---,0.91,VWS V14.01,2013-02-26 22:02:00,
2013-02-26 17:03:00,45.8,43.3,29.44,WSW,241,3.0,8.0,91,0.06,,---,0.91,VWS V14.01,2013-02-26 22:03:00,
2013-02-26 17:04:00,45.8,43.3,29.45,WSW,257,0.0,6.0,91,0.06,,---,0.91,VWS V14.01,2013-02-26 22:04:00,
2013-02-26 17:06:00,49.7,48.6,29.39,WSW,252,6.0,8.0,96,0.21,,---,0.88,VWS V14.01,2013-02-26 22:06:00,
2013-02-26 17:07:00,45.8,43.3,29.45,WSW,254,7.0,7.0,91,0.03,,---,0.91,VWS V14.01,2013-02-26 22:07:00,
2013-02-26 17:08:00,45.7,43.2,29.45,WSW,253,1.0,7.0,91,0.03,,---,0.91,VWS V14.01,2013-02-26 22:08:00,
2013-02-26 17:09:00,45.7,43.2,29.45,WSW,253,0.0,4.0,91,0.02,,---,0.91,VWS V14.01,2013-02-26 22:09:00,
2013-02-26 17:10:00,45.7,43.2,29.45,West,259,2.0,2.0,91,0.02,,---,0.91,VWS V14.01,2013-02-26 22:10:00,
2013-02-26 17:11:00,49.5,48.4,29.40,West,270,3.0,7.0,96,0.14,,---,0.89,VWS V14.01,2013-02-26 22:11:00,
2013-02-26 17:12:00,45.6,43.1,29.45,WSW,243,2.0,4.0,91,0.03,,---,0.92,VWS V14.01,2013-02-26 22:12:00,
2013-02-26 17:13:00,45.6,43.4,29.45,WSW,246,3.0,4.0,92,0.03,,---,0.92,VWS V14.01,2013-02-26 22:13:00,
2013-02-26 17:14:00,45.5,43.3,29.45,WSW,246,2.0,3.0,92,0.03,,---,0.92,VWS V14.01,2013-02-26 22:14:00,
2013-02-26 17:15:00,45.5,43.3,29.45,WSW,246,0.0,2.0,92,0.03,,---,0.92,VWS V14.01,2013-02-26 22:15:00,
2013-02-26 17:16:00,49.0,47.9,29.40,WSW,239,10.0,12.0,96,0.12,,---,0.89,VWS V14.01,2013-02-26 22:16:00,
2013-02-26 17:17:00,45.5,43.3,29.45,West,267,3.0,4.0,92,0.03,,---,0.92,VWS V14.01,2013-02-26 22:17:00,
2013-02-26 17:18:00,45.5,43.3,29.45,West,267,0.0,3.0,92,0.03,,---,0.92,VWS V14.01,2013-02-26 22:18:00,
2013-02-26 17:19:00,45.4,43.2,29.45,West,267,0.0,3.0,92,0.03,,---,0.92,VWS V14.01,2013-02-26 22:19:00,
2013-02-26 17:20:00,45.4,43.2,29.45,West,267,0.0,1.0,92,0.03,,---,0.92,VWS V14.01,2013-02-26 22:20:00,
2013-02-26 17:21:00,48.5,46.9,29.40,West,280,7.0,12.0,94,0.10,,---,0.89,VWS V14.01,2013-02-26 22:21:00,
2013-02-26 17:22:00,45.4,43.5,29.45,West,267,0.0,3.0,93,0.03,,---,0.92,VWS V14.01,2013-02-26 22:22:00,
2013-02-26 17:23:00,45.4,43.5,29.46,SW,236,3.0,3.0,93,0.03,,---,0.92,VWS V14.01,2013-02-26 22:23:00,
2013-02-26 17:24:00,45.4,43.5,29.46,West,269,0.0,3.0,93,0.04,,---,0.93,VWS V14.01,2013-02-26 22:24:00,
2013-02-26 17:25:00,45.4,43.5,29.46,West,269,2.0,2.0,93,0.04,,---,0.93,VWS V14.01,2013-02-26 22:25:00,
2013-02-26 17:26:00,47.9,46.0,29.41,NNW,335,7.0,10.0,93,0.09,,---,0.89,VWS V14.01,2013-02-26 22:26:00,
2013-02-26 17:27:00,45.3,43.4,29.46,WSW,254,2.0,3.0,93,0.04,,---,0.93,VWS V14.01,2013-02-26 22:27:00,
2013-02-26 17:28:00,45.3,43.4,29.46,SW,236,6.0,6.0,93,0.04,,---,0.93,VWS V14.01,2013-02-26 22:28:00,
2013-02-26 17:29:00,45.3,43.4,29.46,WSW,246,4.0,7.0,93,0.04,,---,0.93,VWS V14.01,2013-02-26 22:29:00,
2013-02-26 17:30:00,45.3,43.4,29.46,WSW,246,2.0,4.0,93,0.04,,---,0.93,VWS V14.01,2013-02-26 22:30:00,
2013-02-26 17:31:00,47.4,45.2,29.42,West,259,6.0,7.0,92,0.09,,---,0.89,VWS V14.01,2013-02-26 22:31:00,
2013-02-26 17:32:00,45.2,43.3,29.46,West,263,0.0,4.0,93,0.04,,---,0.93,VWS V14.01,2013-02-26 22:32:00,
2013-02-26 17:33:00,45.2,43.3,29.46,SW,225,1.0,4.0,93,0.04,,---,0.93,VWS V14.01,2013-02-26 22:33:00,
2013-02-26 17:34:00,45.2,43.3,29.46,SW,225,0.0,1.0,93,0.04,,---,0.93,VWS V14.01,2013-02-26 22:34:00,
2013-02-26 17:35:00,45.2,43.3,29.46,West,261,1.0,5.0,93,0.04,,---,0.93,VWS V14.01,2013-02-26 22:35:00,
2013-02-26 17:36:00,47.2,45.0,29.42,WNW,300,2.0,8.0,92,0.09,,---,0.89,VWS V14.01,2013-02-26 22:36:00,
2013-02-26 17:37:00,45.2,43.3,29.46,WSW,247,0.0,2.0,93,0.04,,---,0.93,VWS V14.01,2013-02-26 22:37:00,
2013-02-26 17:38:00,45.1,43.2,29.46,WSW,247,1.0,1.0,93,0.04,,---,0.94,VWS V14.01,2013-02-26 22:38:00,
2013-02-26 17:39:00,45.1,43.5,29.46,WSW,247,0.0,2.0,94,0.04,,---,0.94,VWS V14.01,2013-02-26 22:39:00,
2013-02-26 17:40:00,45.1,43.2,29.46,WSW,247,0.0,1.0,93,0.04,,---,0.94,VWS V14.01,2013-02-26 22:40:00,
2013-02-26 17:41:00,47.0,44.8,29.43,West,277,5.0,7.0,92,0.09,,---,0.90,VWS V14.01,2013-02-26 22:41:00,
2013-02-26 17:42:00,45.1,43.5,29.47,WSW,247,0.0,2.0,94,0.04,,---,0.94,VWS V14.01,2013-02-26 22:42:00,
2013-02-26 17:43:00,45.1,43.5,29.47,WSW,253,6.0,7.0,94,0.04,,---,0.94,VWS V14.01,2013-02-26 22:43:00,
2013-02-26 17:44:00,45.1,43.5,29.46,West,269,0.0,6.0,94,0.04,,---,0.94,VWS V14.01,2013-02-26 22:44:00,
2013-02-26 17:45:00,45.0,43.4,29.47,WSW,247,3.0,3.0,94,0.04,,---,0.94,VWS V14.01,2013-02-26 22:45:00,
2013-02-26 17:46:00,46.7,44.2,29.44,West,279,3.0,9.0,91,0.09,,---,0.90,VWS V14.01,2013-02-26 22:46:00,
2013-02-26 17:47:00,45.0,43.4,29.47,West,263,4.0,4.0,94,0.04,,---,0.94,VWS V14.01,2013-02-26 22:47:00,
2013-02-26 17:48:00,45.0,43.4,29.47,West,280,4.0,6.0,94,0.04,,---,0.94,VWS V14.01,2013-02-26 22:48:00,
2013-02-26 17:49:00,45.0,43.4,29.47,WSW,257,5.0,5.0,94,0.04,,---,0.94,VWS V14.01,2013-02-26 22:49:00,
2013-02-26 17:50:00,45.0,43.4,29.47,SW,219,0.0,5.0,94,0.04,,---,0.94,VWS V14.01,2013-02-26 22:50:00,
2013-02-26 17:51:00,46.3,43.5,29.44,West,267,9.0,16.0,90,0.09,,---,0.90,VWS V14.01,2013-02-26 22:51:00,
2013-02-26 17:52:00,45.0,43.4,29.47,West,271,3.0,6.0,94,0.04,,---,0.94,VWS V14.01,2013-02-26 22:52:00,
2013-02-26 17:53:00,44.9,43.3,29.47,West,266,2.0,4.0,94,0.03,,---,0.94,VWS V14.01,2013-02-26 22:53:00,
2013-02-26 17:54:00,45.0,43.4,29.47,WSW,252,4.0,4.0,94,0.03,,---,0.94,VWS V14.01,2013-02-26 22:54:00,
2013-02-26 17:55:00,44.9,43.3,29.47,West,263,3.0,5.0,94,0.03,,---,0.94,VWS V14.01,2013-02-26 22:55:00,
2013-02-26 17:56:00,46.1,43.3,29.44,SW,232,4.0,6.0,90,0.10,,---,0.91,VWS V14.01,2013-02-26 22:56:00,
2013-02-26 17:57:00,44.9,43.3,29.47,West,261,3.0,5.0,94,0.03,,---,0.94,VWS V14.01,2013-02-26 22:57:00,
2013-02-26 17:58:00,44.9,43.3,29.47,WSW,238,4.0,7.0,94,0.03,,---,0.94,VWS V14.01,2013-02-26 22:58:00,
2013-02-26 17:59:00,44.9,43.3,29.47,West,259,3.0,7.0,94,0.03,,---,0.94,VWS V14.01,2013-02-26 22:59:00,
2013-02-26 18:00:00,44.9,43.3,29.47,West,267,1.0,5.0,94,0.03,,---,0.94,VWS V14.01,2013-02-26 23:00:00,
2013-02-26 18:01:00,45.9,43.1,29.44,WNW,294,6.0,9.0,90,0.07,,---,0.91,VWS V14.01,2013-02-26 23:01:00,
2013-02-26 18:02:00,44.8,43.2,29.47,West,277,2.0,3.0,94,0.03,,---,0.94,VWS V14.01,2013-02-26 23:02:00,
2013-02-26 18:03:00,44.8,42.9,29.47,WSW,249,4.0,6.0,93,0.03,,---,0.94,VWS V14.01,2013-02-26 23:03:00,
2013-02-26 18:04:00,44.8,43.2,29.47,SW,223,3.0,5.0,94,0.03,,---,0.94,VWS V14.01,2013-02-26 23:04:00,
2013-02-26 18:05:00,44.7,43.1,29.47,West,267,3.0,5.0,94,0.03,,---,0.94,VWS V14.01,2013-02-26 23:05:00,
2013-02-26 18:06:00,45.8,43.3,29.45,WSW,253,2.0,4.0,91,0.03,,---,0.91,VWS V14.01,2013-02-26 23:06:00,
2013-02-26 18:07:00,44.7,43.1,29.47,WSW,248,2.0,5.0,94,0.03,,---,0.94,VWS V14.01,2013-02-26 23:07:00,
2013-02-26 18:08:00,44.7,43.1,29.47,WSW,240,4.0,4.0,94,0.03,,---,0.94,VWS V14.01,2013-02-26 23:08:00,
2013-02-26 18:09:00,44.7,43.1,29.47,West,260,2.0,6.0,94,0.03,,---,0.94,VWS V14.01,2013-02-26 23:09:00,
2013-02-26 18:10:00,44.7,43.1,29.47,West,266,3.0,4.0,94,0.03,,---,0.94,VWS V14.01,2013-02-26 23:10:00,
2013-02-26 18:11:00,45.6,43.1,29.45,West,280,2.0,3.0,91,0.02,,---,0.91,VWS V14.01,2013-02-26 23:11:00,
2013-02-26 18:12:00,44.6,43.0,29.48,WSW,248,5.0,6.0,94,0.03,,---,0.94,VWS V14.01,2013-02-26 23:12:00,
2013-02-26 18:13:00,44.6,43.0,29.48,SSW,195,3.0,6.0,94,0.02,,---,0.94,VWS V14.01,2013-02-26 23:13:00,
2013-02-26 18:14:00,44.6,43.0,29.48,WSW,241,3.0,5.0,94,0.02,,---,0.94,VWS V14.01,2013-02-26 23:14:00,
2013-02-26 18:15:00,44.6,43.0,29.48,WSW,247,2.0,5.0,94,0.02,,---,0.94,VWS V14.01,2013-02-26 23:15:00,
2013-02-26 18:16:00,45.5,43.3,29.45,WSW,246,0.0,0.0,92,0.03,,---,0.92,VWS V14.01,2013-02-26 23:16:00,
2013-02-26 18:17:00,44.5,42.6,29.48,West,261,4.0,6.0,93,0.02,,---,0.94,VWS V14.01,2013-02-26 23:17:00,
2013-02-26 18:18:00,44.5,42.6,29.48,WSW,258,3.0,5.0,93,0.02,,---,0.94,VWS V14.01,2013-02-26 23:18:00,
2013-02-26 18:19:00,44.5,42.6,29.48,SW,230,2.0,5.0,93,0.02,,---,0.94,VWS V14.01,2013-02-26 23:19:00,
2013-02-26 18:20:00,44.5,42.6,29.48,WSW,246,4.0,7.0,93,0.02,,---,0.94,VWS V14.01,2013-02-26 23:20:00,
2013-02-26 18:21:00,45.4,43.5,29.45,West,267,3.0,3.0,93,0.03,,---,0.92,VWS V14.01,2013-02-26 23:21:00,
2013-02-26 18:22:00,44.5,42.6,29.48,WSW,252,2.0,4.0,93,0.02,,---,0.94,VWS V14.01,2013-02-26 23:22:00,
2013-02-26 18:23:00,44.5,42.6,29.48,SW,219,2.0,6.0,93,0.02,,---,0.94,VWS V14.01,2013-02-26 23:23:00,
2013-02-26 18:24:00,44.4,42.5,29.48,WNW,296,2.0,4.0,93,0.02,,---,0.94,VWS V14.01,2013-02-26 23:24:00,
2013-02-26 18:25:00,44.4,42.5,29.48,WSW,254,3.0,5.0,93,0.01,,---,0.94,VWS V14.01,2013-02-26 23:25:00,
2013-02-26 18:26:00,45.3,43.4,29.46,West,269,0.0,2.0,93,0.04,,---,0.93,VWS V14.01,2013-02-26 23:26:00,
2013-02-26 18:27:00,44.3,42.4,29.48,WSW,252,6.0,8.0,93,0.01,,---,0.94,VWS V14.01,2013-02-26 23:27:00,
2013-02-26 18:28:00,44.3,42.4,29.48,WSW,240,2.0,7.0,93,0.01,,---,0.94,VWS V14.01,2013-02-26 23:28:00,
2013-02-26 18:29:00,44.3,42.4,29.48,West,273,2.0,8.0,93,0.01,,---,0.94,VWS V14.01,2013-02-26 23:29:00,
2013-02-26 18:30:00,44.3,42.4,29.48,West,259,3.0,5.0,93,0.01,,---,0.94,VWS V14.01,2013-02-26 23:30:00,
2013-02-26 18:31:00,45.2,43.3,29.46,West,266,2.0,5.0,93,0.04,,---,0.93,VWS V14.01,2013-02-26 23:31:00,
2013-02-26 18:32:00,44.3,42.4,29.48,WNW,284,4.0,8.0,93,0.01,,---,0.94,VWS V14.01,2013-02-26 23:32:00,
2013-02-26 18:33:00,44.3,42.4,29.48,WSW,254,3.0,8.0,93,0.01,,---,0.94,VWS V14.01,2013-02-26 23:33:00,
2013-02-26 18:34:00,44.3,42.4,29.49,WSW,241,1.0,3.0,93,0.01,,---,0.94,VWS V14.01,2013-02-26 23:34:00,
2013-02-26 18:35:00,44.3,42.4,29.49,SW,232,4.0,5.0,93,0.01,,---,0.94,VWS V14.01,2013-02-26 23:35:00,
2013-02-26 18:36:00,45.2,43.3,29.46,WSW,247,1.0,3.0,93,0.04,,---,0.93,VWS V14.01,2013-02-26 23:36:00,
2013-02-26 18:37:00,44.3,42.4,29.49,SW,228,3.0,5.0,93,0.01,,---,0.94,VWS V14.01,2013-02-26 23:37:00,
2013-02-26 18:38:00,44.2,42.3,29.49,WSW,248,6.0,8.0,93,0.01,,---,0.94,VWS V14.01,2013-02-26 23:38:00,
2013-02-26 18:39:00,44.2,42.3,29.49,West,269,4.0,6.0,93,0.00,,---,0.94,VWS V14.01,2013-02-26 23:39:00,
2013-02-26 18:40:00,44.2,42.3,29.49,WSW,257,6.0,7.0,93,0.00,,---,0.94,VWS V14.01,2013-02-26 23:40:00,
2013-02-26 18:41:00,45.1,43.2,29.46,WSW,247,1.0,1.0,93,0.04,,---,0.94,VWS V14.01,2013-02-26 23:41:00,
2013-02-26 18:42:00,44.2,42.3,29.49,West,264,1.0,4.0,93,0.00,,---,0.94,VWS V14.01,2013-02-26 23:42:00,
2013-02-26 18:43:00,44.2,42.3,29.49,WSW,244,3.0,5.0,93,0.00,,---,0.94,VWS V14.01,2013-02-26 23:43:00,
2013-02-26 18:44:00,44.1,42.2,29.49,West,277,4.0,8.0,93,0.00,,---,0.94,VWS V14.01,2013-02-26 23:44:00,
2013-02-26 18:45:00,44.1,42.2,29.49,SW,227,3.0,6.0,93,0.00,,---,0.94,VWS V14.01,2013-02-26 23:45:00,
2013-02-26 18:46:00,45.0,43.4,29.46,West,269,4.0,5.0,94,0.04,,---,0.94,VWS V14.01,2013-02-26 23:46:00,
2013-02-26 18:47:00,44.1,42.2,29.49,WSW,258,4.0,6.0,93,0.00,,---,0.94,VWS V14.01,2013-02-26 23:47:00,
2013-02-26 18:48:00,44.1,42.2,29.49,WSW,258,3.0,4.0,93,0.00,,---,0.94,VWS V14.01,2013-02-26 23:48:00,
2013-02-26 18:49:00,44.1,42.2,29.49,West,269,5.0,6.0,93,0.00,,---,0.94,VWS V14.01,2013-02-26 23:49:00,
2013-02-26 18:50:00,44.1,42.2,29.49,West,279,2.0,6.0,93,0.00,,---,0.94,VWS V14.01,2013-02-26 23:50:00,
2013-02-26 18:51:00,45.0,43.4,29.47,WSW,240,0.0,4.0,94,0.04,,---,0.94,VWS V14.01,2013-02-26 23:51:00,
2013-02-26 18:52:00,44.0,42.1,29.49,WSW,247,4.0,7.0,93,0.00,,---,0.94,VWS V14.01,2013-02-26 23:52:00,
2013-02-26 18:53:00,44.0,42.1,29.49,SW,233,4.0,6.0,93,0.00,,---,0.94,VWS V14.01,2013-02-26 23:53:00,
2013-02-26 18:54:00,44.0,42.1,29.49,West,261,2.0,4.0,93,0.00,,---,0.94,VWS V14.01,2013-02-26 23:54:00,
2013-02-26 18:55:00,44.0,42.1,29.49,WSW,251,6.0,7.0,93,0.00,,---,0.94,VWS V14.01,2013-02-26 23:55:00,
2013-02-26 18:56:00,44.9,43.3,29.47,WSW,246,3.0,4.0,94,0.03,,---,0.94,VWS V14.01,2013-02-26 23:56:00,
2013-02-26 18:57:00,44.0,42.1,29.49,WSW,257,3.0,7.0,93,0.00,,---,0.94,VWS V14.01,2013-02-26 23:57:00,
2013-02-26 18:58:00,43.9,42.0,29.49,West,271,1.0,7.0,93,0.00,,---,0.94,VWS V14.01,2013-02-26 23:58:00,
2013-02-26 18:59:00,43.9,42.0,29.49,WSW,246,3.0,7.0,93,0.00,,---,0.94,VWS V14.01,2013-02-26 23:59:00,
2013-02-26 19:00:00,43.9,42.0,29.49,SW,234,3.0,8.0,93,0.00,,---,0.94,VWS V14.01,2013-02-27 00:00:00,
2013-02-26 19:01:00,44.8,43.2,29.47,SW,236,3.0,5.0,94,0.03,,---,0.94,VWS V14.01,2013-02-27 00:01:00,
2013-02-26 19:02:00,43.9,42.0,29.49,SW,229,4.0,8.0,93,0.00,,---,0.94,VWS V14.01,2013-02-27 00:02:00,
2013-02-26 19:03:00,43.9,42.0,29.49,West,273,3.0,5.0,93,0.00,,---,0.94,VWS V14.01,2013-02-27 00:03:00,
2013-02-26 19:04:00,43.8,41.9,29.49,West,267,2.0,5.0,93,0.00,,---,0.94,VWS V14.01,2013-02-27 00:04:00,
2013-02-26 19:05:00,43.8,41.9,29.49,West,263,3.0,4.0,93,0.00,,---,0.94,VWS V14.01,2013-02-27 00:05:00,
2013-02-26 19:06:00,44.7,43.1,29.47,West,259,2.0,3.0,94,0.03,,---,0.94,VWS V14.01,2013-02-27 00:06:00,
2013-02-26 19:07:00,43.8,41.9,29.49,West,260,2.0,7.0,93,0.00,,---,0.94,VWS V14.01,2013-02-27 00:07:00,
2013-02-26 19:08:00,43.8,41.9,29.49,WSW,254,5.0,6.0,93,0.00,,---,0.94,VWS V14.01,2013-02-27 00:08:00,
2013-02-26 19:09:00,43.8,41.9,29.49,SW,232,5.0,7.0,93,0.00,,---,0.94,VWS V14.01,2013-02-27 00:09:00,
2013-02-26 19:10:00,43.8,41.9,29.49,West,267,3.0,8.0,93,0.00,,---,0.94,VWS V14.01,2013-02-27 00:10:00,
2013-02-26 19:11:00,44.6,43.0,29.48,WSW,257,2.0,4.0,94,0.03,,---,0.94,VWS V14.01,2013-02-27 00:11:00,
2013-02-26 19:12:00,43.8,41.9,29.49,WSW,239,0.0,6.0,93,0.00,,---,0.94,VWS V14.01,2013-02-27 00:12:00,
2013-02-26 19:13:00,43.8,41.9,29.49,WSW,246,4.0,6.0,93,0.00,,---,0.94,VWS V14.01,2013-02-27 00:13:00,
2013-02-26 19:14:00,43.8,41.9,29.49,WSW,248,4.0,4.0,93,0.00,,---,0.94,VWS V14.01,2013-02-27 00:14:00,
2013-02-26 19:15:00,43.8,41.9,29.49,West,259,2.0,4.0,93,0.00,,---,0.94,VWS V14.01,2013-02-27 00:15:00,
2013-02-26 19:16:00,44.5,42.9,29.48,WNW,298,3.0,6.0,94,0.02,,---,0.94,VWS V14.01,2013-02-27 00:16:00,
2013-02-26 19:17:00,43.8,41.9,29.49,WSW,250,4.0,7.0,93,0.00,,---,0.94,VWS V14.01,2013-02-27 00:17:00,
2013-02-26 19:18:00,43.8,41.9,29.49,WSW,244,5.0,7.0,93,0.00,,---,0.94,VWS V14.01,2013-02-27 00:18:00,
2013-02-26 19:19:00,43.8,41.9,29.49,WSW,250,4.0,7.0,93,0.00,,---,0.94,VWS V14.01,2013-02-27 00:19:00,
2013-02-26 19:20:00,43.8,41.9,29.50,SW,230,4.0,8.0,93,0.00,,---,0.94,VWS V14.01,2013-02-27 00:20:00,
2013-02-26 19:21:00,44.5,42.6,29.48,WSW,249,4.0,6.0,93,0.02,,---,0.94,VWS V14.01,2013-02-27 00:21:00,
2013-02-26 19:22:00,43.8,41.9,29.49,WSW,248,4.0,10.0,93,0.00,,---,0.94,VWS V14.01,2013-02-27 00:22:00,
2013-02-26 19:23:00,43.8,41.9,29.50,WSW,251,2.0,5.0,93,0.00,,---,0.94,VWS V14.01,2013-02-27 00:23:00,
2013-02-26 19:24:00,43.8,41.9,29.50,WSW,256,5.0,7.0,93,0.00,,---,0.94,VWS V14.01,2013-02-27 00:24:00,
2013-02-26 19:25:00,43.8,41.9,29.50,WSW,240,4.0,5.0,93,0.00,,---,0.94,VWS V14.01,2013-02-27 00:25:00,
2013-02-26 19:26:00,44.4,42.5,29.48,West,269,3.0,6.0,93,0.01,,---,0.94,VWS V14.01,2013-02-27 00:26:00,
2013-02-26 19:27:00,43.8,41.9,29.50,West,260,3.0,5.0,93,0.00,,---,0.94,VWS V14.01,2013-02-27 00:27:00,
2013-02-26 19:28:00,43.8,41.9,29.50,WSW,244,3.0,5.0,93,0.00,,---,0.94,VWS V14.01,2013-02-27 00:28:00,
2013-02-26 19:29:00,43.8,41.9,29.50,WSW,257,6.0,7.0,93,0.00,,---,0.94,VWS V14.01,2013-02-27 00:29:00,
2013-02-26 19:30:00,43.8,41.9,29.50,SW,236,5.0,8.0,93,0.00,,---,0.94,VWS V14.01,2013-02-27 00:30:00,
2013-02-26 19:31:00,44.3,42.4,29.48,West,261,4.0,9.0,93,0.01,,---,0.94,VWS V14.01,2013-02-27 00:31:00,
2013-02-26 19:32:00,43.8,41.6,29.50,West,277,5.0,6.0,92,0.00,,---,0.94,VWS V14.01,2013-02-27 00:32:00,
2013-02-26 19:33:00,43.8,41.6,29.50,SSW,207,2.0,5.0,92,0.00,,---,0.94,VWS V14.01,2013-02-27 00:33:00,
2013-02-26 19:34:00,43.8,41.6,29.50,West,262,3.0,8.0,92,0.00,,---,0.94,VWS V14.01,2013-02-27 00:34:00,
2013-02-26 19:35:00,43.8,41.6,29.50,West,270,6.0,7.0,92,0.00,,---,0.94,VWS V14.01,2013-02-27 00:35:00,
2013-02-26 19:36:00,44.3,42.4,29.49,West,280,3.0,4.0,93,0.01,,---,0.94,VWS V14.01,2013-02-27 00:36:00,
2013-02-26 19:37:00,43.9,41.7,29.50,SW,229,5.0,12.0,92,0.00,,---,0.94,VWS V14.01,2013-02-27 00:37:00,
2013-02-26 19:38:00,43.9,41.7,29.50,WSW,244,0.0,6.0,92,0.00,,---,0.94,VWS V14.01,2013-02-27 00:38:00,
2013-02-26 19:39:00,43.9,41.7,29.50,WSW,257,8.0,9.0,92,0.00,,---,0.94,VWS V14.01,2013-02-27 00:39:00,
2013-02-26 19:40:00,43.9,41.7,29.51,SW,232,6.0,8.0,92,0.00,,---,0.94,VWS V14.01,2013-02-27 00:40:00,
2013-02-26 19:41:00,44.2,42.3,29.49,WSW,258,2.0,6.0,93,0.00,,---,0.94,VWS V14.01,2013-02-27 00:41:00,
2013-02-26 19:42:00,43.9,41.7,29.50,SSW,213,3.0,6.0,92,0.00,,---,0.94,VWS V14.01,2013-02-27 00:42:00,
2013-02-26 19:43:00,43.9,41.7,29.51,SSW,210,3.0,3.0,92,0.00,,---,0.94,VWS V14.01,2013-02-27 00:43:00,
2013-02-26 19:44:00,43.9,41.7,29.50,SW,223,4.0,5.0,92,0.00,,---,0.94,VWS V14.01,2013-02-27 00:44:00,
2013-02-26 19:45:00,43.9,41.7,29.51,WNW,292,5.0,5.0,92,0.00,,---,0.94,VWS V14.01,2013-02-27 00:45:00,
2013-02-26 19:46:00,44.1,42.2,29.49,WSW,250,6.0,7.0,93,0.00,,---,0.94,VWS V14.01,2013-02-27 00:46:00,
2013-02-26 19:47:00,43.9,41.7,29.51,SW,223,2.0,7.0,92,0.00,,---,0.94,VWS V14.01,2013-02-27 00:47:00,
2013-02-26 19:48:00,43.9,41.7,29.51,WSW,255,1.0,5.0,92,0.00,,---,0.94,VWS V14.01,2013-02-27 00:48:00,
2013-02-26 19:49:00,43.9,41.7,29.51,WNW,294,4.0,4.0,92,0.00,,---,0.94,VWS V14.01,2013-02-27 00:49:00,
2013-02-26 19:50:00,43.8,41.9,29.51,WSW,254,1.0,6.0,93,0.00,,---,0.94,VWS V14.01,2013-02-27 00:50:00,
2013-02-26 19:51:00,44.1,42.2,29.49,WSW,244,0.0,5.0,93,0.00,,---,0.94,VWS V14.01,2013-02-27 00:51:00,
2013-02-26 19:52:00,43.8,41.9,29.51,WSW,254,6.0,7.0,93,0.00,,---,0.94,VWS V14.01,2013-02-27 00:52:00,
2013-02-26 19:53:00,43.8,41.9,29.51,WSW,244,1.0,6.0,93,0.00,,---,0.94,VWS V14.01,2013-02-27 00:53:00,
2013-02-26 19:54:00,43.8,41.9,29.51,SSW,212,0.0,5.0,93,0.00,,---,0.94,VWS V14.01,2013-02-27 00:54:00,
2013-02-26 19:55:00,43.8,41.9,29.51,West,271,1.0,7.0,93,0.00,,---,0.94,VWS V14.01,2013-02-27 00:55:00,
2013-02-26 19:56:00,44.0,42.1,29.49,West,281,3.0,6.0,93,0.00,,---,0.94,VWS V14.01,2013-02-27 00:56:00,
2013-02-26 19:57:00,43.8,41.9,29.51,SW,232,1.0,5.0,93,0.00,,---,0.94,VWS V14.01,2013-02-27 00:57:00,
2013-02-26 19:58:00,43.8,41.9,29.51,WSW,240,3.0,5.0,93,0.00,,---,0.94,VWS V14.01,2013-02-27 00:58:00,
2013-02-26 19:59:00,43.8,41.9,29.51,SW,229,4.0,6.0,93,0.00,,---,0.94,VWS V14.01,2013-02-27 00:59:00,
2013-02-26 20:00:00,43.8,41.9,29.51,SW,236,3.0,4.0,93,0.00,,---,0.94,VWS V14.01,2013-02-27 01:00:00,
2013-02-26 20:01:00,43.9,42.0,29.49,WSW,250,4.0,6.0,93,0.00,,---,0.94,VWS V14.01,2013-02-27 01:01:00,
2013-02-26 20:02:00,43.8,41.9,29.51,SW,235,1.0,4.0,93,0.00,,---,0.94,VWS V14.01,2013-02-27 01:02:00,
2013-02-26 20:03:00,43.8,41.9,29.51,SW,230,5.0,9.0,93,0.00,,---,0.94,VWS V14.01,2013-02-27 01:03:00,
2013-02-26 20:04:00,43.8,41.9,29.51,SW,216,4.0,5.0,93,0.00,,---,0.94,VWS V14.01,2013-02-27 01:04:00,
2013-02-26 20:05:00,43.8,41.9,29.51,WSW,252,3.0,7.0,93,0.00,,---,0.94,VWS V14.01,2013-02-27 01:05:00,
2013-02-26 20:06:00,43.8,41.9,29.49,WSW,250,6.0,7.0,93,0.00,,---,0.94,VWS V14.01,2013-02-27 01:06:00,
2013-02-26 20:07:00,43.8,41.9,29.51,WSW,252,5.0,9.0,93,0.00,,---,0.94,VWS V14.01,2013-02-27 01:07:00,
2013-02-26 20:09:00,43.8,41.9,29.51,WSW,250,2.0,4.0,93,0.00,,---,0.94,VWS V14.01,2013-02-27 01:09:00,
2013-02-26 20:10:00,43.8,41.9,29.51,WSW,238,4.0,4.0,93,0.00,,---,0.94,VWS V14.01,2013-02-27 01:10:00,
2013-02-26 20:11:00,43.8,41.9,29.49,WSW,257,4.0,8.0,93,0.00,,---,0.94,VWS V14.01,2013-02-27 01:11:00,
2013-02-26 20:12:00,43.8,41.9,29.51,SW,232,0.0,4.0,93,0.00,,---,0.94,VWS V14.01,2013-02-27 01:12:00,
2013-02-26 20:14:00,43.8,41.9,29.52,SSW,205,3.0,5.0,93,0.00,,---,0.94,VWS V14.01,2013-02-27 01:14:00,
2013-02-26 20:16:00,43.8,41.9,29.49,WNW,284,4.0,9.0,93,0.00,,---,0.94,VWS V14.01,2013-02-27 01:16:00,
2013-02-26 20:17:00,43.8,41.9,29.52,WNW,296,3.0,8.0,93,0.00,,---,0.94,VWS V14.01,2013-02-27 01:17:00,
2013-02-26 20:18:00,43.8,41.9,29.52,WSW,252,9.0,10.0,93,0.00,,---,0.94,VWS V14.01,2013-02-27 01:18:00,
2013-02-26 20:19:00,43.7,41.8,29.52,WSW,248,3.0,9.0,93,0.00,,---,0.94,VWS V14.01,2013-02-27 01:19:00,
2013-02-26 20:20:00,43.7,41.8,29.52,WSW,244,0.0,3.0,93,0.00,,---,0.94,VWS V14.01,2013-02-27 01:20:00,
2013-02-26 20:21:00,43.8,41.9,29.49,WSW,251,5.0,6.0,93,0.00,,---,0.94,VWS V14.01,2013-02-27 01:21:00,
2013-02-26 20:22:00,43.7,41.8,29.52,SSW,195,4.0,9.0,93,0.00,,---,0.94,VWS V14.01,2013-02-27 01:22:00,
2013-02-26 20:23:00,43.7,41.8,29.52,WSW,257,4.0,10.0,93,0.00,,---,0.94,VWS V14.01,2013-02-27 01:23:00,
2013-02-26 20:24:00,43.7,41.8,29.52,SW,222,2.0,4.0,93,0.00,,---,0.94,VWS V14.01,2013-02-27 01:24:00,
2013-02-26 20:25:00,43.7,41.8,29.52,WSW,249,4.0,8.0,93,0.00,,---,0.94,VWS V14.01,2013-02-27 01:25:00,
2013-02-26 20:26:00,43.8,41.9,29.50,SW,229,4.0,8.0,93,0.00,,---,0.94,VWS V14.01,2013-02-27 01:26:00,
2013-02-26 20:27:00,43.7,41.8,29.52,SW,229,4.0,11.0,93,0.00,,---,0.94,VWS V14.01,2013-02-27 01:27:00,
2013-02-26 20:28:00,43.7,41.8,29.52,SW,232,11.0,11.0,93,0.00,,---,0.94,VWS V14.01,2013-02-27 01:28:00,
2013-02-26 20:29:00,43.7,41.8,29.51,WSW,256,5.0,12.0,93,0.00,,---,0.94,VWS V14.01,2013-02-27 01:29:00,
2013-02-26 20:30:00,43.6,41.7,29.52,WSW,258,2.0,9.0,93,0.00,,---,0.94,VWS V14.01,2013-02-27 01:30:00,
2013-02-26 20:31:00,43.8,41.6,29.50,WSW,246,4.0,7.0,92,0.00,,---,0.94,VWS V14.01,2013-02-27 01:31:00,
2013-02-26 20:32:00,43.6,41.7,29.52,SW,236,3.0,5.0,93,0.00,,---,0.94,VWS V14.01,2013-02-27 01:32:00,
2013-02-26 20:33:00,43.6,41.7,29.52,West,275,5.0,8.0,93,0.00,,---,0.94,VWS V14.01,2013-02-27 01:33:00,
2013-02-26 20:34:00,43.6,41.7,29.52,WSW,257,2.0,6.0,93,0.01,,---,0.95,VWS V14.01,2013-02-27 01:34:00,
2013-02-26 20:35:00,43.6,41.7,29.52,WSW,248,0.0,5.0,93,0.01,,---,0.95,VWS V14.01,2013-02-27 01:35:00,
2013-02-26 20:36:00,43.6,41.7,29.52,WSW,239,4.0,5.0,93,0.01,,---,0.95,VWS V14.01,2013-02-27 01:36:00,
2013-02-26 20:37:00,43.9,41.7,29.50,SW,229,5.0,12.0,92,0.00,,---,0.94,VWS V14.01,2013-02-27 01:37:00,
2013-02-26 20:38:00,43.5,41.6,29.52,West,263,2.0,10.0,93,0.01,,---,0.95,VWS V14.01,2013-02-27 01:38:00,
2013-02-26 20:39:00,43.5,41.6,29.52,SW,229,3.0,9.0,93,0.01,,---,0.95,VWS V14.01,2013-02-27 01:39:00,
2013-02-26 20:40:00,43.5,41.6,29.52,WSW,245,2.0,5.0,93,0.01,,---,0.95,VWS V14.01,2013-02-27 01:40:00,
2013-02-26 20:41:00,43.4,41.5,29.52,WSW,253,5.0,8.0,93,0.01,,---,0.95,VWS V14.01,2013-02-27 01:41:00,
2013-02-26 20:42:00,43.9,41.7,29.50,SSW,213,3.0,6.0,92,0.00,,---,0.94,VWS V14.01,2013-02-27 01:42:00,
2013-02-26 20:43:00,43.4,41.5,29.52,WSW,247,4.0,8.0,93,0.01,,---,0.95,VWS V14.01,2013-02-27 01:43:00,
2013-02-26 20:44:00,43.4,41.5,29.52,WSW,258,4.0,8.0,93,0.01,,---,0.95,VWS V14.01,2013-02-27 01:44:00,
2013-02-26 20:45:00,43.3,41.4,29.52,West,261,1.0,4.0,93,0.01,,---,0.95,VWS V14.01,2013-02-27 01:45:00,
2013-02-26 20:46:00,43.3,41.4,29.52,WSW,249,8.0,9.0,93,0.01,,---,0.95,VWS V14.01,2013-02-27 01:46:00,
2013-02-26 20:47:00,43.9,41.7,29.51,SW,223,2.0,7.0,92,0.00,,---,0.94,VWS V14.01,2013-02-27 01:47:00,
2013-02-26 20:48:00,43.3,41.4,29.52,WSW,249,2.0,6.0,93,0.01,,---,0.95,VWS V14.01,2013-02-27 01:48:00,
2013-02-26 20:49:00,43.2,41.3,29.52,SW,227,1.0,4.0,93,0.01,,---,0.95,VWS V14.01,2013-02-27 01:49:00,
2013-02-26 20:50:00,43.2,41.3,29.52,West,263,0.0,5.0,93,0.01,,---,0.95,VWS V14.01,2013-02-27 01:50:00,
2013-02-26 20:51:00,43.2,41.3,29.52,WSW,237,2.0,3.0,93,0.01,,---,0.95,VWS V14.01,2013-02-27 01:51:00,
2013-02-26 20:52:00,43.8,41.9,29.51,WSW,254,6.0,7.0,93,0.00,,---,0.94,VWS V14.01,2013-02-27 01:52:00,
2013-02-26 20:53:00,43.2,41.6,29.52,WSW,248,0.0,2.0,94,0.01,,---,0.95,VWS V14.01,2013-02-27 01:53:00,
2013-02-26 20:54:00,43.1,41.2,29.52,WSW,238,4.0,4.0,93,0.01,,---,0.95,VWS V14.01,2013-02-27 01:54:00,
2013-02-26 20:55:00,43.1,41.2,29.52,SW,225,0.0,4.0,93,0.01,,---,0.95,VWS V14.01,2013-02-27 01:55:00,
2013-02-26 20:56:00,43.1,41.5,29.52,SW,232,1.0,4.0,94,0.02,,---,0.96,VWS V14.01,2013-02-27 01:56:00,
2013-02-26 20:57:00,43.8,41.9,29.51,SW,232,1.0,5.0,93,0.00,,---,0.94,VWS V14.01,2013-02-27 01:57:00,
2013-02-26 20:58:00,43.1,41.5,29.52,SW,223,1.0,5.0,94,0.02,,---,0.96,VWS V14.01,2013-02-27 01:58:00,
2013-02-26 20:59:00,43.0,41.4,29.52,WSW,243,3.0,3.0,94,0.02,,---,0.96,VWS V14.01,2013-02-27 01:59:00,
2013-02-26 21:00:00,43.0,41.4,29.52,SSW,213,5.0,6.0,94,0.02,,---,0.96,VWS V14.01,2013-02-27 02:00:00,
2013-02-26 21:01:00,43.0,41.4,29.52,West,280,4.0,5.0,94,0.02,,---,0.96,VWS V14.01,2013-02-27 02:01:00,
2013-02-26 21:02:00,43.8,41.9,29.51,SW,235,1.0,4.0,93,0.00,,---,0.94,VWS V14.01,2013-02-27 02:02:00,
2013-02-26 21:03:00,43.0,41.4,29.52,SSE,158,6.0,7.0,94,0.02,,---,0.96,VWS V14.01,2013-02-27 02:03:00,
2013-02-26 21:04:00,43.0,41.4,29.52,West,263,4.0,7.0,94,0.02,,---,0.96,VWS V14.01,2013-02-27 02:04:00,
2013-02-26 21:05:00,42.9,41.3,29.52,South,188,2.0,4.0,94,0.02,,---,0.96,VWS V14.01,2013-02-27 02:05:00,
2013-02-26 21:06:00,42.9,41.3,29.52,SSW,194,2.0,3.0,94,0.03,,---,0.97,VWS V14.01,2013-02-27 02:06:00,
2013-02-26 21:07:00,43.8,41.9,29.51,WSW,252,5.0,9.0,93,0.00,,---,0.94,VWS V14.01,2013-02-27 02:07:00,
2013-02-26 21:08:00,42.9,41.3,29.52,West,261,2.0,5.0,94,0.03,,---,0.97,VWS V14.01,2013-02-27 02:08:00,
2013-02-26 21:09:00,42.9,41.3,29.52,WSW,239,3.0,4.0,94,0.03,,---,0.97,VWS V14.01,2013-02-27 02:09:00,
2013-02-26 21:10:00,42.8,41.2,29.52,WSW,240,7.0,8.0,94,0.03,,---,0.97,VWS V14.01,2013-02-27 02:10:00,
2013-02-26 21:11:00,42.8,41.2,29.52,WSW,253,3.0,7.0,94,0.03,,---,0.97,VWS V14.01,2013-02-27 02:11:00,
2013-02-26 21:12:00,43.8,41.9,29.51,SW,232,0.0,4.0,93,0.00,,---,0.94,VWS V14.01,2013-02-27 02:12:00,
2013-02-26 21:13:00,42.8,41.2,29.52,SW,221,3.0,12.0,94,0.03,,---,0.97,VWS V14.01,2013-02-27 02:13:00,
2013-02-26 21:14:00,42.7,41.1,29.53,WNW,299,5.0,8.0,94,0.03,,---,0.97,VWS V14.01,2013-02-27 02:14:00,
2013-02-26 21:15:00,42.7,41.1,29.52,SW,218,5.0,6.0,94,0.03,,---,0.97,VWS V14.01,2013-02-27 02:15:00,
2013-02-26 21:16:00,42.6,41.0,29.52,SW,235,5.0,8.0,94,0.03,,---,0.97,VWS V14.01,2013-02-27 02:16:00,
2013-02-26 21:17:00,42.6,41.0,29.52,WSW,254,5.0,7.0,94,0.03,,---,0.97,VWS V14.01,2013-02-27 02:17:00,
2013-02-26 21:18:00,42.6,41.0,29.52,South,173,1.0,7.0,94,0.03,,---,0.97,VWS V14.01,2013-02-27 02:18:00,
2013-02-26 21:19:00,43.7,41.8,29.52,WSW,248,3.0,9.0,93,0.00,,---,0.94,VWS V14.01,2013-02-27 02:19:00,
2013-02-26 21:20:00,42.5,40.9,29.52,WSW,248,2.0,9.0,94,0.03,,---,0.97,VWS V14.01,2013-02-27 02:20:00,
2013-02-26 21:21:00,42.5,40.9,29.52,WSW,241,4.0,5.0,94,0.03,,---,0.97,VWS V14.01,2013-02-27 02:21:00,
2013-02-26 21:22:00,42.5,40.9,29.53,SW,234,2.0,7.0,94,0.03,,---,0.97,VWS V14.01,2013-02-27 02:22:00,
2013-02-26 21:23:00,42.4,40.8,29.53,SSW,212,3.0,5.0,94,0.03,,---,0.97,VWS V14.01,2013-02-27 02:23:00,
2013-02-26 21:24:00,43.7,41.8,29.52,SW,222,2.0,4.0,93,0.00,,---,0.94,VWS V14.01,2013-02-27 02:24:00,
2013-02-26 21:25:00,42.4,40.8,29.53,South,173,7.0,7.0,94,0.03,,---,0.97,VWS V14.01,2013-02-27 02:25:00,
2013-02-26 21:26:00,42.4,40.8,29.53,WSW,250,4.0,9.0,94,0.03,,---,0.97,VWS V14.01,2013-02-27 02:26:00,
2013-02-26 21:27:00,42.4,40.8,29.53,SSW,210,2.0,5.0,94,0.03,,---,0.97,VWS V14.01,2013-02-27 02:27:00,
2013-02-26 21:28:00,42.4,40.8,29.53,SSW,205,2.0,3.0,94,0.04,,---,0.98,VWS V14.01,2013-02-27 02:28:00,
2013-02-26 21:29:00,43.7,41.8,29.51,WSW,256,5.0,12.0,93,0.00,,---,0.94,VWS V14.01,2013-02-27 02:29:00,
2013-02-26 21:30:00,42.3,40.7,29.53,SSW,192,2.0,3.0,94,0.04,,---,0.98,VWS V14.01,2013-02-27 02:30:00,
2013-02-26 21:31:00,42.3,40.7,29.53,SW,219,3.0,5.0,94,0.04,,---,0.98,VWS V14.01,2013-02-27 02:31:00,
2013-02-26 21:32:00,42.3,40.7,29.53,SSW,211,2.0,4.0,94,0.04,,---,0.98,VWS V14.01,2013-02-27 02:32:00,
2013-02-26 21:33:00,42.2,40.6,29.53,WSW,248,4.0,7.0,94,0.04,,---,0.98,VWS V14.01,2013-02-27 02:33:00,
2013-02-26 21:34:00,42.2,40.6,29.53,SW,216,2.0,7.0,94,0.04,,---,0.98,VWS V14.01,2013-02-27 02:34:00,
2013-02-26 21:35:00,43.6,41.7,29.52,WSW,248,0.0,5.0,93,0.01,,---,0.95,VWS V14.01,2013-02-27 02:35:00,
2013-02-26 21:36:00,42.2,40.6,29.53,SSW,211,4.0,5.0,94,0.03,,---,0.98,VWS V14.01,2013-02-27 02:36:00,
2013-02-26 21:37:00,42.2,40.6,29.53,SW,234,2.0,5.0,94,0.03,,---,0.98,VWS V14.01,2013-02-27 02:37:00,
2013-02-26 21:38:00,42.1,40.5,29.53,WSW,240,2.0,3.0,94,0.03,,---,0.98,VWS V14.01,2013-02-27 02:38:00,
2013-02-26 21:39:00,42.1,40.8,29.53,SW,225,2.0,3.0,95,0.03,,---,0.98,VWS V14.01,2013-02-27 02:39:00,
2013-02-26 21:40:00,43.5,41.6,29.52,WSW,245,2.0,5.0,93,0.01,,---,0.95,VWS V14.01,2013-02-27 02:40:00,
2013-02-26 21:41:00,42.1,40.8,29.53,SSW,196,0.0,5.0,95,0.03,,---,0.98,VWS V14.01,2013-02-27 02:41:00,
2013-02-26 21:42:00,42.0,40.7,29.53,WSW,245,3.0,4.0,95,0.03,,---,0.98,VWS V14.01,2013-02-27 02:42:00,
2013-02-26 21:43:00,42.0,40.7,29.53,SSW,210,3.0,6.0,95,0.04,,---,0.99,VWS V14.01,2013-02-27 02:43:00,
2013-02-26 21:44:00,42.0,40.7,29.53,WSW,251,3.0,5.0,95,0.04,,---,0.99,VWS V14.01,2013-02-27 02:44:00,
2013-02-26 21:45:00,43.3,41.4,29.52,West,261,1.0,4.0,93,0.01,,---,0.95,VWS V14.01,2013-02-27 02:45:00,
2013-02-26 21:46:00,41.9,40.6,29.53,SSW,203,1.0,2.0,95,0.04,,---,0.99,VWS V14.01,2013-02-27 02:46:00,
2013-02-26 21:47:00,41.9,40.6,29.53,SW,227,2.0,5.0,95,0.04,,---,0.99,VWS V14.01,2013-02-27 02:47:00,
2013-02-26 21:48:00,41.9,40.6,29.53,WSW,239,0.0,6.0,95,0.04,,---,0.99,VWS V14.01,2013-02-27 02:48:00,
2013-02-26 21:49:00,41.9,40.6,29.53,WSW,239,0.0,0.0,95,0.04,,---,0.99,VWS V14.01,2013-02-27 02:49:00,
2013-02-26 21:50:00,43.2,41.3,29.52,West,263,0.0,5.0,93,0.01,,---,0.95,VWS V14.01,2013-02-27 02:50:00,
2013-02-26 21:51:00,41.8,40.5,29.53,SW,229,2.0,3.0,95,0.04,,---,0.99,VWS V14.01,2013-02-27 02:51:00,
2013-02-26 21:52:00,41.8,40.5,29.53,SSW,201,2.0,5.0,95,0.04,,---,0.99,VWS V14.01,2013-02-27 02:52:00,
2013-02-26 21:53:00,41.8,40.5,29.53,WSW,238,3.0,6.0,95,0.04,,---,0.99,VWS V14.01,2013-02-27 02:53:00,
2013-02-26 21:54:00,41.8,40.5,29.53,SW,221,0.0,3.0,95,0.04,,---,0.99,VWS V14.01,2013-02-27 02:54:00,
2013-02-26 21:55:00,43.1,41.2,29.52,SW,225,0.0,4.0,93,0.01,,---,0.95,VWS V14.01,2013-02-27 02:55:00,
2013-02-26 21:56:00,41.8,40.5,29.53,SW,229,4.0,4.0,95,0.04,,---,0.99,VWS V14.01,2013-02-27 02:56:00,
2013-02-26 21:57:00,41.7,40.4,29.53,SW,221,2.0,4.0,95,0.03,,---,0.99,VWS V14.01,2013-02-27 02:57:00,
2013-02-26 21:58:00,41.7,40.4,29.53,SW,223,0.0,3.0,95,0.03,,---,0.99,VWS V14.01,2013-02-27 02:58:00,
2013-02-26 21:59:00,41.7,40.4,29.53,WSW,248,1.0,6.0,95,0.03,,---,0.99,VWS V14.01,2013-02-27 02:59:00,
2013-02-26 22:00:00,43.0,41.4,29.52,SSW,213,5.0,6.0,94,0.02,,---,0.96,VWS V14.01,2013-02-27 03:00:00,
2013-02-26 22:01:00,41.7,40.4,29.53,WNW,293,4.0,7.0,95,0.03,,---,0.99,VWS V14.01,2013-02-27 03:01:00,
2013-02-26 22:02:00,41.7,40.4,29.53,SW,225,0.0,4.0,95,0.03,,---,0.99,VWS V14.01,2013-02-27 03:02:00,
2013-02-26 22:03:00,41.7,40.4,29.53,West,260,3.0,7.0,95,0.03,,---,0.99,VWS V14.01,2013-02-27 03:03:00,
2013-02-26 22:04:00,41.6,40.3,29.53,WSW,238,2.0,4.0,95,0.03,,---,0.99,VWS V14.01,2013-02-27 03:04:00,
2013-02-26 22:05:00,41.6,40.3,29.53,SW,234,3.0,7.0,95,0.03,,---,0.99,VWS V14.01,2013-02-27 03:05:00,
2013-02-26 22:06:00,42.9,41.3,29.52,SSW,194,2.0,3.0,94,0.03,,---,0.97,VWS V14.01,2013-02-27 03:06:00,
2013-02-26 22:07:00,41.6,40.3,29.53,West,263,4.0,9.0,95,0.02,,---,0.99,VWS V14.01,2013-02-27 03:07:00,
2013-02-26 22:08:00,41.6,40.3,29.53,SW,229,2.0,5.0,95,0.02,,---,0.99,VWS V14.01,2013-02-27 03:08:00,
2013-02-26 22:09:00,41.6,40.3,29.53,WSW,257,8.0,8.0,95,0.02,,---,0.99,VWS V14.01,2013-02-27 03:09:00,
2013-02-26 22:10:00,41.6,40.3,29.53,WSW,242,2.0,8.0,95,0.02,,---,0.99,VWS V14.01,2013-02-27 03:10:00,
2013-02-26 22:11:00,42.8,41.2,29.52,WSW,253,3.0,7.0,94,0.03,,---,0.97,VWS V14.01,2013-02-27 03:11:00,
2013-02-26 22:12:00,41.6,40.0,29.53,SW,218,3.0,6.0,94,0.02,,---,0.99,VWS V14.01,2013-02-27 03:12:00,
2013-02-26 22:13:00,41.6,40.0,29.53,SW,218,1.0,5.0,94,0.02,,---,0.99,VWS V14.01,2013-02-27 03:13:00,
2013-02-26 22:14:00,41.6,40.0,29.53,SSW,196,0.0,2.0,94,0.02,,---,0.99,VWS V14.01,2013-02-27 03:14:00,
2013-02-26 22:15:00,41.6,40.0,29.53,SW,225,2.0,2.0,94,0.02,,---,0.99,VWS V14.01,2013-02-27 03:15:00,
2013-02-26 22:16:00,42.6,41.0,29.52,SW,235,5.0,8.0,94,0.03,,---,0.97,VWS V14.01,2013-02-27 03:16:00,
2013-02-26 22:17:00,41.6,40.0,29.53,WSW,239,1.0,7.0,94,0.02,,---,0.99,VWS V14.01,2013-02-27 03:17:00,
2013-02-26 22:18:00,41.5,39.9,29.53,SW,227,3.0,5.0,94,0.02,,---,0.99,VWS V14.01,2013-02-27 03:18:00,
2013-02-26 22:19:00,41.5,39.9,29.53,WSW,241,4.0,6.0,94,0.02,,---,0.99,VWS V14.01,2013-02-27 03:19:00,
2013-02-26 22:20:00,41.5,39.9,29.53,SW,225,4.0,8.0,94,0.02,,---,0.99,VWS V14.01,2013-02-27 03:20:00,
2013-02-26 22:21:00,42.5,40.9,29.52,WSW,241,4.0,5.0,94,0.03,,---,0.97,VWS V14.01,2013-02-27 03:21:00,
2013-02-26 22:22:00,41.5,39.9,29.53,SSW,211,0.0,5.0,94,0.02,,---,0.99,VWS V14.01,2013-02-27 03:22:00,
2013-02-26 22:23:00,41.5,39.9,29.53,WSW,242,5.0,6.0,94,0.02,,---,0.99,VWS V14.01,2013-02-27 03:23:00,
2013-02-26 22:25:00,41.5,39.9,29.53,South,186,2.0,3.0,94,0.02,,---,0.99,VWS V14.01,2013-02-27 03:25:00,
2013-02-26 22:26:00,42.4,40.8,29.53,WSW,250,4.0,9.0,94,0.03,,---,0.97,VWS V14.01,2013-02-27 03:26:00,
2013-02-26 22:27:00,41.5,39.9,29.53,SSW,204,5.0,5.0,94,0.02,,---,0.99,VWS V14.01,2013-02-27 03:27:00,
2013-02-26 22:28:00,41.5,39.9,29.53,SSW,208,4.0,6.0,94,0.02,,---,0.99,VWS V14.01,2013-02-27 03:28:00,
2013-02-26 22:29:00,41.5,39.9,29.53,SSW,201,2.0,5.0,94,0.01,,---,0.99,VWS V14.01,2013-02-27 03:29:00,
2013-02-26 22:30:00,41.5,39.9,29.53,SSW,196,3.0,4.0,94,0.01,,---,0.99,VWS V14.01,2013-02-27 03:30:00,
2013-02-26 22:31:00,41.4,39.8,29.53,SSW,196,0.0,6.0,94,0.01,,---,0.99,VWS V14.01,2013-02-27 03:31:00,
2013-02-26 22:32:00,42.3,40.7,29.53,SSW,211,2.0,4.0,94,0.04,,---,0.98,VWS V14.01,2013-02-27 03:32:00,
2013-02-26 22:33:00,41.4,39.8,29.53,SW,217,0.0,3.0,94,0.01,,---,0.99,VWS V14.01,2013-02-27 03:33:00,
2013-02-26 22:34:00,41.4,39.8,29.53,SW,229,3.0,5.0,94,0.01,,---,0.99,VWS V14.01,2013-02-27 03:34:00,
2013-02-26 22:35:00,41.4,39.8,29.53,SW,228,2.0,3.0,94,0.01,,---,0.99,VWS V14.01,2013-02-27 03:35:00,
2013-02-26 22:36:00,41.4,39.8,29.53,SSW,205,3.0,6.0,94,0.01,,---,0.99,VWS V14.01,2013-02-27 03:36:00,
2013-02-26 22:37:00,42.2,40.6,29.53,SW,234,2.0,5.0,94,0.03,,---,0.98,VWS V14.01,2013-02-27 03:37:00,
2013-02-26 22:38:00,41.3,39.7,29.53,South,176,2.0,4.0,94,0.01,,---,0.99,VWS V14.01,2013-02-27 03:38:00,
2013-02-26 22:39:00,41.3,39.7,29.53,SW,214,3.0,5.0,94,0.01,,---,0.99,VWS V14.01,2013-02-27 03:39:00,
2013-02-26 22:40:00,41.3,39.7,29.53,WSW,244,6.0,10.0,94,0.01,,---,0.99,VWS V14.01,2013-02-27 03:40:00,
2013-02-26 22:41:00,41.3,39.7,29.53,WSW,254,0.0,6.0,94,0.01,,---,0.99,VWS V14.01,2013-02-27 03:41:00,
2013-02-26 22:42:00,42.0,40.7,29.53,WSW,245,3.0,4.0,95,0.03,,---,0.98,VWS V14.01,2013-02-27 03:42:00,
2013-02-26 22:43:00,41.3,39.7,29.53,SW,230,1.0,5.0,94,0.01,,---,0.99,VWS V14.01,2013-02-27 03:43:00,
2013-02-26 22:44:00,41.2,39.6,29.53,WSW,244,3.0,4.0,94,0.00,,---,0.99,VWS V14.01,2013-02-27 03:44:00,
2013-02-26 22:45:00,41.2,39.6,29.53,SW,234,1.0,4.0,94,0.00,,---,0.99,VWS V14.01,2013-02-27 03:45:00,
2013-02-26 22:46:00,41.2,39.6,29.53,SSW,198,4.0,5.0,94,0.00,,---,0.99,VWS V14.01,2013-02-27 03:46:00,
2013-02-26 22:47:00,41.9,40.6,29.53,SW,227,2.0,5.0,95,0.04,,---,0.99,VWS V14.01,2013-02-27 03:47:00,
2013-02-26 22:48:00,41.2,39.6,29.53,SW,222,2.0,3.0,94,0.00,,---,0.99,VWS V14.01,2013-02-27 03:48:00,
2013-02-26 22:49:00,41.2,39.6,29.53,WSW,244,2.0,5.0,94,0.00,,---,0.99,VWS V14.01,2013-02-27 03:49:00,
2013-02-26 22:50:00,41.1,39.5,29.53,SW,233,1.0,4.0,94,0.00,,---,0.99,VWS V14.01,2013-02-27 03:50:00,
2013-02-26 22:51:00,41.1,39.5,29.53,WSW,248,5.0,5.0,94,0.00,,---,0.99,VWS V14.01,2013-02-27 03:51:00,
2013-02-26 22:52:00,41.8,40.5,29.53,SSW,201,2.0,5.0,95,0.04,,---,0.99,VWS V14.01,2013-02-27 03:52:00,
2013-02-26 22:53:00,41.1,39.5,29.54,WSW,238,0.0,3.0,94,0.00,,---,0.99,VWS V14.01,2013-02-27 03:53:00,
2013-02-26 22:54:00,41.1,39.5,29.54,SW,217,0.0,2.0,94,0.00,,---,0.99,VWS V14.01,2013-02-27 03:54:00,
2013-02-26 22:55:00,41.1,39.5,29.54,SSW,211,0.0,1.0,94,0.00,,---,0.99,VWS V14.01,2013-02-27 03:55:00,
2013-02-26 22:56:00,41.1,39.5,29.54,West,265,7.0,7.0,94,0.00,,---,0.99,VWS V14.01,2013-02-27 03:56:00,
2013-02-26 22:57:00,41.7,40.4,29.53,SW,221,2.0,4.0,95,0.03,,---,0.99,VWS V14.01,2013-02-27 03:57:00,
2013-02-26 22:58:00,41.0,39.1,29.53,SSW,194,8.0,8.0,93,0.00,,---,0.99,VWS V14.01,2013-02-27 03:58:00,
2013-02-26 22:59:00,41.0,39.1,29.53,SSW,213,4.0,8.0,93,0.00,,---,0.99,VWS V14.01,2013-02-27 03:59:00,
2013-02-26 23:00:00,41.0,39.1,29.54,SW,233,3.0,6.0,93,0.00,,---,0.00,VWS V14.01,2013-02-27 04:00:00,
2013-02-26 23:01:00,41.0,39.1,29.54,WSW,252,3.0,4.0,93,0.00,,---,0.00,VWS V14.01,2013-02-27 04:01:00,
2013-02-26 23:02:00,41.7,40.4,29.53,SW,225,0.0,4.0,95,0.03,,---,0.99,VWS V14.01,2013-02-27 04:02:00,
2013-02-26 23:03:00,41.0,39.1,29.54,West,263,4.0,10.0,93,0.00,,---,0.00,VWS V14.01,2013-02-27 04:03:00,
2013-02-26 23:04:00,41.0,39.1,29.54,WSW,258,2.0,5.0,93,0.00,,---,0.00,VWS V14.01,2013-02-27 04:04:00,
2013-02-26 23:05:00,41.0,39.1,29.54,SW,234,6.0,12.0,93,0.00,,---,0.00,VWS V14.01,2013-02-27 04:05:00,
2013-02-26 23:06:00,41.0,39.1,29.54,SSW,203,3.0,8.0,93,0.00,,---,0.00,VWS V14.01,2013-02-27 04:06:00,
2013-02-26 23:07:00,41.6,40.3,29.53,West,263,4.0,9.0,95,0.02,,---,0.99,VWS V14.01,2013-02-27 04:07:00,
2013-02-26 23:08:00,41.0,39.1,29.54,SSW,213,1.0,3.0,93,0.00,,---,0.00,VWS V14.01,2013-02-27 04:08:00,
2013-02-26 23:09:00,41.0,39.1,29.54,SW,228,1.0,5.0,93,0.00,,---,0.00,VWS V14.01,2013-02-27 04:09:00,
2013-02-26 23:10:00,41.0,39.1,29.54,SW,227,4.0,6.0,93,0.00,,---,0.00,VWS V14.01,2013-02-27 04:10:00,
2013-02-26 23:11:00,41.0,39.1,29.54,SW,229,3.0,4.0,93,0.00,,---,0.00,VWS V14.01,2013-02-27 04:11:00,
2013-02-26 23:12:00,40.9,39.0,29.54,SW,234,3.0,7.0,93,0.00,,---,0.00,VWS V14.01,2013-02-27 04:12:00,
2013-02-26 23:13:00,41.6,40.0,29.53,SW,218,1.0,5.0,94,0.02,,---,0.99,VWS V14.01,2013-02-27 04:13:00,
2013-02-26 23:14:00,40.9,39.0,29.54,West,259,4.0,4.0,93,0.00,,---,0.00,VWS V14.01,2013-02-27 04:14:00,
2013-02-26 23:15:00,40.9,39.0,29.54,WSW,255,6.0,6.0,93,0.00,,---,0.00,VWS V14.01,2013-02-27 04:15:00,
2013-02-26 23:16:00,40.9,39.0,29.54,South,182,2.0,6.0,93,0.00,,---,0.00,VWS V14.01,2013-02-27 04:16:00,
2013-02-26 23:17:00,40.9,39.0,29.54,West,267,7.0,10.0,93,0.00,,---,0.00,VWS V14.01,2013-02-27 04:17:00,
2013-02-26 23:18:00,41.5,39.9,29.53,SW,227,3.0,5.0,94,0.02,,---,0.99,VWS V14.01,2013-02-27 04:18:00,
2013-02-26 23:19:00,40.8,38.9,29.54,SW,215,3.0,4.0,93,0.00,,---,0.00,VWS V14.01,2013-02-27 04:19:00,
2013-02-26 23:20:00,40.8,38.9,29.54,WSW,240,4.0,5.0,93,0.00,,---,0.00,VWS V14.01,2013-02-27 04:20:00,
2013-02-26 23:21:00,40.8,38.9,29.54,SW,216,2.0,10.0,93,0.00,,---,0.00,VWS V14.01,2013-02-27 04:21:00,
2013-02-26 23:22:00,40.8,38.9,29.54,West,274,4.0,5.0,93,0.00,,---,0.00,VWS V14.01,2013-02-27 04:22:00,
2013-02-26 23:23:00,41.5,39.9,29.53,WSW,242,5.0,6.0,94,0.02,,---,0.99,VWS V14.01,2013-02-27 04:23:00,
2013-02-26 23:24:00,40.7,38.8,29.54,WSW,243,2.0,5.0,93,0.00,,---,0.00,VWS V14.01,2013-02-27 04:24:00,
2013-02-26 23:25:00,40.7,38.8,29.54,West,273,0.0,5.0,93,0.00,,---,0.00,VWS V14.01,2013-02-27 04:25:00,
2013-02-26 23:26:00,40.7,38.8,29.54,SW,225,2.0,5.0,93,0.00,,---,0.00,VWS V14.01,2013-02-27 04:26:00,
2013-02-26 23:27:00,40.7,38.8,29.54,SSW,211,3.0,3.0,93,0.00,,---,0.00,VWS V14.01,2013-02-27 04:27:00,
2013-02-26 23:28:00,41.5,39.9,29.53,SSW,208,4.0,6.0,94,0.02,,---,0.99,VWS V14.01,2013-02-27 04:28:00,
2013-02-26 23:29:00,40.6,38.7,29.54,West,272,5.0,9.0,93,0.00,,---,0.00,VWS V14.01,2013-02-27 04:29:00,
2013-02-26 23:30:00,40.6,38.7,29.54,WSW,245,0.0,5.0,93,0.00,,---,0.00,VWS V14.01,2013-02-27 04:30:00,
2013-02-26 23:31:00,40.6,38.7,29.54,West,265,4.0,7.0,93,0.00,,---,0.00,VWS V14.01,2013-02-27 04:31:00,
2013-02-26 23:32:00,40.6,38.5,29.54,WSW,250,2.0,6.0,92,0.00,,---,0.00,VWS V14.01,2013-02-27 04:32:00,
2013-02-26 23:33:00,41.4,39.8,29.53,SW,217,0.0,3.0,94,0.01,,---,0.99,VWS V14.01,2013-02-27 04:33:00,
2013-02-26 23:34:00,40.6,38.7,29.54,SSW,212,0.0,4.0,93,0.00,,---,0.00,VWS V14.01,2013-02-27 04:34:00,
2013-02-26 23:35:00,40.6,38.5,29.54,WSW,248,3.0,4.0,92,0.00,,---,0.00,VWS V14.01,2013-02-27 04:35:00,
2013-02-26 23:36:00,40.6,38.5,29.54,WSW,237,3.0,7.0,92,0.00,,---,0.00,VWS V14.01,2013-02-27 04:36:00,
2013-02-26 23:37:00,40.6,38.5,29.55,WSW,239,3.0,4.0,92,0.00,,---,0.00,VWS V14.01,2013-02-27 04:37:00,
2013-02-26 23:38:00,41.3,39.7,29.53,South,176,2.0,4.0,94,0.01,,---,0.99,VWS V14.01,2013-02-27 04:38:00,
2013-02-26 23:39:00,40.5,38.4,29.55,WSW,241,3.0,6.0,92,0.00,,---,0.00,VWS V14.01,2013-02-27 04:39:00,
2013-02-26 23:40:00,40.5,38.4,29.55,SW,225,2.0,4.0,92,0.00,,---,0.00,VWS V14.01,2013-02-27 04:40:00,
2013-02-26 23:41:00,40.4,38.3,29.55,SW,229,1.0,7.0,92,0.00,,---,0.00,VWS V14.01,2013-02-27 04:41:00,
2013-02-26 23:42:00,40.4,38.3,29.55,SW,234,3.0,6.0,92,0.00,,---,0.00,VWS V14.01,2013-02-27 04:42:00,
2013-02-26 23:43:00,41.3,39.7,29.53,SW,230,1.0,5.0,94,0.01,,---,0.99,VWS V14.01,2013-02-27 04:43:00,
2013-02-26 23:44:00,40.4,38.3,29.55,WSW,252,4.0,10.0,92,0.00,,---,0.00,VWS V14.01,2013-02-27 04:44:00,
2013-02-26 23:45:00,40.4,38.3,29.55,SW,226,4.0,8.0,92,0.00,,---,0.00,VWS V14.01,2013-02-27 04:45:00,
2013-02-26 23:46:00,40.3,38.2,29.55,WSW,250,4.0,12.0,92,0.00,,---,0.00,VWS V14.01,2013-02-27 04:46:00,
2013-02-26 23:47:00,40.3,38.2,29.55,SW,229,5.0,5.0,92,0.00,,---,0.00,VWS V14.01,2013-02-27 04:47:00,
2013-02-26 23:48:00,41.2,39.6,29.53,SW,222,2.0,3.0,94,0.00,,---,0.99,VWS V14.01,2013-02-27 04:48:00,
2013-02-26 23:49:00,40.3,38.2,29.55,WSW,252,1.0,6.0,92,0.00,,---,0.00,VWS V14.01,2013-02-27 04:49:00,
2013-02-26 23:50:00,40.3,38.2,29.55,West,263,4.0,7.0,92,0.00,,---,0.00,VWS V14.01,2013-02-27 04:50:00,
2013-02-26 23:51:00,40.3,38.2,29.55,West,261,8.0,11.0,92,0.00,,---,0.00,VWS V14.01,2013-02-27 04:51:00,
2013-02-26 23:52:00,40.3,38.2,29.55,WSW,254,8.0,10.0,92,0.00,,---,0.00,VWS V14.01,2013-02-27 04:52:00,
2013-02-26 23:53:00,41.1,39.5,29.54,WSW,238,0.0,3.0,94,0.00,,---,0.99,VWS V14.01,2013-02-27 04:53:00,
2013-02-26 23:54:00,40.2,37.8,29.55,WNW,285,7.0,9.0,91,0.00,,---,0.00,VWS V14.01,2013-02-27 04:54:00,
2013-02-26 23:55:00,40.2,37.8,29.55,West,280,4.0,13.0,91,0.00,,---,0.00,VWS V14.01,2013-02-27 04:55:00,
2013-02-26 23:56:00,40.2,37.8,29.55,WNW,287,2.0,5.0,91,0.00,,---,0.00,VWS V14.01,2013-02-27 04:56:00,
2013-02-26 23:57:00,40.2,37.8,29.55,WSW,255,9.0,10.0,91,0.00,,---,0.00,VWS V14.01,2013-02-27 04:57:00,
2013-02-26 23:58:00,41.0,39.1,29.53,SSW,194,8.0,8.0,93,0.00,,---,0.99,VWS V14.01,2013-02-27 04:58:00,
2013-02-26 23:59:00,40.2,37.8,29.55,SSW,208,6.0,7.0,91,0.00,,---,0.00,VWS V14.01,2013-02-27 04:59:00,